GFSGBSN_sfc_30mbdewp_000.txt.gz
Dewpoint
43 42 43 42 42 45 47 48 51 52 57 54 56 55 56 55 53 50 51 52 52 53 53 55 56 56 55 49 48 49 52 50 55 54 52 49 48 44 39 41 42 42 44 45 45 45 45
41 41 41 41 42 43 44 48 48 49 52 57 54 56 55 56 54 52 52 52 52 52 54 54 55 54 48 40 44 44 43 46 51 53 53 51 49 48 44 43 41 41 41 41 41 42 43
40 39 39 40 40 40 43 45 47 47 49 54 56 55 56 55 54 53 53 53 53 52 53 53 54 50 46 41 44 44 42 42 43 47 49 52 50 48 47 43 44 42 39 40 40 40 40
39 38 38 38 36 37 40 42 43 44 46 48 53 55 54 55 55 54 54 53 54 54 54 53 54 50 41 45 47 44 42 40 41 45 41 48 49 46 45 44 40 39 39 35 36 38 40
38 38 38 37 37 38 37 36 40 43 43 47 49 52 55 54 55 55 55 54 54 53 53 53 47 44 38 44 44 44 43 38 39 40 40 40 39 37 39 37 34 36 31 33 33 37 38
40 37 36 36 35 36 34 34 38 41 41 44 46 49 52 55 55 55 55 53 53 52 51 49 47 42 41 38 42 42 44 41 38 39 38 38 38 36 36 33 23 28 32 32 31 35 36
37 36 36 36 35 35 34 34 37 42 41 41 45 49 51 54 55 55 53 49 44 43 47 40 40 38 38 42 42 41 42 40 39 37 35 37 35 31 32 33 32 34 33 33 34 35 34
35 37 36 39 38 36 34 33 38 39 41 42 44 47 52 52 55 55 49 42 41 39 37 43 43 42 42 41 38 40 41 38 37 34 35 34 30 33 34 35 34 34 32 31 33 33 33
40 39 39 39 38 36 35 35 35 40 41 44 44 46 50 51 55 52 46 43 46 43 35 35 42 41 41 41 38 39 40 38 36 35 34 31 30 33 34 33 32 32 31 30 29 30 29
41 39 39 39 38 36 36 35 38 41 42 44 44 45 48 52 52 49 45 47 46 39 26 27 38 40 41 40 36 40 40 38 36 33 34 34 34 32 32 31 32 29 32 32 31 29 24
40 38 37 39 37 38 36 39 41 42 43 46 44 45 48 50 50 46 47 47 45 33 15 31 38 42 41 35 37 39 40 37 34 33 33 29 31 31 30 30 31 28 31 31 31 30 29
42 41 41 40 38 37 38 40 40 43 43 43 45 46 48 47 50 48 48 48 42 22 15 31 37 39 38 36 38 39 38 38 37 33 33 30 34 32 31 31 30 31 30 29 29 27 22
42 41 41 41 39 38 38 38 37 43 43 46 46 47 49 46 46 50 48 42 27 19 31 31 32 36 35 34 36 37 35 35 33 28 28 34 33 34 34 30 31 30 28 21 21 21 18
41 41 40 40 39 38 38 36 37 42 43 44 46 48 48 46 50 50 44 32 22 23 27 33 31 33 32 33 32 36 35 33 35 34 29 25 23 32 33 30 28 28 26 20 12 17 17
41 41 40 39 39 38 36 35 37 42 44 47 48 47 46 45 51 47 37 25 22 24 33 32 32 29 30 32 32 33 34 31 31 36 28 27 24 32 33 32 31 31 26 27 21 19 20
39 40 40 38 39 38 35 36 38 42 45 48 46 43 43 46 51 44 32 27 25 31 34 33 28 30 28 30 30 32 30 30 32 34 34 30 25 29 32 33 32 31 31 26 26 16 13
39 40 39 37 38 38 36 36 39 41 44 48 43 37 43 46 48 40 30 28 27 37 35 32 30 30 28 28 31 30 26 28 32 31 34 32 30 27 33 31 27 30 28 29 26 25 15
39 39 38 37 38 37 35 36 40 42 45 45 40 33 47 49 36 36 31 28 31 38 39 37 35 32 31 31 31 29 27 28 32 33 31 34 32 25 26 30 31 28 26 27 21 18 21
39 38 36 37 37 37 34 37 40 43 45 44 38 41 48 45 31 33 33 31 34 38 38 37 35 34 35 33 28 31 30 30 33 34 32 33 30 24 25 29 32 31 30 26 26 27 20
39 38 36 37 38 37 34 36 40 44 45 46 38 34 40 42 39 33 30 30 31 36 36 38 37 36 35 34 33 30 30 30 33 34 35 34 32 28 21 27 31 28 30 30 27 24 21
38 38 36 36 37 37 34 35 40 44 45 47 41 35 36 31 35 32 31 31 31 31 37 37 37 36 36 33 33 32 32 31 33 34 36 36 29 32 32 31 32 32 31 30 28 26 22
37 37 37 37 37 35 34 36 40 45 46 43 39 37 37 35 35 31 31 34 32 33 36 36 35 35 37 35 33 28 32 32 32 34 35 37 29 32 29 33 32 30 32 33 32 28 26
38 37 37 37 37 34 35 37 40 44 46 39 40 43 37 36 36 32 31 33 32 35 36 37 38 38 37 37 39 38 36 35 36 36 35 34 31 29 26 32 32 26 30 31 31 33 27
38 38 36 37 37 35 35 36 38 43 46 43 41 42 39 34 35 32 34 33 36 37 35 39 39 38 39 43 41 40 38 37 37 37 38 34 30 31 27 31 25 32 36 33 31 33 32
37 37 36 36 37 35 35 36 38 42 44 44 44 42 42 35 35 34 35 36 36 37 38 38 39 41 43 41 38 35 34 35 35 37 37 37 33 30 28 29 30 32 37 32 31 31 33
37 36 36 37 37 37 35 37 38 41 42 44 44 46 44 37 34 35 36 38 38 37 38 40 42 45 44 41 36 29 25 28 28 33 35 37 36 32 30 28 20 26 38 41 38 32 36
35 36 36 36 36 37 36 37 37 40 41 44 44 47 44 40 41 39 36 37 40 38 36 38 39 40 42 37 34 32 30 31 28 30 31 33 33 30 29 28 29 31 34 39 31 28 31
37 35 37 37 37 37 37 37 36 39 41 44 42 47 45 42 42 41 41 40 40 39 36 40 38 40 39 35 34 34 33 32 31 30 33 31 29 29 30 28 24 33 35 31 30 31 31
38 38 38 37 37 37 36 37 36 37 41 44 40 43 46 45 42 45 44 43 42 41 40 41 39 40 40 38 37 37 35 33 32 28 35 32 32 30 30 28 31 33 32 34 33 32 32

GFSGBSN_sfc_30mbdewp_003.txt.gz
Dewpoint
42 41 41 41 41 40 40 43 45 45 47 50 52 55 55 55 56 54 51 50 53 53 53 54 55 56 55 50 48 49 50 50 55 54 51 49 46 41 38 41 42 43 44 45 45 45 45
41 40 40 40 39 39 39 38 40 43 44 46 49 53 54 55 55 55 53 52 52 52 54 53 55 52 48 43 44 42 42 45 53 53 51 49 48 47 43 42 40 41 42 41 41 41 42
40 41 40 40 39 38 39 39 37 36 41 43 46 50 52 55 54 55 53 53 52 52 53 53 54 49 45 41 43 43 41 41 42 50 51 52 50 47 47 43 44 42 39 39 39 39 39
39 39 37 38 37 38 37 37 36 36 38 42 42 45 51 51 55 55 54 54 53 54 53 52 53 48 40 45 47 44 41 38 40 44 44 50 50 47 45 44 39 38 38 34 35 38 39
37 37 38 36 39 39 39 37 36 35 37 41 42 42 46 51 52 55 55 55 54 53 53 54 47 42 37 44 45 45 41 37 39 40 40 41 39 37 41 37 33 35 28 33 34 37 35
37 37 38 38 39 39 39 38 37 35 36 41 39 41 44 48 52 55 56 54 53 52 50 48 47 41 42 38 42 43 43 39 38 39 38 38 38 36 35 33 19 24 31 32 30 34 35
41 43 40 39 40 39 38 37 36 36 37 36 40 42 45 47 52 54 55 51 44 43 46 40 39 39 39 42 42 41 42 39 39 38 35 37 34 31 32 33 30 33 32 31 32 34 33
41 41 40 39 40 39 39 38 37 37 37 39 41 44 45 46 51 53 52 44 40 39 36 44 44 42 43 42 38 40 41 37 37 34 36 34 30 33 33 33 33 32 31 30 29 33 32
40 40 39 39 40 40 40 38 38 39 41 42 44 46 45 45 49 51 49 45 44 40 30 36 42 42 40 41 38 39 40 38 36 34 34 31 30 33 33 33 31 30 29 27 27 30 31
40 41 42 41 41 41 40 39 39 41 42 45 44 44 45 45 46 48 46 48 47 36 23 26 36 40 41 39 36 41 40 38 36 33 32 31 33 33 33 32 33 28 31 32 31 29 23
42 42 42 42 41 41 41 39 39 41 41 44 44 44 46 46 44 47 48 48 43 33 14 31 37 42 41 36 35 39 40 36 34 33 33 28 31 33 31 31 32 28 31 30 31 30 29
41 42 42 42 42 40 41 39 40 38 43 43 41 43 45 45 47 47 50 48 40 24 15 31 37 38 38 36 38 39 39 38 37 33 34 30 33 31 30 31 31 31 30 29 28 27 20
40 40 41 41 41 40 41 39 38 37 39 43 42 42 44 46 40 48 50 44 28 22 29 31 33 38 35 33 36 36 35 35 33 28 28 30 31 33 33 29 31 30 30 22 20 20 16
37 38 40 41 41 40 40 38 37 37 38 42 44 46 46 47 48 50 45 34 24 24 27 32 31 35 33 31 33 35 33 32 34 33 29 24 20 30 33 30 27 29 27 22 14 14 15
37 36 40 40 39 40 39 38 36 39 42 44 47 47 46 48 48 47 39 29 24 25 32 31 31 30 31 31 31 32 33 33 33 35 28 25 25 31 33 33 29 30 27 28 24 24 20
37 38 40 39 38 40 39 38 35 40 43 46 45 43 43 47 48 45 35 31 26 34 34 32 29 29 27 30 31 31 32 31 32 34 34 30 25 28 32 33 32 31 33 25 26 16 14
40 39 39 38 37 39 38 38 36 40 43 47 42 36 42 47 48 40 30 32 31 36 34 32 31 30 29 30 30 31 28 27 33 33 34 33 30 27 32 30 27 30 28 29 28 26 18
39 39 39 38 38 38 39 37 37 40 45 45 39 34 45 47 35 33 32 29 34 36 38 37 34 32 30 30 30 29 27 27 32 34 33 33 31 26 25 29 31 29 27 27 23 20 24
39 38 38 37 38 38 38 35 37 41 45 44 37 40 46 42 30 32 34 33 36 38 38 36 34 35 34 31 29 30 30 31 34 33 31 34 30 23 23 29 31 31 30 28 27 26 22
39 39 38 38 38 38 35 36 37 41 44 46 38 34 40 41 39 34 31 32 32 37 38 38 36 36 35 34 32 31 31 32 33 34 35 35 32 26 20 24 31 28 29 31 30 24 21
39 39 39 38 38 38 35 37 39 42 46 46 41 34 36 32 35 32 32 31 33 32 36 37 36 35 34 33 33 33 33 32 33 34 35 35 29 31 31 30 31 31 31 30 29 27 22
39 39 39 37 37 38 35 38 40 42 46 42 36 37 37 37 36 31 33 30 30 33 36 36 34 35 36 35 31 30 32 32 31 34 36 37 30 32 29 33 32 29 31 31 30 29 27
39 38 38 37 36 39 36 38 39 42 45 39 40 42 41 36 34 30 30 32 32 34 35 37 37 36 36 36 37 37 37 36 35 34 34 34 32 29 25 31 31 27 30 31 32 32 29
37 37 37 37 38 38 37 37 39 41 43 44 42 41 38 34 33 31 31 33 34 35 36 39 38 38 39 43 42 42 41 40 38 37 36 35 31 30 27 29 23 34 36 34 31 29 32
38 35 36 37 37 38 38 37 38 39 41 43 43 41 40 34 35 33 33 32 33 36 37 38 39 40 43 42 36 35 34 34 35 37 37 37 34 30 27 28 31 28 33 33 31 30 31
38 38 37 38 38 38 38 38 38 38 40 43 44 45 42 38 34 34 34 37 36 36 38 39 42 45 44 39 36 30 25 27 27 31 36 37 37 32 30 27 25 25 37 34 35 28 32
38 38 38 38 38 38 38 37 38 38 39 43 43 45 41 39 40 37 34 37 40 39 37 38 39 39 43 37 33 31 29 30 27 28 30 32 32 29 29 28 29 31 35 39 28 26 31
37 37 37 37 37 38 37 37 39 38 38 42 40 44 39 39 42 42 42 39 40 39 36 39 39 40 39 34 34 34 31 32 31 29 32 30 30 28 30 28 24 33 36 33 30 31 32
37 36 37 37 37 37 37 38 37 37 37 41 38 41 42 39 42 45 44 44 43 41 40 41 39 39 39 37 37 37 35 32 31 27 34 31 31 30 31 27 30 33 33 33 34 32 33

GFSGBSN_sfc_30mbdewp_006.txt.gz
Dewpoint
41 42 41 41 41 39 40 41 41 40 38 40 44 46 50 53 54 56 56 53 51 53 53 53 55 55 55 50 48 48 50 52 55 55 51 49 44 40 37 37 40 40 37 41 42 44 43
41 40 40 39 39 39 40 39 38 38 37 38 40 44 47 51 53 55 55 54 52 53 53 53 54 52 47 44 44 43 44 51 53 54 50 49 46 44 40 38 38 39 41 40 40 40 40
39 39 40 40 39 41 41 40 39 38 37 36 39 44 44 46 51 52 55 53 53 53 54 53 53 49 44 38 42 42 42 44 47 52 50 50 48 45 43 40 43 41 37 35 35 36 37
39 39 39 38 39 40 41 41 40 39 39 36 37 42 43 43 49 52 55 54 53 53 54 53 53 46 38 45 45 44 41 41 44 46 50 51 51 45 41 43 39 36 36 32 33 36 34
40 42 44 40 39 40 40 40 40 39 38 37 39 38 42 41 46 51 53 56 54 54 53 53 46 41 38 45 43 43 41 40 40 41 44 47 41 38 40 34 32 32 26 30 29 34 34
42 40 41 42 42 42 41 41 41 39 38 38 39 38 40 43 45 49 52 56 54 52 51 48 46 41 42 38 43 43 41 39 39 40 39 39 38 35 35 33 22 22 28 26 24 29 34
40 41 43 43 42 40 40 42 42 40 38 39 40 40 42 44 45 47 51 54 46 45 45 37 39 37 39 42 42 41 40 39 38 37 35 37 34 32 30 31 28 27 27 26 27 30 30
41 43 43 43 43 42 42 41 41 40 39 41 43 43 45 45 46 46 50 45 41 41 39 42 41 41 42 41 38 40 40 35 35 32 35 34 32 31 31 31 31 29 26 25 26 28 28
43 43 43 43 43 42 42 41 41 41 40 42 44 44 45 45 46 44 46 47 47 44 35 41 41 40 40 41 37 38 38 37 34 33 33 30 30 32 32 31 30 29 28 26 26 26 27
41 40 41 43 42 42 42 41 41 40 40 42 44 43 43 43 42 42 42 49 49 45 33 32 38 39 40 39 36 40 38 36 35 31 32 31 31 31 31 30 30 26 27 27 28 26 23
41 41 41 41 41 41 42 41 41 41 41 41 44 42 42 42 42 39 45 50 47 41 23 32 37 42 40 33 36 39 40 36 32 32 32 28 32 32 30 30 31 27 29 27 27 26 25
40 40 38 41 41 41 40 41 40 39 39 39 40 42 42 41 41 42 47 48 43 30 22 32 38 38 37 35 37 39 38 37 35 32 33 29 32 31 29 31 31 30 29 28 27 25 22
37 37 39 40 41 40 39 41 39 39 37 38 41 42 42 41 38 43 49 43 29 25 30 31 32 35 33 32 35 35 36 34 31 29 28 29 30 32 31 29 31 30 27 20 20 21 15
40 41 40 40 40 38 40 40 39 38 37 41 44 47 47 44 44 45 46 34 25 28 26 31 33 32 30 31 35 34 34 33 33 31 28 25 23 29 32 29 26 28 26 19 10 6 9
40 41 40 40 38 38 40 39 39 37 41 44 46 45 45 45 45 46 37 28 29 26 30 30 33 30 31 29 32 32 32 29 30 32 28 27 25 30 31 31 30 28 27 27 23 24 22
40 40 39 38 38 39 39 39 36 37 42 45 41 42 43 47 48 43 33 31 30 32 31 30 27 27 26 29 29 29 30 31 30 32 31 29 25 27 29 33 32 30 30 25 27 16 13
39 40 39 38 39 39 39 36 36 39 42 46 39 37 43 47 42 36 30 32 34 34 32 31 30 28 27 28 28 28 28 29 31 32 33 30 27 27 31 29 25 29 28 30 28 24 15
39 40 39 38 39 39 40 35 38 39 42 45 39 31 44 47 34 34 32 34 36 35 38 35 32 30 28 30 29 28 28 27 30 34 32 31 30 26 26 26 28 25 25 26 24 22 26
40 40 39 39 39 39 39 36 38 39 43 44 36 37 44 45 31 32 35 35 38 36 37 35 34 32 32 30 29 29 29 31 32 32 31 32 31 23 23 29 29 28 27 27 31 30 24
39 39 39 38 38 39 38 36 39 41 44 46 37 32 39 38 38 34 31 32 34 38 38 37 35 35 33 30 31 30 30 32 32 32 34 33 30 26 20 22 27 29 29 32 30 25 21
39 38 38 38 38 39 39 37 40 43 45 44 38 35 37 32 34 32 32 33 32 32 37 37 34 33 32 30 31 31 32 32 33 34 34 33 29 31 30 29 30 32 31 32 29 28 24
36 36 36 37 37 38 38 38 41 43 44 41 35 37 37 37 34 32 34 31 31 35 34 34 33 35 34 31 31 31 33 33 31 33 33 35 30 33 29 32 31 31 33 33 32 31 27
38 39 38 38 37 38 38 39 41 42 43 40 40 41 41 37 35 30 32 31 31 34 36 38 35 35 34 36 36 36 35 34 34 33 33 34 32 30 25 29 29 28 32 33 33 33 30
39 39 38 38 38 38 38 38 39 40 42 42 42 41 39 34 34 30 31 34 32 32 36 37 37 37 39 42 42 41 40 40 39 37 35 34 33 31 27 30 25 33 36 36 34 35 33
39 38 38 38 39 38 38 38 39 39 41 42 44 41 39 35 33 32 32 31 36 37 36 37 39 39 42 41 37 34 35 35 35 37 37 36 34 30 27 28 28 29 32 36 33 30 31
38 37 36 37 37 38 38 37 40 38 40 42 44 43 41 37 34 33 34 33 31 33 37 38 43 45 44 40 36 30 26 26 27 32 37 36 36 33 30 26 24 28 32 35 34 29 32
37 37 37 37 37 37 37 38 39 37 38 41 41 41 40 36 40 36 34 36 40 38 37 39 40 40 43 36 33 31 30 30 27 27 30 32 32 29 30 28 28 31 32 39 27 28 32
37 37 37 36 34 34 35 35 35 36 36 40 41 42 37 35 37 43 41 39 40 38 35 39 38 40 39 34 33 32 32 31 31 30 31 29 30 29 30 27 26 32 35 30 32 33 33
37 37 36 35 35 34 33 33 34 35 36 38 37 43 41 37 40 46 45 44 42 41 40 41 39 39 38 36 36 36 33 34 32 28 33 30 32 30 30 29 31 33 34 35 34 34 34

GFSGBSN_sfc_30mbdewp_009.txt.gz
Dewpoint
40 40 40 42 40 41 42 41 41 40 39 39 39 39 44 45 47 50 53 56 55 52 53 53 53 54 54 51 49 50 52 53 55 55 50 47 43 40 37 36 36 37 36 33 35 38 38
41 40 41 41 41 41 41 42 42 40 40 40 39 37 41 43 44 46 52 54 56 52 53 54 53 54 49 45 48 46 45 49 49 53 49 48 45 41 39 36 36 36 37 36 37 38 38
42 42 43 43 42 40 42 41 41 41 41 39 39 39 38 40 42 44 48 53 56 53 53 54 53 49 43 42 42 43 45 46 50 52 50 49 49 45 42 39 39 39 37 35 34 35 35
44 44 43 42 43 42 42 42 42 42 41 40 39 39 40 39 41 43 46 52 53 54 53 53 52 44 38 44 42 40 44 46 49 50 49 50 49 45 41 41 38 35 35 31 31 33 32
42 42 42 43 42 43 44 43 43 43 42 41 39 39 41 40 40 42 46 50 52 55 53 53 46 43 37 45 42 40 41 43 43 45 48 48 48 40 39 35 30 31 28 29 29 30 31
42 42 43 44 45 43 44 44 44 41 42 41 39 40 42 42 42 44 46 49 51 54 52 49 46 41 40 38 41 41 40 41 40 40 40 39 37 34 34 31 25 25 27 26 23 23 30
44 43 45 44 44 44 45 45 43 41 42 42 41 42 42 43 45 46 45 47 48 46 49 40 39 36 39 41 42 40 39 40 39 38 34 37 34 32 30 31 30 27 24 22 22 24 26
42 40 42 43 43 43 44 43 42 42 42 42 42 44 43 44 45 46 45 42 46 45 41 41 38 38 40 40 38 39 38 36 37 35 34 35 33 32 31 30 29 28 26 24 23 25 25
41 42 42 42 41 42 42 42 42 42 42 41 42 44 43 44 43 43 40 42 50 48 40 40 39 39 40 40 36 38 37 34 34 32 31 31 30 31 30 30 28 27 26 25 24 25 26
42 38 38 39 41 41 42 42 41 42 42 42 41 43 43 42 39 40 39 47 49 47 33 36 39 38 40 39 36 39 37 35 34 31 32 32 30 30 28 28 28 25 25 25 26 25 22
41 40 42 42 41 41 42 41 41 41 41 40 38 41 42 42 39 38 41 49 48 44 23 36 38 39 39 34 36 38 38 37 31 30 31 29 29 29 29 28 28 27 29 27 26 25 24
40 42 42 42 41 40 39 41 40 40 40 39 38 40 42 40 39 39 43 47 42 29 23 32 37 37 36 32 35 38 37 37 33 30 30 27 30 30 29 29 29 30 28 27 26 26 21
41 42 41 40 39 39 40 40 40 39 38 39 42 43 45 41 37 38 45 42 27 23 33 31 31 35 33 31 33 36 34 33 30 28 27 29 28 30 29 28 30 29 27 21 21 22 17
41 42 41 40 39 39 40 40 38 36 40 42 45 46 46 46 44 40 42 35 24 30 30 31 33 33 31 30 30 31 31 30 30 28 27 26 26 29 31 29 26 27 25 19 11 8 9
42 41 42 40 39 40 40 40 36 40 41 44 45 41 43 45 43 43 35 26 24 29 30 31 31 30 30 30 32 31 29 30 29 30 28 26 26 28 29 29 28 27 25 26 23 21 18
41 41 41 40 39 40 41 38 37 39 42 45 43 40 41 45 43 42 33 31 33 30 30 30 27 29 26 27 31 29 28 29 29 30 30 28 25 26 28 31 30 28 28 25 27 16 11
41 42 40 40 39 38 41 36 39 41 43 44 43 37 44 46 42 37 29 32 35 31 32 30 27 26 26 26 27 27 28 29 29 30 30 28 26 28 30 28 24 28 27 30 25 25 19
41 41 40 40 39 40 40 38 40 41 45 45 39 32 45 43 34 35 33 35 36 32 37 32 30 27 26 26 26 25 26 26 30 31 29 29 28 26 25 26 27 26 27 26 25 20 25
38 39 37 39 39 39 39 39 40 42 45 45 36 37 44 45 30 33 35 36 34 35 36 33 31 29 28 27 26 27 27 29 29 31 29 30 30 24 27 27 26 26 26 25 28 30 25
36 38 38 39 38 39 39 39 40 42 45 45 35 33 38 40 39 34 34 36 35 39 36 35 33 31 29 28 30 27 29 32 30 31 33 31 29 27 20 22 25 29 30 30 31 27 24
37 40 39 38 39 39 39 39 41 44 45 42 38 36 37 33 34 36 35 35 35 34 36 34 32 30 28 27 28 28 30 31 32 32 32 31 30 29 29 28 29 29 30 30 31 31 28
38 38 39 38 39 38 39 40 42 43 44 40 36 36 38 35 32 30 31 31 31 33 32 30 30 30 30 27 29 29 30 30 30 32 32 34 30 32 29 30 30 30 31 34 35 34 33
38 38 38 39 39 38 39 40 41 42 43 40 40 41 40 37 32 29 30 30 32 34 36 36 34 33 32 34 35 35 35 33 33 32 32 33 33 30 25 27 28 29 34 35 35 35 34
38 37 36 36 37 38 38 39 40 40 42 42 41 41 38 34 31 29 31 32 31 34 35 36 36 35 39 41 41 40 38 37 37 36 36 34 32 31 27 30 26 30 34 36 35 34 33
38 37 37 37 37 38 38 39 39 38 40 42 42 40 38 33 32 31 31 34 33 34 36 37 38 40 42 40 35 32 35 35 35 38 37 35 33 30 27 26 26 32 31 36 36 33 33
38 37 36 37 35 35 36 36 36 37 38 40 42 41 39 36 32 32 31 32 32 33 34 36 43 44 42 40 35 30 30 26 28 34 37 36 35 32 29 26 24 28 32 36 38 29 32
38 37 37 37 36 35 34 34 34 36 37 38 41 40 40 36 38 38 32 33 34 33 37 40 40 40 42 37 33 31 31 30 26 27 30 33 33 29 29 28 28 29 32 39 29 28 33
38 37 37 37 36 35 34 34 33 35 35 37 37 41 36 35 37 40 38 36 40 37 36 39 39 39 39 34 33 33 33 31 30 28 30 29 29 29 30 28 25 32 33 32 33 34 33
37 38 37 37 37 36 35 34 33 34 34 36 34 38 42 36 37 41 42 45 43 41 37 40 40 38 39 36 37 36 34 33 30 26 31 29 29 29 29 29 32 34 34 35 35 34 34

GFSGBSN_sfc_30mbdewp_012.txt.gz
Dewpoint
43 43 43 44 43 43 41 43 42 42 42 42 40 40 40 40 40 42 46 49 53 56 54 54 54 53 53 51 48 54 55 55 56 56 52 44 42 40 37 36 34 34 34 33 33 34 35
43 44 44 43 43 43 42 42 43 44 43 42 41 41 41 40 40 41 43 46 51 55 56 54 53 53 49 45 51 47 47 49 51 54 51 47 45 44 40 37 35 36 36 36 37 35 36
43 43 43 43 42 44 43 44 45 45 44 44 43 42 42 41 41 41 41 45 48 53 57 53 53 50 43 44 45 49 49 45 48 52 51 49 48 45 43 39 40 37 37 37 36 36 36
46 44 44 44 45 45 46 45 46 46 44 43 42 42 41 41 42 41 41 42 47 50 54 54 53 47 41 42 43 41 47 47 48 52 52 50 49 46 42 41 38 37 37 34 31 34 34
43 45 43 44 42 43 44 45 46 46 44 42 42 43 42 42 42 43 42 44 47 49 54 54 48 45 38 44 42 39 43 45 47 48 52 50 48 43 40 36 33 34 30 31 31 33 32
45 43 43 44 43 42 41 44 44 43 42 43 42 43 42 42 42 44 45 45 47 48 54 52 46 42 40 40 40 40 40 43 42 45 43 44 40 36 36 34 27 27 29 29 27 28 29
42 42 43 41 40 42 42 43 43 42 42 42 42 43 43 43 44 44 45 44 44 45 49 43 41 37 36 41 42 39 40 41 39 41 35 37 34 33 32 33 32 30 29 26 24 24 23
42 42 40 43 43 43 42 43 42 42 41 42 42 43 43 43 44 43 44 39 43 46 40 46 39 38 41 41 39 39 40 38 37 35 35 35 32 32 31 31 30 30 29 27 26 25 25
42 40 43 44 43 42 42 42 41 41 42 42 42 42 42 43 42 42 40 39 48 46 41 41 40 38 40 39 38 38 38 37 35 34 35 32 31 33 32 30 29 28 27 26 25 26 26
42 41 44 43 41 40 41 41 41 41 41 42 42 40 40 43 40 39 38 46 47 46 33 36 39 38 39 40 36 38 38 35 34 34 32 31 32 29 29 29 29 25 27 26 25 25 23
42 40 43 42 42 40 41 41 41 40 40 40 40 39 40 41 40 37 42 48 46 42 22 37 38 40 39 37 37 38 38 35 32 32 32 31 30 30 29 27 28 26 29 27 27 26 25
42 41 43 43 42 40 40 41 41 38 37 40 42 43 43 43 42 39 44 46 40 27 22 32 38 37 37 35 35 37 36 36 34 30 30 30 30 29 29 29 29 29 28 27 26 25 21
41 42 43 43 41 41 40 41 40 36 40 41 43 44 45 45 38 38 43 39 27 22 35 31 34 36 33 32 34 34 34 33 30 28 27 28 29 30 30 28 30 29 26 23 22 22 15
40 42 43 42 40 40 40 41 36 39 40 44 46 46 45 45 44 39 40 33 22 28 32 32 36 34 30 31 33 34 33 31 31 29 27 25 26 28 30 29 28 29 26 21 15 16 18
40 41 42 41 41 40 41 40 37 41 44 45 46 43 43 46 46 41 34 24 27 31 31 32 35 32 32 31 31 31 31 29 29 29 28 27 26 29 31 30 29 27 25 27 24 22 20
42 39 40 40 41 40 41 37 38 42 45 47 44 41 41 43 43 39 32 29 30 37 32 31 27 28 27 28 29 29 29 29 27 29 30 28 26 27 29 30 29 28 27 25 25 17 14
39 38 38 40 40 38 40 37 40 42 45 47 42 37 42 44 42 38 30 31 33 36 31 30 28 26 25 29 29 27 26 28 29 29 29 27 26 27 29 28 27 28 27 28 26 26 20
40 40 39 40 40 39 39 38 40 42 46 46 38 33 44 43 34 35 33 34 39 34 36 30 28 27 25 26 28 27 27 27 29 30 28 28 28 26 27 28 29 28 27 27 24 20 23
38 39 40 39 40 40 39 39 40 42 47 45 37 38 44 44 30 33 35 36 37 36 36 32 29 28 27 26 26 27 28 28 30 30 29 29 29 24 27 27 26 26 26 26 27 28 24
39 39 39 39 40 40 40 40 42 43 45 44 38 32 37 39 39 34 34 36 36 40 35 33 31 30 27 27 29 27 29 31 29 31 32 30 29 26 23 25 28 29 30 29 29 27 25
38 39 37 39 39 38 39 41 42 43 45 43 39 35 37 33 36 35 37 37 35 34 35 33 31 29 27 26 27 27 28 31 31 33 31 31 29 30 30 29 28 28 29 29 31 32 28
38 39 37 37 37 38 38 42 42 42 44 41 38 36 39 34 36 37 35 36 34 32 33 29 29 29 28 27 30 26 29 29 31 32 31 32 29 33 29 29 29 28 30 31 31 33 35
38 38 37 37 37 38 39 41 41 41 43 40 40 41 40 35 32 30 31 30 32 34 35 36 33 31 32 36 36 36 36 34 33 32 31 34 33 29 25 27 28 28 31 34 35 36 35
38 38 37 37 36 36 36 36 37 38 40 42 40 41 38 32 32 28 31 31 32 36 34 36 35 35 39 40 40 39 38 37 36 34 35 34 32 30 27 28 24 28 33 35 35 36 35
38 38 38 37 37 36 35 35 35 37 38 39 42 39 38 34 31 30 31 32 32 34 36 37 39 41 42 40 36 32 35 35 35 36 36 36 34 30 26 26 25 28 32 34 35 33 34
40 37 38 38 37 37 35 35 34 35 36 37 42 42 39 36 32 36 30 32 32 32 35 39 43 44 42 40 34 30 29 29 30 33 37 37 35 33 29 25 22 29 33 37 38 32 33
41 37 39 38 37 37 36 35 34 35 35 36 39 41 40 36 38 39 32 33 33 34 37 39 40 40 42 36 32 31 30 32 27 29 31 33 34 30 29 27 28 29 33 37 30 29 34
41 39 38 38 37 37 37 36 35 34 34 36 35 42 37 35 36 38 40 39 39 38 37 40 39 39 38 34 33 33 33 33 30 30 31 30 29 29 30 28 24 32 33 32 34 35 34
42 38 37 40 38 38 37 36 35 35 34 34 32 35 38 37 36 39 39 40 42 44 40 40 40 38 39 36 36 36 33 35 33 28 31 29 30 30 29 28 30 35 34 35 35 35 34

GFSGBSN_sfc_30mbdewp_015.txt.gz
Dewpoint
47 45 43 43 43 43 43 45 45 45 45 45 44 44 43 44 42 42 40 42 44 49 54 57 54 54 52 49 48 56 56 55 56 55 52 50 46 41 37 37 36 35 35 36 36 35 35
44 47 45 45 45 47 46 46 47 48 47 47 45 44 43 42 41 40 42 41 40 47 52 56 55 53 50 43 50 52 52 55 55 54 53 52 44 43 41 39 37 35 35 37 37 37 37
43 45 44 42 45 44 44 44 45 46 46 47 45 42 43 43 43 43 40 41 41 42 50 52 56 51 45 43 49 47 48 48 51 53 50 51 48 45 43 39 40 38 36 37 37 38 37
46 47 44 43 43 41 43 43 42 45 44 44 43 44 43 43 43 42 42 43 42 43 48 51 55 49 43 44 45 48 49 48 47 50 51 51 49 45 42 40 38 36 36 34 35 35 37
45 44 43 43 42 44 44 44 43 43 44 43 43 43 43 43 42 42 43 43 44 44 47 51 52 47 39 45 41 40 46 46 50 53 52 50 48 43 41 37 34 35 31 33 34 33 34
45 43 41 44 45 44 44 42 42 43 43 42 42 43 43 43 43 44 45 44 45 46 48 52 50 43 43 40 42 39 39 46 46 50 50 48 45 38 37 35 29 29 32 30 29 30 31
43 41 43 45 44 42 41 41 41 41 42 42 42 42 43 43 43 44 44 42 42 42 45 43 40 39 39 41 42 40 39 43 45 43 37 40 36 35 35 35 33 32 30 29 28 28 25
44 44 43 44 43 42 41 41 41 42 41 42 42 43 43 42 42 43 43 38 41 43 37 44 42 41 41 41 38 39 40 39 41 37 36 35 33 35 34 35 34 31 30 29 27 26 26
42 40 42 43 43 42 41 41 41 41 40 41 41 42 41 40 43 43 39 39 46 43 37 43 45 40 40 41 39 38 39 38 37 36 34 32 31 34 33 32 29 29 28 28 27 27 26
42 40 42 43 43 42 41 41 41 41 40 38 39 40 41 41 40 40 39 45 47 43 29 36 40 39 40 40 38 39 40 37 36 34 35 33 31 31 32 31 30 27 28 28 27 25 22
41 41 43 44 42 41 41 41 42 41 38 41 42 42 44 44 42 38 42 46 43 39 20 36 39 41 40 39 38 37 38 36 34 34 34 32 31 30 28 28 28 27 29 27 27 25 25
39 40 43 43 42 41 40 41 42 38 40 43 43 44 45 45 45 41 46 45 41 26 19 33 39 37 38 37 37 38 37 37 34 32 33 29 30 30 30 29 29 29 27 26 26 25 19
41 42 40 43 41 41 41 42 39 39 42 44 45 46 47 45 40 43 43 39 25 19 34 31 35 36 35 35 35 35 34 33 30 27 29 29 29 30 30 29 29 29 25 20 19 20 14
41 38 38 40 41 39 39 41 37 40 42 45 47 48 44 45 44 42 39 33 21 30 30 37 36 34 32 33 34 34 33 30 32 29 27 25 22 29 30 29 27 28 25 19 10 17 19
42 39 40 41 41 39 41 39 39 41 44 46 47 42 43 46 43 38 34 23 24 30 35 35 35 32 31 32 34 32 31 29 30 30 26 25 25 30 30 30 29 28 25 27 23 22 19
41 38 41 40 41 40 40 39 40 42 45 48 44 41 42 44 41 36 33 30 30 34 37 33 29 31 29 30 30 31 31 30 28 29 30 29 25 29 31 30 30 28 28 23 24 14 14
40 39 38 39 41 40 40 40 40 43 48 47 40 36 41 42 42 36 30 31 34 37 35 32 28 27 29 32 30 29 29 28 29 29 30 28 26 27 29 28 26 28 27 27 25 25 19
40 39 38 40 41 39 40 41 40 45 47 44 38 33 41 45 34 35 32 34 38 36 38 36 29 27 27 32 29 27 27 28 30 30 28 27 27 26 26 29 30 29 27 27 21 19 23
39 39 37 38 39 40 39 41 41 45 46 44 37 37 43 44 32 32 35 37 38 38 35 32 30 28 29 28 27 27 28 29 30 29 28 28 26 23 25 28 29 27 28 27 27 27 23
40 39 37 37 37 39 40 41 42 43 46 41 37 29 34 39 39 35 34 36 34 38 36 33 30 27 27 27 29 27 30 29 31 32 32 29 30 24 21 25 28 27 28 28 27 27 24
41 39 38 38 37 36 37 39 41 43 45 42 39 34 36 31 33 34 37 37 34 33 34 32 30 29 28 27 28 28 31 30 30 33 31 32 28 30 29 29 30 29 28 28 28 29 27
41 39 38 37 38 37 36 36 40 42 44 41 37 36 37 35 36 36 37 35 35 34 35 31 29 32 32 30 30 27 30 31 29 32 31 32 27 31 28 28 29 28 29 29 29 30 30
42 39 39 38 38 37 36 36 38 40 41 40 40 41 39 34 35 34 32 34 33 35 34 36 34 36 35 36 37 37 35 34 32 31 31 33 31 28 22 27 28 27 29 29 31 34 35
41 39 39 38 38 37 37 36 35 37 38 41 39 40 37 33 33 30 31 32 35 35 34 37 37 37 39 40 40 38 37 37 35 33 34 34 32 30 24 28 21 29 31 34 33 35 36
40 42 38 39 38 38 37 36 35 35 36 36 42 38 37 33 35 30 31 33 34 37 37 37 40 42 42 40 36 33 33 34 34 35 35 36 33 29 25 25 25 29 33 34 34 32 34
41 43 39 39 37 37 37 37 36 35 35 36 42 42 38 34 35 38 35 33 32 33 34 40 42 43 41 39 34 28 28 29 31 33 36 36 35 32 30 24 21 29 32 37 37 31 34
40 42 39 37 40 38 38 37 37 36 34 35 37 41 39 35 38 36 37 34 33 36 36 38 38 39 41 35 32 30 29 33 29 29 31 33 33 29 29 27 27 30 32 38 29 27 35
39 41 39 38 38 39 37 37 36 35 35 34 33 38 37 35 35 35 37 40 40 38 33 38 37 38 37 34 32 31 31 33 32 31 31 30 29 29 31 28 22 30 36 33 32 35 35
38 40 38 35 37 39 37 35 37 37 34 35 32 34 37 35 35 37 36 37 37 40 43 40 39 38 38 36 34 35 33 33 33 29 32 30 30 29 29 27 29 32 34 35 35 35 34

GFSGBSN_sfc_30mbdewp_018.txt.gz
Dewpoint
46 45 48 44 43 43 43 42 45 45 45 46 46 48 46 45 44 44 41 39 40 41 42 49 52 56 52 47 47 53 56 57 55 53 51 48 45 42 38 38 39 36 37 37 37 38 37
45 47 45 44 45 43 44 45 44 44 44 45 46 45 43 43 44 44 43 41 41 41 40 44 51 56 49 41 49 53 56 56 55 53 51 50 47 44 41 39 37 36 35 36 36 37 38
46 44 45 44 44 46 46 45 45 44 44 44 44 44 44 44 43 43 42 42 42 42 42 44 49 53 46 42 48 52 53 54 55 54 51 52 51 44 43 40 40 38 36 37 37 37 37
46 44 44 41 46 45 45 42 42 42 43 43 44 44 44 43 43 43 43 43 43 43 44 45 49 52 41 45 44 47 48 48 50 53 52 51 48 44 42 41 38 36 36 33 35 35 35
44 43 44 44 45 44 43 41 41 41 41 42 42 42 43 43 43 43 44 44 44 44 45 45 50 47 37 45 43 47 48 46 50 53 52 51 48 43 40 37 34 34 31 32 33 35 34
45 44 44 44 44 44 43 41 41 41 41 42 42 42 43 43 43 43 45 44 44 45 45 46 50 42 40 40 42 41 42 48 48 50 49 48 47 41 38 34 28 28 32 32 31 29 32
44 45 42 43 44 44 43 41 40 41 41 41 41 42 42 43 43 43 44 42 37 39 42 39 42 39 37 42 42 40 39 45 49 46 42 44 39 37 37 37 32 31 31 30 30 30 26
43 41 42 44 45 43 42 41 42 42 42 40 40 40 41 42 41 42 44 38 39 40 34 42 43 42 41 41 39 39 41 41 44 38 38 37 36 37 36 36 35 34 32 30 29 28 26
44 40 42 44 44 42 42 40 41 43 42 39 39 41 42 43 43 42 40 41 46 42 36 38 44 41 40 40 38 38 40 40 41 36 35 34 32 36 35 33 32 31 28 28 27 27 26
42 42 41 43 43 42 42 42 43 42 39 41 43 42 43 45 41 40 40 47 46 41 29 35 38 42 41 41 37 39 41 38 38 35 34 32 31 33 34 31 30 28 28 28 27 25 21
42 42 38 40 42 41 41 39 42 39 38 43 44 45 45 46 43 39 42 44 44 38 18 37 40 44 41 39 38 38 39 36 35 35 35 33 30 29 29 30 29 28 28 27 27 25 24
40 41 39 40 42 41 38 41 39 38 42 44 45 46 47 46 46 42 44 43 39 25 18 33 40 39 37 37 37 38 37 37 35 35 35 29 31 31 30 29 29 30 27 26 27 24 17
41 40 40 42 41 40 39 40 39 41 42 45 47 44 46 46 40 45 45 40 23 19 31 32 35 36 36 35 35 36 36 32 33 31 31 30 29 29 30 28 30 27 25 16 16 18 11
42 40 39 41 40 41 39 39 40 42 45 47 43 45 45 45 43 42 39 33 20 28 30 37 35 34 34 34 35 35 33 31 32 29 28 27 25 29 30 29 27 27 24 15 7 12 18
42 41 40 39 41 40 40 39 42 44 48 48 43 43 44 44 42 39 35 23 24 29 37 35 33 31 31 33 35 31 31 30 31 30 26 24 25 30 30 30 28 28 26 26 23 22 19
41 39 39 39 38 39 39 41 42 47 48 47 41 39 40 43 40 37 33 29 30 34 37 33 30 32 29 31 31 30 29 30 28 30 31 28 24 29 30 30 30 27 28 23 22 9 12
41 40 39 38 37 38 40 40 42 46 48 45 39 35 38 44 44 37 30 31 34 39 38 32 30 29 30 29 30 29 28 29 29 28 30 28 26 27 30 28 27 28 27 26 24 22 16
41 40 38 39 37 37 38 39 41 45 48 43 37 29 40 45 35 35 31 33 38 37 38 37 29 30 31 30 29 28 28 28 30 30 28 28 27 25 27 29 29 29 27 26 19 17 24
41 40 39 39 38 37 37 38 40 44 47 41 36 36 42 43 31 33 35 37 39 38 37 32 29 28 31 29 26 27 28 29 30 30 28 28 26 22 24 28 30 28 28 28 27 26 22
42 39 39 39 39 37 37 38 40 42 46 40 35 27 33 39 38 35 34 34 33 36 34 32 29 30 27 27 28 29 28 29 31 31 31 29 28 22 19 23 28 26 28 28 27 25 23
42 39 40 38 39 38 37 37 38 41 44 41 38 35 37 33 33 36 36 35 34 33 35 32 28 27 28 27 28 30 30 30 32 35 33 30 27 29 29 29 29 28 28 28 27 27 25
42 40 39 39 38 38 37 37 38 40 42 40 36 36 36 35 36 36 36 34 34 34 35 32 33 32 30 30 30 29 30 29 29 32 31 32 28 30 28 28 29 28 28 29 28 28 28
40 43 38 40 38 38 38 37 36 38 39 38 38 40 39 34 34 33 31 33 34 35 35 37 35 35 35 36 37 35 32 31 31 30 31 30 29 26 23 25 27 26 28 29 29 30 30
41 42 40 39 40 39 38 38 36 36 38 39 39 39 36 31 34 32 31 35 34 35 33 37 38 36 39 40 40 36 37 36 32 32 34 33 30 29 23 26 20 27 28 30 29 31 35
40 42 42 38 40 39 39 38 37 36 36 35 42 37 35 31 35 34 35 34 35 37 37 37 41 42 42 39 34 33 32 32 34 34 34 34 32 27 24 24 25 28 33 32 32 31 34
40 41 43 38 39 40 39 38 37 36 35 34 40 41 38 33 34 37 37 35 33 33 34 38 42 42 41 38 33 27 26 29 31 34 36 34 34 31 28 24 20 25 32 37 36 29 35
39 40 42 38 37 39 38 36 38 35 36 34 34 37 38 34 36 35 36 36 37 35 33 38 38 38 40 34 32 29 28 33 29 28 31 33 33 30 29 27 26 28 30 38 28 26 34
40 40 41 40 35 35 38 36 35 37 36 34 32 36 33 34 33 35 35 37 39 39 33 36 35 38 37 33 31 31 30 32 32 31 32 30 29 29 30 27 22 31 36 32 32 35 35
40 39 40 41 39 37 39 37 36 38 34 36 32 34 37 32 30 37 36 36 36 38 40 40 36 37 37 34 33 35 32 33 32 26 32 30 29 29 30 28 29 31 33 35 35 35 35

GFSGBSN_sfc_30mbdewp_021.txt.gz
Dewpoint
46 46 44 46 44 45 48 47 46 44 44 44 44 44 45 43 45 46 46 45 41 41 42 42 44 48 54 45 44 50 55 56 56 56 52 49 46 43 39 40 39 37 38 38 38 38 38
47 46 45 44 44 47 47 45 43 42 42 42 43 44 45 45 44 44 44 44 43 42 43 43 44 48 49 39 44 50 55 57 55 53 51 48 45 44 40 38 39 37 37 36 36 36 37
45 46 44 45 44 46 46 43 43 40 41 41 42 43 43 43 43 43 43 43 43 42 43 43 44 48 48 40 46 48 56 54 55 53 51 50 49 43 42 39 39 38 35 37 37 37 37
45 46 45 45 44 45 45 43 43 40 42 39 42 42 42 43 43 43 43 43 43 43 43 44 45 49 43 46 46 42 50 53 56 54 51 52 51 45 42 41 38 37 36 34 35 36 36
46 44 45 43 43 46 44 43 41 40 40 43 42 42 43 43 43 43 44 44 44 44 44 45 45 48 40 47 45 42 48 48 50 53 52 51 48 43 41 37 34 34 31 33 33 35 34
45 45 41 44 46 45 44 43 41 43 43 43 40 40 42 42 43 44 43 44 44 44 45 44 46 43 42 40 42 44 49 49 49 50 48 47 46 40 38 36 29 30 31 32 31 30 31
42 43 41 43 45 44 44 42 41 42 44 44 40 39 40 41 42 42 43 42 36 35 39 38 42 40 40 42 42 41 43 48 49 47 43 44 41 37 36 36 32 30 31 31 31 31 29
44 42 44 40 43 43 42 43 43 43 44 39 40 40 42 43 44 44 43 38 39 40 32 37 44 43 44 43 38 41 46 45 45 40 41 39 37 40 39 37 36 35 33 32 30 29 27
42 42 40 40 42 43 43 40 39 43 39 37 42 44 43 44 44 42 39 39 44 45 35 37 41 43 41 41 38 39 42 43 40 39 38 37 36 38 39 36 34 33 32 30 28 28 26
42 43 40 43 42 42 40 40 41 38 39 42 44 44 45 46 42 42 38 43 46 42 26 32 36 42 41 39 37 40 42 40 38 36 38 36 32 39 35 33 31 28 28 28 27 25 23
42 42 40 42 40 42 41 38 40 41 44 45 46 46 45 45 43 39 39 45 44 38 9 35 37 46 41 37 38 39 41 38 36 35 35 33 31 33 34 32 30 29 28 27 26 25 24
41 41 40 40 40 43 40 40 41 44 46 48 47 45 46 44 44 42 44 43 39 23 20 33 40 39 37 37 37 39 38 36 37 36 32 30 31 31 30 30 29 29 27 26 26 23 16
42 41 41 40 40 38 39 41 44 46 46 45 44 46 46 44 40 45 44 39 22 20 31 31 35 35 35 35 37 37 35 33 34 32 31 30 29 30 30 28 29 27 24 14 10 16 9
42 41 41 39 38 39 40 42 44 46 46 44 46 46 45 44 44 43 39 32 20 28 28 38 35 35 34 34 36 37 33 31 31 30 30 27 25 28 29 29 28 27 24 12 1 8 16
42 41 40 39 38 39 40 41 43 47 48 46 42 43 41 42 41 39 35 25 25 29 33 35 33 32 33 34 35 35 35 31 31 29 26 25 25 30 30 30 28 28 25 25 21 20 17
43 41 40 40 39 38 39 40 43 45 49 47 40 38 38 43 44 38 33 29 30 34 35 32 29 32 29 32 32 32 30 31 29 31 31 27 25 29 30 30 30 27 28 22 21 7 7
43 41 40 40 39 39 39 40 42 44 48 45 39 34 38 42 44 36 29 30 36 38 37 31 31 30 30 29 30 28 29 28 29 29 30 28 26 28 29 28 27 28 26 25 23 20 13
43 41 40 40 40 39 39 39 40 43 47 42 36 28 39 45 34 34 32 33 38 37 38 36 30 31 29 30 29 27 27 28 30 30 27 29 27 26 27 29 29 29 27 25 17 17 23
42 41 41 40 39 39 39 39 39 41 46 40 34 34 40 41 31 34 35 37 38 37 37 35 28 30 32 28 26 28 28 30 31 29 27 29 25 22 24 27 29 27 28 26 25 24 21
41 43 40 41 39 39 38 38 39 40 44 39 34 29 34 37 38 35 33 34 33 36 35 30 30 31 28 27 28 28 28 31 31 30 31 29 26 22 17 21 27 26 27 27 26 24 22
41 44 40 41 40 39 38 38 38 39 42 39 36 36 37 33 34 36 35 35 34 33 35 32 29 28 28 27 29 29 30 30 33 34 33 28 25 28 28 29 28 27 27 28 26 26 24
41 43 42 40 40 39 39 38 37 38 41 38 35 35 36 35 34 35 34 34 33 34 34 31 29 31 30 29 29 29 29 29 29 32 31 31 28 29 27 28 29 27 28 29 28 28 27
41 42 44 40 40 39 39 38 37 37 38 37 37 38 38 33 33 32 31 33 34 35 35 37 35 35 34 36 36 32 31 30 30 30 30 29 28 26 23 24 26 24 27 28 28 29 28
41 41 43 41 39 41 39 38 38 37 37 39 39 39 34 30 33 32 33 35 34 35 33 37 38 36 39 40 38 36 36 32 31 32 32 31 29 28 24 24 19 24 29 29 28 28 30
40 41 42 42 39 39 40 39 38 38 37 34 41 37 36 30 33 34 35 34 35 36 36 37 41 41 42 38 34 31 31 30 33 33 33 33 31 27 23 23 24 26 33 32 31 30 33
41 40 41 43 39 38 40 36 38 36 37 33 37 39 36 33 31 36 36 36 33 32 33 38 42 42 41 37 32 28 26 28 30 33 36 34 32 31 27 23 18 24 34 37 36 28 34
41 40 40 42 39 37 36 39 36 37 38 34 33 35 34 32 34 35 34 36 37 34 32 37 38 38 38 34 30 28 28 32 29 29 31 32 33 29 28 27 26 28 29 37 28 28 33
41 41 40 41 42 41 36 39 37 36 37 34 32 35 31 29 30 34 35 34 36 38 33 35 36 37 36 31 31 30 30 33 32 31 32 30 29 29 31 27 22 33 36 32 32 35 35
41 43 39 40 41 43 38 35 35 38 37 37 31 34 36 31 26 34 33 33 36 37 37 40 35 36 36 33 32 33 32 33 32 28 33 30 30 29 30 27 29 33 34 35 35 35 34

GFSGBSN_sfc_30mbdewp_024.txt.gz
Dewpoint
46 46 46 46 45 44 47 47 46 44 40 43 41 43 44 44 44 45 45 46 46 44 43 43 43 45 49 47 42 49 51 56 52 54 53 51 47 42 39 40 39 38 38 39 39 39 38
46 46 47 47 45 44 46 47 45 43 41 42 41 42 42 43 43 43 43 44 44 43 42 43 43 46 47 41 45 46 50 56 52 54 53 49 47 44 40 39 37 38 37 37 37 36 36
46 46 47 45 44 44 47 47 44 44 41 41 44 44 43 43 43 43 44 43 43 43 43 42 43 45 45 43 47 45 54 54 55 54 50 48 46 43 41 38 40 38 36 36 36 36 35
46 46 45 43 42 45 46 46 45 44 42 43 44 43 41 43 43 44 44 44 44 44 44 42 41 45 41 47 51 48 45 55 56 54 51 50 49 44 42 40 38 37 36 33 35 37 37
46 45 44 44 44 44 44 45 44 43 42 44 44 43 41 41 43 43 44 43 43 44 44 43 42 43 39 48 45 45 46 51 53 53 52 51 49 43 40 36 34 35 32 33 33 35 35
46 44 45 43 40 43 45 44 44 43 44 45 44 41 40 40 42 43 43 44 44 44 44 44 43 42 44 41 44 44 49 52 50 50 47 46 44 40 38 34 28 30 31 32 31 30 32
46 42 44 41 43 42 44 43 40 42 43 43 40 41 43 42 43 44 44 39 34 32 38 34 38 40 41 46 44 45 49 49 49 47 38 42 40 36 36 36 32 31 31 30 31 32 30
45 42 44 42 43 43 43 43 38 40 40 39 40 42 45 44 45 45 41 37 38 38 31 32 36 42 45 45 39 42 48 45 45 41 42 41 37 39 37 35 34 32 32 31 32 29 28
42 43 42 41 42 40 44 40 42 42 44 46 46 43 44 45 46 43 39 37 44 44 33 36 42 43 42 40 39 40 47 45 41 40 40 35 38 42 37 36 35 34 34 31 30 28 26
42 44 42 41 41 40 39 42 44 45 46 47 48 48 46 45 41 42 36 44 46 42 25 30 37 42 44 39 37 41 48 43 41 36 37 36 37 40 38 37 34 32 30 29 27 26 25
42 43 42 40 39 39 42 44 44 46 46 46 45 46 47 45 42 38 40 45 43 38 -9 31 36 46 42 37 38 39 46 43 36 38 38 34 35 38 35 35 31 29 28 27 26 24 22
42 42 42 40 39 40 42 42 45 47 45 46 46 46 46 44 43 43 43 43 39 20 15 32 39 39 36 37 38 39 37 39 41 36 34 33 33 33 32 31 30 28 26 25 24 23 16
43 41 42 41 39 40 40 42 44 46 45 45 45 45 44 44 40 44 42 36 21 19 31 31 34 35 35 35 37 37 35 34 35 31 30 31 29 30 30 29 28 27 25 20 10 13 11
42 43 42 41 40 40 40 42 44 45 48 46 42 43 43 43 44 43 39 27 21 27 29 37 35 34 33 34 37 37 33 32 31 32 29 27 26 29 30 29 28 26 23 16 2 5 14
42 42 42 41 41 40 40 41 43 45 47 49 44 40 40 41 42 40 34 24 25 29 32 35 32 31 33 35 35 36 33 31 30 29 26 25 26 30 30 30 28 27 24 24 20 19 16
43 43 42 40 41 40 40 40 42 44 47 47 39 37 37 41 44 39 33 30 31 34 34 32 29 31 29 32 32 34 32 32 30 30 30 26 25 30 30 30 29 27 27 21 20 8 4
42 43 42 41 41 40 40 40 41 43 45 45 37 33 37 42 42 37 30 33 36 38 37 30 31 30 31 30 30 29 30 28 30 30 30 27 26 28 29 28 27 27 26 24 21 19 10
42 44 42 42 41 40 40 40 40 42 46 40 35 29 38 44 35 35 33 35 38 37 38 34 31 30 30 30 28 27 28 27 30 30 28 29 27 26 27 29 30 28 26 24 15 16 21
42 43 42 42 41 40 40 39 39 40 44 40 33 32 37 40 32 33 34 36 37 36 36 34 28 30 30 28 26 27 28 30 31 28 27 29 24 22 24 27 29 27 28 25 23 22 20
42 42 43 41 41 40 40 39 39 39 43 39 34 29 35 37 38 35 33 34 33 36 34 30 30 30 28 27 29 27 28 31 31 29 31 29 25 21 16 20 27 26 27 26 25 23 21
42 41 44 42 41 40 40 39 39 39 42 39 36 34 37 32 33 35 35 35 33 32 35 32 29 28 28 27 29 28 30 31 32 33 32 28 25 27 27 28 28 27 27 27 25 25 21
42 42 42 44 40 41 40 39 38 38 41 38 34 35 35 34 34 33 33 33 34 34 35 30 29 33 29 28 28 28 29 29 29 32 30 31 27 29 25 27 28 28 28 28 27 27 26
41 41 42 44 40 41 41 39 38 37 39 36 36 38 37 32 32 31 31 33 33 34 35 37 35 34 33 35 36 32 31 31 30 30 30 29 27 24 22 24 25 23 26 27 28 29 28
41 41 41 43 41 39 41 39 38 38 37 39 39 39 34 29 32 32 33 34 34 35 33 37 38 35 39 39 37 35 32 31 31 32 31 29 28 28 23 23 16 22 28 29 28 28 29
42 42 41 41 42 40 39 39 38 37 39 34 38 36 35 30 31 32 35 35 35 35 36 37 40 41 42 37 32 30 30 29 32 33 33 31 30 26 23 22 23 26 32 29 29 29 31
42 42 42 40 43 39 38 38 37 37 39 33 34 36 34 30 29 34 33 35 33 32 33 38 42 42 40 35 31 27 21 26 27 33 35 33 32 30 25 20 18 22 34 37 34 28 33
42 42 42 42 41 43 41 38 40 37 38 33 32 35 32 29 31 35 33 34 38 34 31 37 38 38 37 33 30 27 27 31 28 29 30 32 32 28 27 25 26 27 29 37 28 27 32
43 42 42 40 40 41 43 40 36 37 38 34 32 35 30 26 27 29 35 34 34 38 33 35 36 36 35 31 30 30 29 32 31 31 32 29 28 28 28 26 20 32 35 31 32 34 35
42 42 42 41 40 41 41 42 42 36 36 38 33 34 36 31 26 30 29 29 30 30 33 37 35 34 35 32 32 31 30 33 32 28 33 29 29 29 29 27 28 32 34 35 35 33 34

GFSGBSN_sfc_30mbdewp_027.txt.gz
Dewpoint
46 46 46 47 45 45 45 48 48 47 45 44 42 43 43 43 43 43 44 44 44 45 46 45 43 41 47 45 45 48 49 51 52 53 53 49 46 44 41 41 40 38 38 39 39 39 38
46 47 46 45 45 46 44 47 47 46 45 44 41 44 45 44 43 44 43 44 44 44 44 43 41 43 44 38 47 49 46 54 50 53 52 50 46 43 41 40 38 39 38 38 38 37 37
45 46 46 46 45 42 44 46 45 45 45 44 44 45 44 42 43 43 44 44 43 44 44 44 45 42 42 41 47 51 47 52 51 53 51 50 47 42 40 38 40 38 36 36 36 36 35
45 46 45 45 42 44 45 44 45 45 44 44 45 46 46 44 42 43 43 44 44 43 45 44 43 41 36 47 50 50 47 52 53 55 52 50 47 44 41 39 38 37 35 33 35 36 35
45 45 43 44 42 45 45 44 45 40 41 44 44 45 42 42 41 42 43 44 43 44 44 43 41 40 37 49 45 48 48 48 54 53 52 50 46 44 40 37 35 35 30 31 32 37 35
47 45 43 42 42 43 41 45 43 41 41 43 43 43 41 44 42 43 44 44 45 45 44 43 42 39 40 41 46 47 47 52 50 51 47 46 43 40 37 35 27 31 31 33 29 31 34
45 43 44 45 41 42 43 40 43 45 46 46 46 45 43 44 44 45 43 37 33 32 39 31 33 38 42 46 46 46 50 51 50 47 41 43 38 33 34 33 32 32 31 31 32 32 30
45 43 45 42 41 41 42 44 45 46 46 45 45 47 46 44 44 44 40 35 35 36 28 33 34 38 41 47 41 45 50 47 40 39 41 40 36 37 36 35 32 31 30 30 32 29 28
43 43 43 42 41 41 43 44 46 46 45 46 46 47 43 45 44 42 38 37 44 43 33 36 42 35 43 46 40 41 48 46 38 36 36 35 39 38 36 36 34 33 30 31 30 28 26
43 43 43 41 41 40 42 44 46 46 45 46 46 46 47 44 41 41 36 44 45 41 22 32 37 42 45 42 39 45 50 45 41 36 39 38 40 38 37 35 35 32 33 31 27 27 25
43 43 43 41 41 40 42 44 46 46 46 45 45 46 47 44 40 37 40 45 42 35 12 31 36 44 43 37 39 42 47 43 37 36 38 34 37 39 36 37 34 31 29 27 26 24 22
44 44 42 41 41 41 41 44 45 46 47 45 44 45 45 43 42 43 43 41 36 19 17 31 37 38 36 37 39 43 42 46 42 38 37 34 41 37 37 38 35 28 26 25 24 23 18
43 43 42 41 42 40 41 42 44 47 48 49 43 44 43 44 40 43 42 34 21 19 30 31 34 35 35 36 36 37 37 35 35 31 30 31 30 34 34 30 29 27 26 21 12 16 15
43 44 42 42 42 41 41 41 43 45 47 48 47 42 43 43 43 40 37 28 20 27 29 37 35 34 34 34 35 35 33 31 30 31 31 28 27 31 30 29 28 26 26 20 8 4 11
43 44 43 42 41 41 41 41 42 44 46 48 44 38 38 40 42 40 33 25 25 29 33 34 31 30 33 35 35 36 32 30 30 29 27 25 27 30 30 30 28 26 25 22 19 18 15
43 45 42 42 42 42 41 41 41 43 46 47 38 36 36 40 44 40 33 31 33 35 34 31 28 30 29 32 32 32 31 31 29 30 29 27 26 30 30 30 29 27 26 21 19 5 2
43 43 43 42 42 41 41 41 41 42 45 44 36 31 37 44 42 37 30 33 36 38 36 30 30 30 31 31 31 30 30 30 30 30 28 27 27 28 29 27 26 26 25 23 21 18 8
43 43 44 42 42 41 41 40 41 40 44 40 34 31 37 42 33 37 34 35 38 37 38 31 31 30 30 29 28 28 27 27 30 30 27 28 27 26 27 29 30 28 26 22 16 16 20
42 42 44 43 42 41 41 40 40 40 44 40 33 32 36 40 30 33 33 34 37 35 34 32 29 31 30 28 26 27 28 30 30 28 28 28 24 23 25 27 29 27 27 24 21 22 20
42 42 43 45 42 42 41 40 40 39 43 38 34 28 34 37 38 34 33 34 33 36 33 30 30 29 27 27 29 27 27 32 31 29 32 29 25 20 13 19 27 26 27 25 24 21 20
43 42 42 44 42 42 41 40 39 38 42 38 35 34 36 31 33 34 35 34 32 32 35 32 29 28 27 26 28 28 30 31 31 34 31 28 24 26 26 26 28 27 27 27 25 24 20
43 42 42 42 43 41 41 40 39 38 40 37 34 34 36 34 33 33 32 33 33 34 35 30 29 32 29 27 26 27 29 29 29 32 30 30 28 28 24 27 28 27 28 27 27 26 25
42 42 41 42 43 41 40 39 39 38 38 36 36 38 37 32 31 31 31 33 33 34 36 37 35 33 33 34 37 34 31 30 31 30 30 28 27 24 21 24 25 22 26 28 28 28 27
42 43 42 42 43 41 39 39 38 39 36 38 38 38 34 28 31 32 32 34 35 36 33 37 38 34 37 38 36 33 32 32 31 31 31 28 27 27 23 22 17 20 28 28 28 28 29
42 42 42 42 41 42 40 39 39 37 37 35 34 35 33 28 30 31 33 34 35 34 36 36 40 40 41 36 31 29 28 29 32 33 32 31 29 26 23 21 21 26 30 28 28 29 29
43 42 43 42 42 42 44 41 40 38 38 34 33 35 32 28 25 32 31 33 33 32 32 37 42 42 39 34 30 26 22 25 28 32 34 32 30 26 24 20 16 22 34 35 34 30 33
44 44 43 42 41 40 41 43 41 37 39 33 32 34 30 27 29 31 30 31 36 35 32 33 38 38 37 33 29 27 25 29 26 27 29 31 32 28 26 23 24 26 31 36 28 28 32
44 44 42 42 42 40 40 40 43 41 37 36 34 34 30 25 25 25 33 33 31 35 34 34 36 36 34 32 29 29 28 31 29 29 28 28 28 26 25 23 20 31 33 29 32 33 34
44 43 42 42 43 42 40 40 43 40 37 38 35 35 35 29 27 28 27 27 27 28 28 33 36 35 35 32 31 30 29 32 31 26 33 29 28 28 27 25 27 33 34 35 35 33 34

GFSGBSN_sfc_30mbdewp_030.txt.gz
Dewpoint
46 46 47 48 47 46 42 43 46 47 46 46 46 45 45 45 43 44 44 44 45 44 45 46 46 42 41 39 38 49 52 50 53 49 49 48 46 45 41 40 39 36 38 37 37 40 39
45 47 47 44 46 44 44 47 47 46 45 45 45 45 45 47 45 44 44 44 44 44 44 44 43 44 39 33 36 50 52 50 51 47 48 48 43 44 40 41 38 37 37 36 37 37 38
45 48 46 46 44 44 45 43 46 46 44 41 43 44 46 47 48 45 43 43 44 44 44 45 45 41 37 34 45 52 52 49 50 47 48 48 44 43 41 39 40 38 35 36 37 36 35
46 45 45 45 45 43 45 44 42 43 43 45 44 45 46 44 44 42 43 43 44 44 44 45 44 40 33 36 40 49 51 47 50 49 49 51 45 41 39 39 38 34 33 31 30 34 35
46 44 44 44 42 43 43 42 45 46 47 47 46 47 46 45 43 42 43 45 44 44 44 44 40 37 31 43 44 47 49 46 50 50 51 50 46 41 39 34 32 31 21 24 29 36 30
46 44 43 45 42 42 44 45 45 47 46 46 45 46 46 43 44 44 45 44 45 45 44 42 40 36 35 37 44 47 48 49 49 50 48 46 43 38 34 31 21 26 22 26 23 30 34
46 43 44 43 42 42 44 45 46 47 45 46 46 46 46 44 44 43 42 39 34 34 37 27 27 34 38 42 46 44 49 48 48 46 40 42 38 34 31 31 29 28 26 24 28 32 31
44 44 43 42 42 42 43 45 46 46 44 45 46 47 46 45 44 44 40 34 37 37 28 32 34 35 38 41 41 43 49 45 45 39 42 40 35 34 32 33 31 30 27 27 31 30 29
44 45 43 42 42 41 43 45 46 46 45 45 45 46 43 45 44 42 38 38 44 42 33 37 37 37 37 44 40 42 45 44 41 39 39 37 36 33 34 31 31 31 28 30 27 29 28
44 45 43 42 42 41 42 44 46 47 47 45 46 47 46 44 39 41 37 44 45 41 30 32 37 41 45 45 41 48 47 45 39 36 39 38 40 33 30 32 30 28 33 32 29 29 22
44 45 43 43 42 41 42 43 45 46 48 46 45 45 44 42 39 37 41 44 43 37 19 32 36 44 44 39 41 43 49 44 37 35 38 34 39 35 33 32 33 29 32 29 28 27 25
44 45 43 43 42 42 41 42 43 45 46 48 44 45 45 43 42 43 43 41 37 28 20 31 37 38 38 38 39 42 43 44 41 37 37 37 40 38 37 36 34 28 27 26 26 25 23
44 44 43 43 43 42 42 42 42 43 45 47 48 44 43 44 37 43 42 38 28 22 31 32 34 36 34 36 37 37 37 37 35 31 30 33 34 37 38 35 32 29 28 26 23 24 20
44 44 43 43 43 42 42 41 42 42 44 46 48 43 42 42 44 42 39 32 24 29 31 37 34 34 33 34 37 37 35 33 31 33 32 30 27 34 36 34 33 28 29 24 15 12 13
44 44 43 43 43 42 42 41 41 41 45 46 45 40 41 41 43 42 36 28 28 30 35 32 30 29 31 33 33 33 32 30 30 31 29 28 28 32 31 30 31 28 29 23 21 19 17
43 43 45 43 44 43 42 42 41 41 44 46 41 39 38 42 44 41 36 31 33 35 35 31 27 29 27 31 29 30 31 31 29 30 30 28 28 30 29 30 29 29 27 24 25 15 11
43 43 45 44 43 43 43 42 41 41 44 44 39 36 40 44 44 40 32 34 36 38 36 30 30 29 30 30 30 30 28 31 30 29 28 28 28 29 30 28 26 26 26 24 23 20 13
43 43 43 45 44 43 42 41 41 40 44 43 37 36 41 44 37 38 35 36 37 37 37 31 31 31 29 30 29 29 25 29 30 29 27 28 29 26 27 29 29 28 26 22 18 20 21
43 43 43 44 44 42 42 41 41 39 43 43 36 36 41 43 32 33 34 35 36 34 34 31 30 31 30 29 27 28 29 30 31 29 28 28 27 24 26 28 29 28 27 25 23 24 22
43 42 42 42 45 43 42 41 40 39 41 41 37 31 38 40 38 35 34 33 33 36 33 31 31 29 28 27 28 27 28 32 31 29 32 28 26 23 17 23 28 27 27 25 25 22 20
44 43 41 41 43 42 41 41 39 39 40 40 38 34 35 34 34 35 35 34 32 32 35 32 29 28 26 26 27 27 30 30 31 34 31 29 26 27 25 26 29 28 27 27 25 24 21
43 43 42 41 42 43 40 40 39 39 40 38 34 34 35 34 33 33 32 33 33 34 35 30 29 30 29 26 25 26 29 29 28 33 29 30 29 29 25 27 28 28 28 27 27 26 25
42 43 42 42 42 43 41 40 39 39 38 36 37 38 37 32 32 31 32 33 34 35 36 37 34 33 32 33 35 34 31 30 30 29 29 29 29 26 23 25 25 23 25 27 28 28 26
42 42 43 42 43 42 43 42 41 39 37 37 36 38 32 29 31 32 32 34 34 35 35 37 38 34 35 35 33 32 32 32 31 31 30 29 29 28 25 24 19 23 28 28 27 27 28
43 42 43 42 43 42 43 42 41 40 37 34 35 35 33 25 29 29 32 33 34 34 35 37 39 41 40 36 31 28 28 29 32 33 31 30 29 27 24 22 22 23 29 28 28 29 28
43 44 44 42 43 41 40 42 43 40 38 34 35 36 32 27 22 29 29 31 32 33 33 37 41 42 39 35 31 26 22 24 27 31 34 32 30 25 24 21 16 23 34 35 32 29 32
43 44 44 43 42 42 40 42 43 44 40 35 34 35 31 24 23 30 27 28 34 36 33 33 38 39 38 34 29 27 25 26 26 26 29 30 30 26 25 22 21 24 33 36 27 29 33
43 44 43 43 43 43 43 42 42 44 39 38 37 36 31 28 25 24 30 27 24 29 33 35 36 37 36 33 31 28 27 29 28 27 27 26 26 27 27 24 20 29 32 27 31 33 33
45 44 43 43 43 44 43 41 40 43 43 40 36 35 36 31 28 28 26 25 25 27 29 30 35 36 36 35 33 32 30 31 30 26 31 27 28 25 25 24 27 32 33 36 36 35 35

GFSGBSN_sfc_30mbdewp_033.txt.gz
Dewpoint
46 47 48 47 46 45 45 46 46 47 47 46 45 44 45 46 45 45 46 45 45 45 44 45 47 45 41 35 32 51 53 56 55 51 48 44 40 44 40 37 35 35 30 31 33 37 35
46 47 45 46 45 44 45 44 44 44 45 45 46 46 46 46 45 47 47 45 45 44 44 45 45 43 37 33 30 43 50 49 53 53 44 42 38 44 40 36 35 36 35 33 33 37 37
47 46 45 45 47 43 44 44 46 46 48 47 46 46 47 45 43 44 46 45 45 44 44 44 45 42 36 33 36 49 51 46 49 53 40 42 39 42 39 37 38 36 33 35 33 35 34
47 46 45 45 42 43 45 45 46 47 47 45 46 46 46 46 45 44 43 44 44 45 45 45 45 38 32 33 34 37 51 49 49 52 40 44 41 39 38 37 37 34 34 30 31 35 34
47 45 45 45 43 43 44 45 46 47 44 44 46 46 46 46 43 43 44 44 45 45 44 43 40 36 29 37 34 34 49 46 45 51 44 47 43 40 37 34 32 31 25 26 26 31 32
45 45 44 44 43 43 45 47 46 47 44 45 46 47 47 44 44 44 44 44 45 45 43 40 38 34 32 32 39 47 50 50 50 45 47 47 43 34 33 29 22 23 22 20 20 32 31
45 45 45 43 44 42 45 46 46 47 45 45 47 47 45 44 44 43 42 40 36 34 35 28 26 30 36 40 44 46 49 50 46 44 40 44 38 33 29 25 22 19 22 17 19 30 30
45 45 45 43 43 43 44 45 46 47 47 46 47 45 45 44 44 42 39 33 37 38 27 29 30 32 36 38 41 43 49 43 41 38 35 39 36 32 29 26 27 26 23 22 25 29 29
45 45 44 44 43 43 42 44 45 47 47 46 47 43 45 45 43 39 37 39 43 41 34 36 37 35 39 43 38 42 45 42 39 34 36 35 34 33 31 28 28 25 23 22 25 29 28
45 45 44 44 44 43 42 42 44 45 46 48 46 45 44 44 41 39 37 43 43 42 31 32 36 39 42 44 41 47 46 41 37 33 38 36 38 34 32 30 26 24 26 29 29 27 16
45 44 44 44 44 43 43 42 42 43 45 47 47 45 44 44 38 37 40 42 42 40 21 35 36 44 45 42 40 41 47 45 35 36 38 34 37 33 30 28 27 28 32 30 30 28 26
45 45 44 44 44 43 43 42 43 43 43 46 47 47 45 43 40 40 42 41 39 29 22 32 38 38 39 40 39 42 42 44 41 37 37 37 40 37 36 32 29 31 30 29 29 27 25
44 45 45 44 44 44 44 43 42 42 43 45 46 48 43 42 37 41 41 39 30 24 33 32 34 38 36 36 37 38 36 35 33 30 30 32 33 38 38 32 31 30 28 26 25 26 22
44 44 45 44 44 43 45 44 42 42 43 45 46 48 42 40 42 43 41 36 25 30 32 36 35 33 35 37 36 36 37 34 35 35 32 30 27 34 36 35 31 30 28 26 18 19 19
43 43 45 45 45 44 43 44 43 42 44 45 46 41 40 42 42 43 38 30 29 32 35 30 28 29 33 31 35 35 31 30 35 32 31 31 29 36 36 35 34 32 28 24 22 16 16
44 43 44 46 45 44 43 42 43 42 43 46 41 39 39 42 43 42 36 31 33 36 35 30 26 27 26 28 28 28 28 30 30 29 29 29 28 35 35 36 34 33 30 27 27 20 10
43 43 44 44 45 43 43 43 42 41 42 46 40 36 42 43 45 40 32 34 33 36 35 30 28 27 28 28 27 25 27 30 30 28 29 29 28 29 33 31 29 27 28 25 25 21 17
43 43 43 43 45 44 43 42 41 41 41 44 40 39 43 44 38 36 33 36 37 35 35 31 30 29 27 28 27 27 25 29 30 28 26 29 29 27 28 29 29 28 25 24 20 22 19
43 43 43 42 44 43 43 42 41 40 40 42 37 36 43 44 33 30 33 33 35 32 32 29 28 30 30 27 26 28 28 30 31 29 27 28 28 25 26 28 29 28 27 25 23 24 24
43 43 43 41 42 43 42 41 40 40 40 42 38 37 38 38 38 31 30 30 31 36 31 30 29 29 28 26 26 27 28 31 31 30 30 28 26 26 21 26 27 27 27 27 25 23 19
44 40 42 42 42 43 42 41 40 39 39 41 37 35 36 35 34 35 35 34 31 31 34 31 29 28 25 24 24 25 28 29 30 33 30 29 28 27 24 27 29 28 26 26 26 25 19
41 42 43 42 42 42 43 42 41 39 38 37 34 35 35 34 34 33 33 33 32 32 33 28 28 28 26 24 23 24 27 27 26 31 28 30 28 30 25 27 27 27 27 26 26 25 23
40 43 43 42 43 43 43 42 41 40 34 30 34 37 35 33 33 31 32 33 34 35 35 35 33 29 28 29 32 31 29 28 29 29 28 28 31 27 24 25 25 23 25 26 26 27 25
42 42 43 43 43 42 42 42 42 41 36 30 32 36 32 29 29 31 32 34 34 35 35 35 36 33 34 34 32 31 30 30 30 29 29 28 30 29 26 25 20 25 27 26 26 26 27
43 44 44 43 43 42 41 41 42 42 39 34 34 31 28 22 21 26 31 32 33 34 34 36 38 40 37 36 30 28 28 28 29 30 29 28 27 27 25 22 21 19 24 26 26 27 27
43 44 44 43 43 42 41 42 43 43 42 36 36 36 29 23 23 27 25 28 32 32 32 36 41 42 40 35 30 24 22 22 25 29 32 29 27 26 23 21 17 24 30 30 30 29 30
43 44 44 43 43 43 43 42 43 42 40 38 36 36 31 24 18 26 23 28 31 34 32 33 37 39 40 33 28 25 23 24 22 24 27 28 27 25 23 21 21 23 35 34 29 30 33
44 45 44 43 43 43 43 41 41 41 42 40 37 37 31 28 27 26 24 22 19 23 28 35 35 37 37 33 29 28 24 25 23 25 26 25 24 24 23 22 20 27 34 30 32 33 34
44 45 44 43 43 43 43 43 42 42 42 42 36 36 36 33 29 30 29 27 25 24 26 30 34 35 37 34 31 29 25 27 26 23 27 24 25 23 24 24 26 29 29 34 35 35 35

GFSGBSN_sfc_30mbdewp_036.txt.gz
Dewpoint
48 48 46 46 46 44 45 45 46 47 48 47 46 47 46 48 46 46 46 47 46 45 46 46 46 47 42 36 34 44 46 50 53 53 47 48 39 44 42 41 37 37 34 33 33 36 35
47 48 46 46 45 45 46 45 46 48 48 44 45 46 46 47 46 44 45 46 46 44 44 44 45 45 39 33 34 44 50 52 53 52 45 46 38 42 42 39 37 36 36 34 32 36 36
47 47 46 46 44 45 46 46 47 48 46 46 46 45 46 47 44 44 44 44 46 46 45 44 45 42 37 33 39 48 48 46 50 51 45 43 40 39 42 40 38 36 34 35 33 36 35
47 46 46 45 44 44 45 46 47 48 47 46 46 47 47 48 45 44 44 43 44 45 45 45 45 40 32 34 34 33 47 49 47 51 51 46 43 38 41 39 37 35 34 32 33 34 34
47 46 47 45 44 43 45 46 47 48 47 47 46 47 45 44 44 43 44 44 44 45 44 44 41 38 30 35 32 32 35 44 45 50 50 51 45 38 41 37 36 34 29 32 30 34 34
47 46 45 45 44 44 44 45 47 48 47 47 46 46 45 44 43 43 43 44 44 45 43 40 36 33 32 28 33 32 38 49 46 48 45 48 43 36 37 36 30 31 28 28 28 32 33
47 46 45 45 44 44 43 45 45 47 47 46 44 45 46 44 44 42 43 42 38 36 36 31 30 29 30 37 39 39 47 48 45 46 41 44 36 33 34 33 32 27 27 24 24 32 31
46 46 46 45 44 44 43 43 44 46 47 48 46 45 45 45 43 43 42 33 36 38 31 30 28 29 33 38 38 42 46 41 42 40 39 40 35 34 34 30 28 24 24 23 23 30 29
46 46 45 46 46 44 44 43 43 44 45 46 48 46 45 44 44 42 39 39 41 41 36 36 37 36 39 43 40 41 43 40 40 39 37 34 34 34 29 27 25 25 24 21 25 30 29
46 46 45 45 45 45 44 44 43 43 43 45 46 47 46 45 43 39 38 42 43 42 30 33 37 40 42 44 40 47 46 42 39 35 35 37 36 34 31 28 25 24 25 24 28 28 21
46 46 45 45 45 45 46 46 44 43 43 43 45 47 48 45 43 37 40 41 40 40 20 35 37 42 44 41 40 42 48 39 36 37 38 35 37 36 32 30 28 25 29 29 29 28 27
45 45 46 45 44 43 44 45 45 44 43 43 44 47 48 44 44 40 42 41 41 30 22 32 38 37 39 38 39 40 41 41 41 37 37 37 40 39 38 34 30 32 30 30 30 28 24
45 45 46 45 45 45 43 43 44 44 43 43 44 46 47 41 40 41 42 40 30 24 34 32 36 39 35 35 37 37 36 35 33 31 31 34 33 38 38 34 33 31 29 25 25 24 23
44 45 45 45 46 44 44 44 43 44 43 44 46 47 47 41 42 43 41 36 24 29 33 36 37 35 33 35 36 37 35 33 38 36 32 30 26 34 37 36 32 30 28 25 17 21 21
44 44 45 45 45 45 44 43 43 43 44 43 47 45 42 43 43 42 40 28 28 31 34 30 30 33 34 34 34 37 36 36 37 37 32 30 28 36 37 37 34 32 29 25 23 16 17
44 44 44 44 44 44 43 43 43 43 43 43 43 40 40 43 44 42 37 30 33 36 35 31 27 27 27 28 29 31 32 35 33 34 32 30 28 35 36 38 35 32 30 27 27 16 11
43 44 44 44 43 43 43 43 42 42 42 44 44 37 43 45 45 41 32 32 32 35 34 30 27 25 26 27 27 25 28 29 29 28 29 30 29 32 35 33 32 31 30 29 26 23 21
44 43 43 42 43 44 43 42 42 41 41 43 43 38 43 46 40 36 33 34 36 33 34 30 30 29 27 27 25 25 27 29 30 28 27 29 29 28 32 32 31 34 31 30 27 23 20
43 42 42 42 43 43 43 43 42 41 39 41 38 37 44 44 34 31 33 33 34 32 31 29 28 30 29 26 25 27 28 31 31 30 28 29 29 25 26 29 29 28 28 29 25 25 23
44 41 42 42 43 43 43 43 42 40 40 42 38 36 40 42 37 35 31 30 32 36 32 30 29 29 28 26 26 27 28 31 31 30 29 28 27 27 22 25 29 27 27 27 25 22 21
43 41 43 43 42 43 43 43 42 40 40 42 36 34 35 35 35 35 34 33 30 32 34 31 29 28 26 24 24 26 29 30 31 31 30 30 26 25 24 27 29 29 27 27 26 26 21
41 43 43 43 42 43 42 43 42 41 39 35 34 34 35 34 34 33 33 32 32 32 33 28 29 28 26 25 24 25 28 27 26 30 29 31 28 29 23 27 27 27 28 26 27 27 26
41 43 43 43 43 42 42 42 43 41 37 28 30 35 36 33 32 31 33 33 33 35 35 35 35 33 28 34 34 32 29 28 28 29 28 29 30 26 24 25 25 21 25 27 26 27 26
43 44 44 43 43 42 42 42 43 42 39 33 33 35 30 29 27 31 32 33 33 34 34 36 37 35 33 34 32 31 30 29 29 29 29 29 30 29 26 25 17 23 27 27 26 27 27
42 44 44 43 43 43 43 42 43 43 41 36 34 32 28 22 17 23 25 28 32 34 34 36 40 40 36 36 31 28 28 28 28 29 29 28 29 28 25 23 23 23 27 26 26 26 27
43 44 44 43 43 43 43 42 43 42 40 38 36 37 30 24 18 21 20 20 30 32 32 36 40 42 40 37 31 26 26 24 26 29 31 29 28 25 25 21 19 28 28 30 29 29 30
43 43 44 43 43 43 43 42 42 42 42 41 38 37 33 26 22 24 24 29 29 31 32 33 36 38 40 34 28 27 24 24 23 22 27 29 28 26 24 21 22 33 33 33 30 30 29
44 44 45 44 43 43 43 43 43 42 42 42 38 37 33 29 28 28 25 22 21 19 22 28 33 36 35 32 30 29 26 26 23 24 26 26 26 25 25 23 20 35 34 32 33 34 35
45 45 46 45 44 43 43 43 42 42 42 43 38 38 36 34 29 32 32 31 29 26 24 24 29 32 37 36 33 31 27 24 25 23 26 25 26 24 24 24 28 30 32 35 36 35 36

GFSGBSN_sfc_30mbdewp_039.txt.gz
Dewpoint
48 47 47 47 44 46 46 47 46 47 48 45 47 46 45 47 47 46 45 45 46 46 46 45 46 48 44 38 36 39 42 46 54 53 48 47 43 46 43 43 40 39 37 39 41 43 42
47 47 47 46 45 45 46 47 48 48 46 46 46 46 46 47 45 44 45 45 45 44 44 44 46 48 42 36 39 47 49 47 52 51 48 48 39 46 43 41 39 38 38 37 35 39 40
48 47 47 46 45 44 46 47 48 48 46 46 46 47 47 46 45 44 44 44 45 45 45 44 45 43 40 36 37 44 48 49 50 51 47 47 44 42 42 40 41 37 35 36 36 37 36
48 47 45 46 45 44 44 46 47 47 46 45 45 45 45 45 44 44 44 44 44 45 45 45 44 41 35 35 36 34 44 47 48 51 51 48 47 41 42 41 39 36 35 33 34 36 36
47 47 46 46 45 45 44 46 46 47 47 45 45 46 45 44 44 44 44 44 44 45 45 44 41 39 32 36 34 34 36 42 44 49 51 50 47 42 38 37 36 36 31 33 32 35 34
47 47 47 46 46 45 44 43 45 46 47 48 46 45 46 45 44 43 44 44 44 44 44 42 37 33 34 30 37 32 39 46 46 47 46 44 43 38 37 37 30 32 31 31 31 33 33
47 47 46 46 46 45 44 44 43 44 45 47 48 46 45 45 45 44 45 43 37 36 37 32 32 31 29 36 40 34 47 44 45 42 37 42 40 34 34 37 34 33 31 28 31 32 33
47 47 46 45 45 47 46 46 44 44 43 44 46 47 47 45 46 46 42 35 36 38 32 35 33 30 31 38 38 42 46 39 42 37 39 39 35 36 36 36 34 31 29 28 27 31 32
47 46 46 46 46 44 44 46 47 44 44 44 43 46 47 47 46 44 40 40 43 42 35 36 37 37 39 41 36 41 42 40 38 37 39 34 35 36 34 33 31 29 25 26 26 29 29
46 46 46 46 45 45 45 44 44 46 44 44 43 45 46 48 44 39 39 43 43 42 30 33 37 40 40 40 38 45 45 42 40 36 37 35 37 34 33 31 29 26 26 26 29 27 23
46 46 46 45 46 45 45 45 45 43 45 44 44 44 46 48 41 40 40 42 42 40 19 34 37 45 43 40 39 39 46 42 37 38 38 36 37 35 31 30 28 26 29 29 29 27 27
46 46 46 45 47 45 45 45 44 44 44 44 43 45 46 45 45 42 42 42 41 28 21 33 38 37 39 38 39 40 42 42 40 38 38 37 39 39 37 36 32 32 30 30 29 28 22
45 46 46 45 44 46 45 44 44 44 44 43 43 46 45 44 41 42 43 41 29 23 34 33 35 36 35 36 37 36 36 36 35 30 32 35 34 37 38 34 34 31 26 25 23 24 20
45 45 45 45 44 45 45 44 43 44 43 44 45 48 47 46 42 43 42 35 24 30 33 37 36 35 33 36 36 36 35 34 37 34 31 29 28 36 37 34 32 31 26 22 15 19 21
45 45 44 44 44 42 43 43 43 44 44 43 46 46 43 44 43 43 38 25 25 29 34 32 33 32 31 35 36 37 35 35 37 37 30 29 28 36 37 38 36 32 29 26 23 19 19
44 44 44 43 43 43 43 43 43 43 43 43 43 42 41 45 43 42 34 29 32 35 35 33 27 27 27 29 32 35 35 37 36 36 36 33 28 34 37 38 37 33 31 28 26 19 12
44 43 42 42 43 44 44 43 42 42 42 43 43 38 42 45 44 40 30 31 33 35 34 31 29 27 27 27 27 28 29 35 37 36 33 31 31 31 35 34 33 33 30 29 27 25 19
43 42 41 43 43 44 43 43 43 42 42 41 40 37 43 46 39 37 32 34 36 34 34 32 30 29 28 27 26 28 29 29 31 32 33 31 32 29 32 37 37 34 31 28 25 23 20
43 42 43 43 43 44 43 43 43 42 41 40 38 37 44 44 34 31 33 34 35 33 32 30 29 29 29 27 26 28 29 31 31 30 28 30 29 26 28 32 34 33 33 33 29 26 22
43 42 43 43 43 43 43 43 43 41 41 41 39 34 38 43 39 35 32 30 33 35 33 31 29 29 28 25 25 28 29 31 31 30 30 29 28 25 21 23 29 28 30 32 33 28 24
42 43 43 43 43 43 42 43 43 42 42 41 36 34 35 33 34 34 34 33 31 31 35 31 30 28 28 24 25 27 30 31 31 30 30 30 25 24 26 28 29 28 27 28 28 25 22
41 43 44 43 43 42 42 43 44 43 38 31 32 33 35 34 34 33 33 33 34 34 33 30 30 28 26 30 29 26 28 28 27 30 29 31 28 27 21 26 27 25 28 28 28 26 26
42 44 44 43 43 43 43 43 43 43 37 29 32 34 36 32 31 32 33 33 34 35 34 35 36 34 32 33 34 32 29 28 28 29 28 30 28 24 23 26 25 20 24 25 27 28 27
44 44 44 43 43 43 43 43 43 41 41 33 33 33 30 25 20 25 26 30 32 33 34 35 38 34 33 36 34 31 30 29 29 29 29 30 28 27 25 25 15 15 27 26 25 27 28
43 44 44 43 43 44 43 43 43 42 42 35 35 33 29 22 20 18 20 21 28 33 34 37 40 41 41 38 31 28 28 27 28 29 29 31 29 26 23 23 21 24 27 25 26 25 28
43 44 44 43 44 43 43 42 43 42 43 38 37 36 32 24 20 21 19 26 29 30 33 38 40 41 40 37 33 26 24 25 26 27 31 30 29 26 26 21 18 27 28 29 29 24 30
43 43 45 44 44 43 43 44 43 42 42 42 38 37 33 28 27 27 23 25 24 23 28 33 30 35 39 34 30 26 24 24 24 24 24 27 28 26 25 23 22 25 29 32 26 28 30
44 44 45 45 44 43 43 43 42 42 43 41 39 37 32 29 29 28 26 23 22 23 21 25 32 36 35 32 29 28 26 25 24 24 26 25 24 25 26 23 19 34 33 31 33 35 33
45 45 46 46 44 43 43 43 42 42 42 42 38 40 37 33 28 32 32 32 31 29 25 24 24 31 34 34 34 34 28 25 25 23 27 24 26 24 25 24 26 35 32 35 35 34 36

GFSGBSN_sfc_30mbdewp_042.txt.gz
Dewpoint
48 48 47 47 46 45 47 48 48 49 45 46 46 47 47 46 45 45 45 45 45 45 45 45 46 48 46 37 36 41 48 45 47 53 52 44 46 47 43 43 44 41 41 43 46 48 48
49 48 47 46 46 45 46 47 48 48 45 45 44 44 45 45 45 44 45 44 44 45 44 45 47 46 41 35 39 39 47 45 49 51 51 46 45 47 43 42 42 41 39 42 46 46 47
48 48 47 47 46 45 44 46 48 47 47 45 45 45 45 44 44 44 45 44 44 46 45 44 46 43 40 37 40 38 46 48 50 50 48 49 43 45 42 41 41 39 38 38 38 40 39
48 48 47 47 46 45 45 43 47 48 48 47 45 45 45 45 44 44 44 44 45 45 45 45 44 42 35 37 36 36 44 47 50 52 48 49 45 43 42 42 41 37 36 33 35 37 37
48 47 47 47 46 45 45 44 43 45 48 48 47 46 45 46 45 44 44 44 44 45 45 44 41 39 30 36 34 34 38 42 47 51 51 49 46 42 39 38 36 37 32 32 33 36 35
48 47 47 46 45 47 48 46 44 44 43 45 46 48 46 45 46 46 46 45 44 45 43 43 40 35 33 32 36 34 38 43 45 48 47 46 43 39 37 37 29 31 32 31 30 35 34
48 47 47 46 46 45 44 45 45 47 44 43 44 46 48 47 46 47 46 41 37 34 37 33 32 31 30 32 40 43 44 40 44 44 37 43 37 34 35 36 33 33 31 31 32 34 33
48 47 46 46 46 46 46 45 43 43 47 44 44 44 46 47 47 47 43 35 38 37 31 35 35 33 34 38 37 41 41 36 41 36 38 39 34 35 36 37 34 33 30 30 30 32 33
47 47 46 46 46 46 45 45 45 44 44 45 43 43 45 46 48 43 40 41 43 41 35 36 37 37 40 41 37 39 41 38 39 35 36 35 35 37 35 35 35 31 30 28 27 30 30
47 47 45 46 46 46 45 45 45 44 44 44 44 43 45 46 44 40 39 43 43 42 29 33 37 39 40 40 37 44 43 41 39 35 37 36 37 36 35 33 33 30 27 26 28 29 27
47 47 46 45 46 47 46 45 45 44 45 44 44 43 46 46 41 40 40 42 42 40 19 34 38 44 41 37 38 40 45 40 37 37 36 34 36 35 33 33 30 28 28 29 29 28 26
46 46 45 45 45 44 46 45 44 44 44 44 43 44 46 45 46 43 42 42 41 25 21 32 36 34 34 37 38 41 41 42 41 37 38 37 40 38 35 35 30 32 30 29 29 26 21
46 46 45 44 45 44 42 44 43 44 44 43 43 46 45 45 41 43 43 41 26 22 32 32 36 33 33 33 36 35 35 36 35 30 32 36 36 37 38 33 33 30 26 23 23 22 20
45 45 44 44 43 42 43 42 43 42 43 43 44 48 47 46 43 43 42 34 22 29 33 37 36 37 33 36 36 36 35 34 37 33 33 30 29 36 37 34 31 28 25 21 17 18 19
45 45 43 42 43 42 44 42 42 43 44 45 45 45 45 45 44 43 37 24 23 28 32 34 32 32 33 37 36 36 34 34 36 36 29 28 29 37 37 38 36 32 27 27 23 20 20
45 44 43 43 43 44 44 43 43 43 44 44 42 41 41 45 44 41 32 27 30 34 35 35 28 27 27 33 35 35 34 36 36 36 36 32 26 35 37 38 36 33 31 26 26 18 14
44 43 43 43 43 44 43 43 43 43 43 43 42 38 42 45 44 38 29 29 33 36 36 31 29 26 27 27 31 30 33 36 37 36 35 33 30 31 36 35 33 32 31 31 29 25 19
43 43 43 43 43 44 43 43 43 42 43 41 39 36 43 45 38 36 31 34 36 34 34 32 30 29 28 27 27 29 29 31 37 35 33 33 33 28 31 37 37 34 32 30 27 25 22
44 43 44 44 43 43 42 43 44 42 42 40 37 37 44 44 33 29 33 34 35 33 32 30 29 29 29 26 26 29 29 31 35 33 33 31 30 26 28 32 35 35 35 32 28 26 22
43 44 44 43 43 43 43 44 44 42 41 41 37 33 36 42 40 36 32 31 33 35 33 31 29 29 28 25 28 28 29 30 31 30 31 31 29 24 21 23 31 31 33 33 30 26 23
42 43 44 43 43 43 43 44 44 41 39 38 34 34 35 31 34 33 34 34 31 32 34 32 30 28 27 24 27 28 30 30 31 30 31 28 25 26 26 29 29 29 30 32 32 29 27
43 44 43 43 43 43 43 43 42 42 35 30 31 32 35 33 34 33 34 34 33 34 33 32 31 32 30 30 29 27 29 28 27 30 29 30 27 25 22 26 27 25 28 31 32 32 31
44 44 44 43 43 43 43 43 43 42 35 29 32 33 35 29 25 33 33 33 34 34 35 36 37 33 31 32 33 34 30 29 28 28 29 29 27 24 20 26 25 21 24 26 29 29 30
45 45 44 43 43 44 43 43 43 43 38 32 33 32 27 21 22 23 20 25 25 31 33 36 38 34 36 40 36 32 30 29 30 29 30 29 26 25 24 23 17 19 26 25 26 28 29
45 45 44 44 43 43 43 43 43 42 43 36 35 32 28 19 20 15 19 23 29 32 34 37 39 40 41 37 30 28 28 28 28 29 29 30 29 24 23 22 21 22 27 26 25 23 27
44 45 44 44 44 43 44 43 42 43 43 38 36 35 31 24 22 24 21 28 26 29 33 37 38 36 39 36 32 26 23 24 25 26 30 30 29 26 26 21 16 23 28 28 28 23 30
43 44 45 44 44 43 43 43 43 43 43 40 37 36 31 27 28 27 24 23 24 20 22 30 25 33 37 33 30 27 24 27 25 24 26 28 28 27 25 23 23 24 29 31 24 25 33
43 44 45 45 44 43 43 43 43 42 43 39 38 38 32 29 28 28 27 25 25 24 21 24 31 34 34 31 29 27 26 25 24 25 25 24 23 24 26 25 19 30 32 29 31 34 34
44 45 46 46 44 44 43 42 43 43 43 41 35 39 38 32 29 33 32 32 31 29 27 25 23 32 33 33 33 33 30 27 25 23 27 24 25 24 26 25 25 30 32 33 35 34 35

GFSGBSN_sfc_30mbdewp_045.txt.gz
Dewpoint
49 48 48 47 47 46 45 47 48 49 47 45 45 45 45 44 44 45 45 45 45 45 45 45 46 48 44 39 37 40 41 39 48 48 50 43 44 44 39 45 46 43 42 41 48 48 47
49 48 48 47 47 47 45 43 47 48 49 46 46 46 45 45 44 44 45 45 44 46 44 45 46 46 41 35 38 39 37 46 47 47 49 44 45 44 43 43 44 43 42 44 47 46 46
49 48 48 47 46 47 46 45 43 45 47 47 47 46 46 46 44 44 44 45 45 45 45 45 44 42 39 37 39 37 40 49 46 48 48 48 46 45 43 42 42 42 41 45 45 44 46
49 48 46 47 45 47 47 48 45 43 45 47 47 47 45 46 46 45 45 44 45 45 45 44 44 44 34 38 37 37 41 48 53 53 51 50 45 44 42 42 41 38 40 38 42 44 44
49 48 47 47 46 45 44 45 47 47 44 43 45 47 48 46 46 46 47 46 45 45 45 44 40 38 29 36 38 34 34 45 49 51 52 51 45 42 40 38 37 36 32 34 35 40 41
49 48 47 47 46 46 46 44 43 44 47 44 43 43 46 48 47 47 47 46 45 45 43 43 41 33 32 30 34 38 41 43 46 46 48 44 43 39 37 36 29 32 31 33 32 36 40
48 48 47 46 46 45 47 47 46 45 44 47 44 43 45 47 47 47 45 39 35 32 36 32 32 31 30 31 40 43 41 39 43 44 38 42 36 35 36 36 33 33 31 31 31 34 35
48 48 47 45 47 48 47 47 47 44 45 46 46 43 44 46 47 48 42 35 37 36 30 35 35 35 36 41 37 40 39 38 39 36 37 37 32 36 37 37 33 33 31 31 32 34 34
48 47 46 46 46 47 45 47 46 45 44 45 45 44 43 45 47 43 39 39 43 41 34 35 37 38 40 41 37 39 38 37 38 35 35 33 35 36 36 36 33 31 30 29 29 31 31
48 47 46 45 45 46 46 46 45 45 44 44 44 43 43 46 44 40 39 42 43 42 29 33 36 38 40 40 36 42 42 39 40 35 36 34 37 35 35 35 34 31 30 28 29 29 28
47 47 45 45 45 46 46 42 45 44 45 45 44 43 44 46 41 40 40 43 42 40 19 35 37 43 40 37 37 38 44 40 37 37 36 34 36 35 34 33 33 30 28 28 28 28 26
46 46 45 45 45 45 43 44 43 45 43 43 44 44 46 45 45 44 42 42 41 23 21 30 36 35 34 36 36 39 38 43 42 37 38 37 39 37 35 34 32 31 29 29 28 26 24
46 46 44 44 44 43 42 43 42 42 43 44 44 45 45 45 40 44 43 40 26 22 32 31 32 34 32 33 33 35 33 35 34 30 30 35 36 37 38 33 32 30 27 26 23 23 21
46 46 44 43 43 44 44 43 42 43 43 44 45 48 46 45 43 43 41 31 21 28 33 37 34 33 31 33 30 32 31 33 37 35 32 30 28 36 37 33 31 28 26 23 18 19 20
45 45 44 44 43 44 44 42 43 43 44 45 45 44 45 45 43 43 35 23 22 27 31 34 33 31 32 35 30 31 30 32 35 36 31 29 30 37 37 37 34 31 25 24 21 20 19
45 44 43 43 44 44 43 42 43 43 44 44 42 41 42 45 44 42 31 27 29 32 34 35 27 29 31 33 31 34 33 35 35 36 35 30 28 36 37 37 36 32 30 25 24 17 15
44 43 43 44 44 44 42 42 43 43 43 44 41 39 42 44 43 38 29 29 32 35 36 31 29 26 28 33 35 32 32 35 36 36 35 32 29 32 36 35 33 31 30 30 27 22 16
44 43 44 44 43 43 43 43 43 44 43 40 38 37 43 45 38 36 31 33 35 34 35 33 30 29 27 27 30 29 32 34 37 35 32 32 30 27 32 37 37 34 31 30 24 24 23
44 44 44 43 43 43 43 43 44 43 42 40 37 37 43 44 33 29 32 33 35 33 32 30 29 29 29 26 27 29 29 33 37 35 32 33 30 26 28 33 36 34 34 32 28 26 23
43 44 44 43 43 42 43 44 43 42 41 40 35 33 36 41 40 35 33 31 32 34 32 31 30 29 27 25 29 28 29 31 34 34 33 31 29 25 21 23 32 31 33 34 29 28 26
43 44 43 43 43 43 43 43 43 41 39 36 34 34 34 31 34 33 34 35 32 30 33 32 30 29 27 24 27 29 30 30 31 31 33 30 26 27 26 28 31 31 31 33 31 30 27
44 44 43 43 44 43 43 43 43 43 34 31 29 31 34 32 31 33 34 34 34 34 34 32 33 32 31 29 28 28 29 29 28 30 30 30 26 24 23 26 28 27 28 32 33 32 30
44 44 44 44 44 43 43 43 43 42 34 29 31 33 34 24 25 33 28 33 31 34 35 37 37 32 30 32 34 34 31 29 28 28 29 28 27 24 20 25 24 19 22 25 30 32 32
45 44 44 44 43 43 43 43 43 43 37 32 33 31 26 19 23 18 19 22 26 30 32 34 39 34 37 41 38 32 30 29 30 29 31 28 25 23 22 22 15 19 22 25 25 28 32
45 44 44 44 43 44 44 43 42 43 42 35 35 30 25 18 21 16 22 27 30 31 33 37 37 36 40 37 29 27 28 28 28 29 30 29 27 24 22 22 20 20 26 25 24 22 26
45 44 44 44 43 43 43 43 43 43 43 37 36 34 29 21 23 26 22 25 23 25 31 32 33 32 37 35 31 25 22 24 25 28 29 30 29 25 25 21 16 20 29 28 28 23 29
45 45 44 44 43 43 43 43 43 42 42 38 37 35 29 26 28 27 24 23 22 20 22 27 22 33 36 32 29 28 24 27 25 23 27 28 28 27 26 24 24 25 26 30 23 22 34
43 45 46 44 43 43 43 43 43 43 42 38 38 38 32 27 28 29 29 26 25 24 20 22 29 30 33 30 29 27 27 25 24 26 25 25 24 23 26 24 19 27 31 28 29 34 35
43 45 46 46 44 44 42 43 43 42 41 39 33 38 38 30 29 33 32 32 31 29 26 24 23 32 32 31 31 32 30 29 25 23 27 24 24 23 26 25 27 28 33 32 34 34 35

GFSGBSN_sfc_30mbdewp_048.txt.gz
Dewpoint
49 49 48 48 47 47 47 46 43 44 47 48 47 44 45 45 44 44 46 45 45 45 45 45 46 48 44 40 39 42 44 39 44 47 49 46 43 41 40 43 45 44 43 43 44 45 46
50 49 48 47 48 48 47 47 46 43 44 46 47 46 45 44 45 45 45 45 45 46 45 45 46 47 42 35 44 43 42 43 45 47 48 46 43 43 40 41 43 44 42 45 46 47 47
49 49 48 47 46 45 45 45 48 48 45 42 47 47 48 45 46 45 46 44 45 45 45 45 45 42 39 37 41 40 38 45 46 46 49 45 45 43 43 41 45 44 42 45 45 45 44
49 49 48 47 46 48 47 45 45 45 45 46 41 46 47 48 46 46 47 47 45 45 45 44 44 42 32 37 40 40 38 48 48 47 50 48 47 44 43 43 41 41 43 39 44 44 47
49 49 48 47 46 45 47 48 47 46 46 44 46 42 45 46 48 47 48 47 45 44 45 44 39 38 29 37 37 38 39 45 49 49 49 51 46 42 40 39 37 38 34 36 41 43 45
49 49 48 47 47 47 48 47 48 47 46 46 45 45 43 46 47 48 48 47 46 44 42 42 41 32 31 29 33 39 42 45 45 46 45 47 43 39 38 36 28 33 32 34 35 42 43
49 48 48 46 46 47 48 48 47 47 47 46 45 46 43 45 46 47 46 38 34 30 35 32 33 32 31 35 42 41 39 42 44 42 36 40 36 34 36 35 32 33 31 34 33 39 40
48 48 48 46 47 47 46 45 47 47 47 45 44 46 43 44 46 47 41 34 36 36 29 35 35 35 37 42 36 40 38 39 40 35 34 35 33 36 37 35 33 32 30 32 32 35 37
48 48 47 46 45 46 46 46 45 46 46 46 45 45 42 44 46 44 38 37 43 41 34 34 36 38 40 41 38 38 38 39 36 33 32 34 33 37 37 35 32 31 30 30 30 33 31
48 48 47 45 45 46 45 45 45 46 46 46 44 44 43 46 44 41 38 42 43 41 29 31 35 36 40 39 36 42 42 41 38 33 34 35 38 36 36 34 32 30 31 29 30 31 30
47 47 47 45 45 46 44 44 45 45 45 45 43 43 43 47 41 40 39 43 42 39 19 34 36 42 39 37 37 39 40 39 35 36 36 33 36 35 34 35 33 30 29 28 29 29 26
47 47 46 44 45 44 43 45 45 45 45 44 43 43 45 45 45 43 42 42 40 22 20 31 35 34 34 35 37 39 39 42 43 38 38 37 40 36 35 34 32 31 29 28 28 26 23
46 46 46 44 44 44 44 44 43 44 43 43 44 46 46 45 40 44 42 39 25 22 31 29 31 32 31 32 33 34 35 34 33 29 30 35 36 37 36 32 31 29 27 24 23 23 22
46 46 45 44 44 44 44 44 43 43 43 43 45 47 45 44 43 43 41 28 22 27 32 35 32 32 28 31 31 29 31 32 36 34 31 30 28 35 37 33 30 28 26 22 17 19 21
45 45 44 44 44 43 43 43 43 43 43 44 45 44 45 45 43 43 34 23 22 25 32 34 33 30 29 31 28 28 29 31 35 36 28 30 29 37 37 37 32 29 27 24 20 19 19
45 44 44 44 44 43 43 43 43 44 44 45 41 40 42 45 44 42 31 28 29 31 34 36 31 33 29 30 26 26 28 32 35 36 33 30 28 36 37 37 35 30 28 26 23 17 14
45 43 44 44 44 44 42 43 44 44 43 44 41 39 42 45 44 37 30 29 32 34 35 32 29 28 33 30 28 30 29 35 36 36 34 31 30 32 36 34 32 30 28 27 25 21 16
44 43 44 44 44 43 43 44 44 43 42 40 38 36 43 44 37 35 31 32 35 34 35 33 30 29 28 34 33 31 32 33 37 36 31 32 29 28 32 37 37 34 30 28 23 23 23
44 44 44 44 43 43 44 44 44 42 42 39 36 38 44 44 32 29 31 33 34 32 32 30 28 29 28 27 28 29 30 33 37 34 32 33 30 26 27 31 35 35 34 32 28 26 23
44 44 44 44 44 43 44 44 43 41 43 40 35 33 36 41 39 35 33 32 32 35 33 31 30 29 26 27 29 29 30 34 36 34 34 32 29 25 21 22 29 31 34 34 30 28 27
44 44 44 44 43 43 44 44 43 40 41 36 33 33 34 32 34 33 34 35 32 29 33 33 30 30 27 26 27 29 30 31 34 36 36 31 27 27 27 26 31 31 30 33 32 31 28
44 44 44 44 43 44 44 43 43 39 36 31 29 31 34 29 29 32 32 33 33 34 33 33 34 32 30 28 29 28 29 29 28 30 34 30 26 24 23 26 29 28 28 31 32 32 32
44 44 44 44 43 43 43 43 43 39 33 28 31 32 32 23 26 32 24 29 27 32 35 38 37 31 31 34 36 35 32 29 29 28 29 28 26 24 20 24 24 21 24 26 30 32 32
44 44 44 43 44 44 43 43 43 41 35 32 33 29 25 21 19 18 22 23 28 30 33 36 38 33 38 40 38 33 30 29 29 30 30 27 25 22 20 22 14 17 22 24 25 26 32
45 44 44 43 44 43 43 43 43 43 39 34 34 30 22 19 21 18 24 25 29 30 33 37 34 31 33 36 29 27 27 28 28 29 30 28 26 23 21 21 19 19 26 25 24 23 25
44 44 43 43 43 43 43 42 42 42 41 36 35 33 28 20 23 26 22 24 22 25 31 30 30 31 36 34 30 24 22 24 25 28 30 29 28 24 25 21 16 17 28 28 27 22 28
44 44 44 43 43 43 43 43 43 42 41 37 37 33 28 26 27 27 22 22 22 20 23 25 22 31 35 31 29 27 25 26 25 23 26 27 28 26 26 23 23 25 28 29 23 22 32
45 44 44 43 43 43 43 43 43 42 41 37 36 38 30 27 28 30 29 26 24 23 20 22 29 29 31 29 29 27 26 25 24 26 26 25 24 24 26 22 18 26 31 27 27 33 34
45 45 45 44 44 43 43 43 43 41 41 36 33 37 35 28 29 33 32 32 31 28 26 24 25 31 31 30 30 29 28 30 25 22 27 24 25 23 25 23 26 27 31 32 33 33 34

GFSGBSN_sfc_30mbdewp_051.txt.gz
Dewpoint
50 50 48 48 46 46 48 47 48 46 46 42 47 48 48 42 45 45 45 46 45 45 45 47 47 47 43 39 39 43 44 46 43 46 47 47 43 42 40 43 46 43 44 47 46 46 46
50 50 49 48 46 47 47 47 45 46 47 47 41 45 47 47 43 45 46 45 46 46 46 45 44 46 42 35 42 44 43 42 42 46 46 48 44 41 41 42 42 44 44 42 45 46 46
50 50 49 48 47 48 47 47 47 46 46 45 48 41 45 46 48 46 46 47 45 45 45 44 45 44 40 36 42 41 41 40 45 46 46 48 46 41 42 39 44 45 41 44 45 45 45
52 50 49 48 46 47 46 48 48 48 47 46 46 46 43 46 46 48 47 47 46 44 46 44 44 41 33 36 42 42 41 40 47 48 48 49 47 42 43 43 42 39 41 38 45 45 47
53 50 49 48 46 48 47 48 47 48 48 47 46 46 44 45 47 47 48 48 46 44 45 44 39 38 29 36 41 42 40 45 47 47 49 49 47 41 41 38 37 40 34 37 41 44 44
53 50 49 48 46 47 47 47 47 48 47 47 46 47 45 44 46 47 48 47 46 43 41 42 41 30 30 29 34 40 43 48 42 45 44 47 43 39 38 37 28 33 34 36 38 43 43
53 50 49 48 47 46 47 46 47 47 46 46 45 46 47 44 46 46 47 37 34 30 34 31 33 32 32 37 42 39 40 45 43 41 37 42 37 33 37 36 33 33 34 33 35 43 41
53 50 49 48 47 46 45 46 47 46 46 46 46 46 46 42 45 46 42 34 33 34 28 35 34 35 37 42 35 39 40 39 40 34 37 34 33 34 37 34 32 34 31 33 32 41 40
53 49 48 47 45 45 45 46 45 45 46 46 46 45 45 42 46 45 39 36 43 41 33 33 36 38 40 41 38 39 39 39 37 34 34 33 35 38 36 34 32 31 31 31 31 38 35
53 48 48 47 45 45 45 45 45 46 45 46 45 45 44 43 43 41 38 42 43 40 29 31 33 36 39 39 36 42 42 40 37 33 34 34 37 37 36 33 32 30 31 32 32 34 29
51 48 47 47 45 45 44 44 45 44 45 45 44 44 44 45 41 40 39 43 42 37 18 34 36 41 39 36 36 36 41 40 35 35 35 33 35 34 34 32 32 30 31 30 30 29 28
49 48 47 46 45 45 44 45 44 45 45 43 43 44 46 45 44 43 43 42 40 22 19 31 34 32 33 35 36 38 38 42 41 36 36 36 39 36 34 36 31 30 28 28 28 27 26
48 47 47 46 45 45 44 44 44 44 41 43 44 48 46 44 40 44 42 38 26 21 32 29 31 32 31 31 33 35 36 35 32 30 30 35 36 37 35 32 31 29 27 26 24 23 22
48 46 46 45 45 44 43 44 43 43 42 43 46 45 46 44 44 43 41 28 23 27 31 34 31 31 28 30 30 30 34 32 36 33 31 30 28 35 36 32 30 28 25 22 17 19 22
47 46 45 44 44 44 43 43 43 43 44 45 45 44 44 45 43 43 34 23 23 27 35 30 31 28 26 30 28 26 30 32 34 34 29 29 29 37 37 36 32 30 26 24 20 19 19
46 46 44 44 45 44 43 43 43 44 44 45 41 40 41 45 44 42 31 28 29 29 36 33 29 31 25 28 24 26 27 31 35 36 33 31 28 36 36 36 33 30 28 25 22 16 14
46 45 44 44 44 44 44 44 44 44 43 45 40 38 42 45 44 38 29 30 31 34 36 34 32 32 32 26 24 26 25 34 36 36 33 31 30 33 35 33 30 28 28 27 25 21 16
45 44 44 44 44 43 44 44 44 43 44 40 38 35 43 45 37 35 31 31 35 34 35 33 31 32 34 32 26 30 30 33 37 35 31 31 31 29 32 37 36 33 29 27 23 23 22
45 44 45 44 43 44 44 44 44 42 43 38 36 39 44 44 30 30 31 32 34 31 31 30 28 29 31 34 30 30 32 35 37 34 32 32 28 26 29 32 35 35 33 30 27 25 22
45 45 44 44 44 44 44 44 43 40 44 38 35 33 38 41 39 35 33 32 32 35 33 31 30 28 26 28 30 29 31 36 36 35 34 32 29 24 21 22 29 30 34 33 29 26 25
45 45 44 44 44 44 44 44 43 39 45 35 33 32 33 33 34 33 34 34 32 30 32 35 30 31 27 27 28 29 30 33 35 38 34 31 27 27 26 26 30 29 29 32 31 31 28
45 44 44 44 43 44 44 44 42 38 38 31 30 32 33 28 28 32 32 32 32 34 34 33 32 31 31 29 29 28 29 31 34 34 37 31 29 25 24 26 29 28 29 30 32 33 32
45 44 44 44 44 44 43 44 41 39 33 28 31 33 29 23 26 31 25 26 28 33 35 38 37 31 33 36 38 36 33 30 30 31 32 32 27 24 20 24 23 20 24 27 29 32 32
45 44 44 44 44 43 43 43 41 38 34 31 31 28 25 20 20 21 24 25 30 32 33 35 36 33 37 37 39 32 30 30 29 30 30 27 24 22 20 20 10 16 22 24 25 26 30
45 44 44 44 43 43 43 43 42 39 37 33 33 26 21 20 19 22 24 26 29 29 34 36 31 29 32 35 29 27 27 27 28 29 29 27 25 22 21 20 18 21 26 25 24 24 26
45 44 43 44 43 43 43 43 42 41 38 35 34 31 24 22 24 26 23 23 26 27 32 28 27 32 36 33 28 24 23 24 26 28 31 28 27 24 24 21 16 17 27 28 26 23 28
45 44 43 43 43 43 43 43 42 41 39 36 36 32 28 25 27 26 22 22 22 21 25 24 23 31 34 30 29 27 24 25 24 24 26 27 28 27 26 24 23 25 28 29 22 24 30
45 44 43 43 43 43 43 43 42 41 40 36 36 36 28 27 28 30 29 26 23 22 25 22 28 29 30 30 28 27 26 25 24 25 26 25 24 25 26 23 18 27 29 28 30 32 32
45 44 43 43 43 43 43 43 41 41 40 35 33 37 33 28 28 32 31 31 31 29 26 24 27 30 30 31 29 28 28 28 26 21 26 24 25 24 25 22 26 29 29 31 29 28 29

GFSGBSN_sfc_30mbdewp_054.txt.gz
Dewpoint
52 51 50 50 48 47 47 48 47 46 46 46 49 43 45 48 46 43 45 45 46 46 46 45 46 48 43 37 36 43 44 48 49 50 49 48 42 38 35 38 43 42 43 43 41 46 44
53 51 50 49 47 47 47 46 48 48 48 47 47 47 42 46 47 47 46 46 46 45 45 45 46 44 41 32 39 41 42 42 47 46 47 49 40 39 35 37 39 41 44 43 42 45 45
54 52 50 49 49 47 47 46 48 47 48 47 47 47 46 43 46 47 47 46 48 45 46 44 45 40 39 33 39 39 41 40 45 45 46 49 45 40 36 37 40 41 40 42 43 42 41
55 53 50 50 48 47 48 48 49 49 48 48 48 47 45 44 44 47 48 47 48 45 45 45 44 39 31 37 39 41 40 41 41 44 47 50 48 42 39 40 39 36 38 37 40 43 43
57 55 51 50 49 47 47 47 49 48 48 48 46 46 45 45 43 47 47 48 47 45 45 45 39 37 30 39 39 42 41 44 44 45 46 50 47 40 41 34 33 35 30 34 41 41 43
58 55 52 50 49 47 46 47 48 48 47 45 46 46 46 45 43 46 46 48 46 43 41 41 39 33 29 31 41 42 42 47 43 41 44 44 43 36 33 30 23 25 27 33 38 41 42
59 56 53 50 49 48 47 46 48 47 45 46 46 47 46 46 43 46 46 39 36 33 34 31 32 31 30 37 41 38 41 46 43 38 36 42 37 34 31 30 26 27 29 32 38 42 41
59 56 53 50 48 47 46 46 47 45 45 46 45 46 45 45 42 47 45 34 33 36 26 35 35 35 36 41 35 37 43 37 40 34 37 35 32 33 32 33 31 31 29 29 34 40 41
58 55 52 49 48 46 45 46 45 45 47 45 46 45 45 45 44 45 41 36 43 41 32 33 36 37 39 41 35 37 41 38 38 34 35 33 35 35 34 33 30 29 27 29 29 36 38
58 55 51 49 48 46 45 45 45 45 45 45 45 44 44 43 43 42 38 41 43 42 31 31 31 36 38 39 34 42 43 38 37 33 36 35 38 34 31 30 28 27 30 31 31 29 23
56 54 49 48 47 46 45 44 45 45 45 44 44 44 44 42 41 39 40 44 42 38 20 33 33 40 39 34 35 36 41 41 33 34 36 33 37 33 31 31 30 29 32 30 28 25 28
56 51 49 48 46 45 44 45 45 44 44 43 44 45 45 46 43 43 44 42 41 28 20 30 33 31 32 34 35 37 40 41 38 35 36 37 40 36 34 34 33 31 31 31 31 28 24
55 50 48 47 45 45 44 44 44 43 42 42 45 46 44 43 40 44 43 39 29 25 33 28 26 32 31 32 35 36 35 35 33 29 31 36 37 37 37 31 31 29 26 25 23 24 19
52 49 47 47 45 45 44 43 43 43 43 44 46 45 45 45 44 43 41 30 25 30 30 33 29 30 26 31 32 34 34 32 37 34 32 30 27 35 36 32 30 29 22 20 16 17 18
51 48 47 46 45 45 44 43 44 44 45 45 47 45 44 44 44 44 35 29 27 30 34 28 29 26 24 28 27 28 32 30 34 35 31 29 29 37 37 35 31 31 28 24 23 21 21
50 48 46 45 45 44 44 44 44 45 44 45 43 42 42 45 45 42 32 30 33 32 34 28 28 27 22 25 23 26 29 33 34 35 34 32 29 35 35 35 32 30 28 24 27 19 13
50 47 45 45 45 44 44 44 45 45 43 45 42 38 43 45 44 38 30 32 32 33 36 34 33 31 28 23 23 24 27 33 36 35 32 32 29 33 34 32 31 29 28 28 25 24 16
49 47 45 45 44 44 44 45 45 44 44 44 41 36 44 45 38 35 33 32 35 34 36 35 36 33 30 26 22 28 28 32 36 35 30 31 31 29 32 37 34 31 27 27 23 23 23
49 46 45 45 44 44 44 45 45 43 43 40 39 39 45 44 32 31 32 33 35 32 32 30 30 36 36 33 28 31 32 35 37 34 31 31 30 26 29 32 34 32 31 28 28 27 25
49 46 45 44 44 44 44 44 44 42 43 40 38 34 39 41 40 34 33 33 32 35 34 31 29 29 31 29 30 31 33 36 36 35 35 33 29 27 22 26 30 30 31 31 29 26 23
49 47 45 45 44 44 44 44 43 39 45 37 35 34 36 33 35 34 34 35 32 31 33 34 31 31 27 27 29 30 32 34 36 38 34 32 29 28 25 28 31 30 30 32 31 29 26
47 47 45 45 44 44 44 44 41 40 42 33 31 33 34 30 30 34 33 32 32 34 35 33 31 32 30 28 29 29 31 32 34 36 35 32 29 27 25 26 29 28 29 30 31 30 30
48 47 45 44 44 44 44 43 40 39 34 32 33 35 32 25 28 32 29 28 30 33 35 37 36 32 34 36 38 36 33 32 32 34 34 34 29 26 23 24 24 21 22 24 27 30 30
48 46 45 44 44 44 44 42 39 38 35 31 33 33 27 23 26 25 25 28 31 33 34 34 35 33 36 35 39 31 30 30 30 30 31 29 27 26 23 22 13 18 21 24 24 25 25
47 46 45 44 44 43 43 43 40 39 37 34 33 27 25 21 22 25 26 28 30 33 35 34 30 30 34 34 30 28 28 28 29 30 28 28 26 25 22 19 19 24 26 25 24 26 28
47 46 44 44 43 43 43 43 42 39 38 35 34 31 27 23 23 26 23 24 32 30 33 30 27 33 37 33 29 25 23 25 26 28 30 28 27 24 23 21 16 19 24 28 27 23 30
47 46 44 43 43 43 43 43 42 41 39 37 36 33 29 25 27 25 22 22 23 24 28 25 25 31 34 32 29 26 25 26 24 23 26 27 28 26 24 22 20 26 28 29 23 26 30
47 45 44 43 43 43 43 42 41 39 40 37 36 36 29 27 29 30 30 24 23 22 29 24 29 30 32 31 29 28 26 26 25 25 26 25 24 23 25 21 18 24 30 27 28 24 22
46 46 44 43 43 43 43 42 41 39 39 36 33 36 33 29 28 32 31 32 30 28 24 28 30 31 31 31 29 29 28 28 26 21 26 26 26 25 25 24 27 23 29 26 26 26 25

GFSGBSN_sfc_30mbdewp_057.txt.gz
Dewpoint
55 54 52 51 50 48 48 48 47 49 49 48 47 48 47 44 46 47 46 46 47 45 46 46 46 45 44 36 33 44 44 49 50 49 49 47 43 41 36 40 42 45 40 41 46 43 42
56 55 53 51 50 49 48 48 47 49 48 47 48 48 47 45 43 46 48 46 46 47 44 45 45 46 41 30 37 38 41 42 48 46 48 48 43 40 34 37 41 42 43 41 41 42 43
57 56 55 53 51 50 48 48 49 50 48 48 49 48 46 46 44 45 48 48 47 48 44 46 44 40 36 34 37 38 39 40 46 45 43 48 46 40 37 31 39 39 37 41 41 40 38
58 57 56 55 52 50 48 48 49 49 48 48 47 47 46 46 44 43 47 47 48 47 44 46 44 37 32 36 37 38 39 39 42 45 45 48 49 46 36 34 37 41 43 38 39 39 38
60 60 58 55 52 51 49 47 48 49 48 47 46 47 47 46 45 43 46 46 48 47 45 45 39 35 29 40 38 41 40 40 42 44 46 50 50 41 39 33 33 33 33 35 34 38 38
61 61 59 56 53 51 49 48 47 48 48 45 46 47 46 46 45 43 46 46 45 45 41 37 35 33 29 32 41 42 40 41 43 43 42 45 44 36 34 32 26 25 20 27 32 38 39
61 62 59 55 53 51 49 48 47 47 46 46 46 46 46 45 45 43 45 41 38 35 32 29 29 28 28 36 42 42 42 46 43 41 38 38 37 32 28 28 23 22 20 25 29 38 39
61 62 59 55 53 51 48 47 47 46 44 47 46 46 46 45 44 44 44 36 34 38 27 32 32 32 32 39 36 40 42 37 40 35 38 36 33 30 27 27 26 21 21 27 34 39 39
62 62 58 54 53 49 47 46 46 45 46 45 45 45 44 44 42 44 40 34 41 39 32 33 34 34 35 39 33 38 41 39 35 32 36 34 35 38 29 30 27 25 22 23 31 38 38
62 61 57 54 51 49 47 46 45 46 46 45 45 44 43 44 42 41 37 39 42 40 31 29 30 35 37 36 35 40 42 39 38 33 34 34 39 38 31 28 27 23 25 27 28 31 26
61 60 56 53 49 48 47 46 45 45 45 45 44 44 46 45 41 38 40 42 41 38 22 32 32 36 36 34 34 39 41 41 34 34 33 33 36 36 30 28 26 25 29 28 28 27 19
61 58 55 51 49 47 46 45 45 44 45 43 43 46 47 43 42 42 42 40 40 29 21 29 30 29 30 32 34 38 41 44 33 34 37 37 42 38 29 29 29 32 28 27 26 23 21
59 57 53 51 49 47 46 45 44 44 43 44 45 46 44 42 39 43 41 38 30 26 33 27 25 28 28 33 34 36 36 36 31 28 30 34 35 39 37 31 32 29 26 22 21 23 20
59 57 53 50 48 46 46 44 44 43 44 45 46 45 45 44 44 42 41 32 26 29 30 30 27 28 26 32 34 32 34 32 34 28 31 30 27 35 36 28 27 28 23 19 14 15 16
58 55 52 50 47 46 45 45 44 44 45 45 46 44 43 44 44 44 36 30 29 32 29 24 26 25 24 28 30 31 34 34 31 33 31 30 30 38 36 34 30 26 23 24 23 20 18
57 54 52 50 47 46 45 45 45 45 45 46 43 42 41 45 45 42 35 32 32 35 34 25 25 23 22 25 25 27 32 34 33 36 37 32 28 36 36 35 32 30 28 22 26 18 10
56 54 51 50 47 46 45 45 45 45 43 46 42 39 43 45 45 39 33 33 33 35 32 30 32 26 23 22 23 24 29 33 34 34 34 32 27 33 36 33 29 29 28 28 25 24 18
55 53 51 48 48 46 45 45 45 44 45 44 42 34 44 44 37 35 34 34 35 34 37 37 36 31 23 21 21 25 28 31 34 33 31 31 30 27 30 35 34 31 26 26 21 23 20
54 53 50 48 47 45 45 45 45 43 46 42 38 37 45 43 34 31 33 33 34 32 32 32 34 34 33 27 25 29 31 34 36 33 32 31 29 27 28 30 31 30 29 27 25 28 25
54 52 50 49 47 45 45 45 45 43 43 42 38 34 40 41 39 33 31 31 31 35 32 31 29 33 31 29 31 30 32 35 36 34 34 32 27 27 23 26 26 27 27 28 27 26 22
53 51 49 49 46 45 45 44 44 42 43 41 37 33 35 33 34 34 35 33 29 30 33 32 30 29 28 27 29 30 32 34 36 36 33 32 30 29 26 29 31 30 26 27 29 28 24
52 50 49 48 45 45 44 44 42 41 45 38 32 32 35 33 34 34 34 32 30 33 33 30 29 30 28 27 29 29 32 33 32 34 33 33 29 29 27 26 28 28 28 28 29 29 29
51 50 49 47 45 44 44 43 41 45 41 34 34 36 33 30 32 31 30 31 32 34 35 35 32 31 32 35 35 34 32 33 32 33 33 32 30 28 25 24 23 21 22 24 27 27 27
51 50 48 46 45 44 44 41 41 45 39 31 34 35 29 28 30 29 29 32 33 34 33 34 34 32 35 36 35 30 30 30 30 31 33 32 31 28 25 23 17 19 23 23 23 23 25
50 49 47 46 45 44 43 40 40 40 39 31 34 31 28 27 28 28 30 32 34 35 35 33 31 32 36 35 29 28 27 27 28 29 28 28 27 25 23 18 17 24 25 24 24 28 30
50 49 47 46 44 44 43 41 40 40 38 34 33 32 28 26 26 27 29 32 32 32 32 31 29 34 37 34 29 25 24 25 25 28 29 28 27 23 21 18 14 22 25 28 28 23 29
50 48 47 45 44 44 43 42 40 40 38 35 34 35 29 26 27 25 28 29 31 31 30 28 28 33 35 31 28 24 24 25 24 27 26 26 26 25 24 21 20 25 27 29 24 24 25
49 48 47 45 44 43 43 42 41 39 38 36 35 35 30 26 29 29 28 25 25 25 29 27 30 31 32 31 30 28 25 25 24 26 25 25 24 23 22 22 18 23 29 26 27 27 27
48 47 46 45 44 43 43 40 40 39 38 35 32 33 32 28 29 31 30 30 30 29 26 30 31 31 32 31 29 29 27 27 24 21 27 24 25 24 24 25 26 24 25 27 27 26 28

GFSGBSN_sfc_30mbdewp_060.txt.gz
Dewpoint
56 57 56 55 53 52 51 49 49 49 49 49 48 50 49 47 46 44 46 49 46 47 46 45 45 46 44 37 35 44 44 48 49 49 46 46 45 45 40 39 46 43 42 47 48 47 46
58 58 58 56 54 52 51 50 49 50 50 49 48 50 48 46 46 45 45 48 48 46 48 44 45 45 41 34 37 38 39 41 45 47 45 46 46 44 39 39 42 42 45 44 48 46 47
60 60 59 58 56 54 52 51 49 49 50 49 47 47 48 47 46 45 44 47 48 47 47 44 46 41 35 34 36 36 38 39 44 46 44 45 47 47 40 35 42 42 39 43 43 44 42
61 61 61 60 58 55 53 52 49 49 50 49 48 47 47 47 46 46 43 47 47 48 47 44 46 40 33 36 38 37 38 38 41 46 47 46 48 47 45 37 40 38 39 36 43 46 44
61 61 61 61 59 55 54 52 50 49 49 49 46 47 47 46 46 46 43 46 46 48 47 44 42 37 30 39 37 41 40 38 40 43 46 45 48 45 40 36 36 38 31 33 39 41 40
61 61 61 61 60 55 54 53 50 48 48 47 46 47 46 46 45 46 43 46 46 46 45 38 34 32 33 32 41 41 42 40 41 42 43 41 43 39 37 33 30 34 33 34 35 38 37
61 61 61 61 59 55 54 53 49 47 48 45 48 47 46 46 45 44 44 44 41 38 35 29 27 27 27 38 43 40 42 41 43 41 33 37 35 33 33 34 31 31 31 31 33 39 35
61 61 61 61 57 54 53 51 48 47 46 47 46 46 46 44 44 42 45 40 37 38 31 31 31 30 30 37 37 39 41 37 38 34 36 33 32 36 37 33 27 25 26 31 34 38 37
61 61 61 61 57 55 53 49 47 46 46 46 46 46 45 44 43 42 41 37 41 39 35 32 31 33 34 39 38 39 41 38 37 34 34 33 36 39 35 29 30 27 22 33 34 38 38
61 61 61 60 56 55 51 48 46 46 46 46 45 44 44 45 41 42 38 38 41 40 32 30 31 34 35 36 37 40 42 39 39 34 35 35 37 37 36 31 27 23 23 31 35 35 31
60 60 61 59 56 54 51 48 46 45 45 45 45 44 45 45 42 38 41 41 40 40 21 29 30 34 36 34 35 38 43 41 34 33 31 34 36 36 35 28 27 27 29 33 35 31 28
59 60 60 59 56 52 50 47 46 45 44 44 45 46 47 42 43 42 42 41 40 29 19 27 29 28 30 31 34 39 40 43 37 35 37 37 41 40 37 30 30 29 28 27 26 25 22
56 60 60 57 55 52 50 47 45 45 44 44 46 46 44 43 41 42 41 39 30 23 31 26 24 27 30 31 33 37 36 35 31 28 30 34 36 39 39 31 32 27 26 24 23 22 21
55 59 59 57 54 52 50 47 44 44 44 45 46 45 44 43 43 42 41 36 25 25 29 27 26 27 28 31 32 35 34 31 32 28 32 30 27 37 38 31 30 27 26 22 16 18 20
54 56 59 56 54 52 49 46 45 44 45 45 46 45 42 44 43 44 40 30 29 29 26 24 26 26 27 28 28 33 34 30 31 33 29 30 30 39 37 34 32 29 26 25 24 20 20
53 56 58 55 54 51 48 46 45 45 45 46 44 43 41 44 45 43 37 32 30 35 33 24 24 24 24 25 26 30 33 33 33 35 35 31 29 36 36 36 32 31 27 23 24 14 11
51 53 57 55 53 51 49 46 46 46 45 46 44 40 44 45 45 41 32 31 33 36 32 31 31 25 23 22 24 24 32 31 34 35 34 32 31 33 35 34 30 29 29 28 26 24 22
50 52 57 54 52 50 49 46 46 46 44 46 42 37 44 45 38 37 32 33 35 35 37 36 36 32 25 22 23 26 31 32 34 34 31 33 30 30 32 37 35 33 29 26 24 22 22
49 51 56 53 51 50 48 46 46 45 46 43 39 38 44 43 33 31 34 33 33 33 34 36 33 33 33 24 25 28 31 34 35 35 33 31 30 26 27 30 32 31 30 29 28 27 25
48 48 54 52 50 49 47 46 46 45 47 46 38 33 38 41 39 36 31 30 31 34 32 31 33 34 31 27 31 29 32 34 35 35 34 33 29 28 24 26 28 27 28 28 28 26 24
45 50 53 51 50 49 47 46 46 44 47 45 39 34 35 32 34 34 35 30 29 30 32 31 29 29 28 28 28 27 31 33 36 34 34 33 29 27 27 29 31 30 27 27 27 28 25
44 50 52 51 50 48 47 46 46 44 45 42 35 34 36 33 33 33 33 31 29 33 34 29 29 29 28 29 31 28 31 31 31 34 32 33 29 29 27 26 28 27 28 28 28 29 28
44 46 52 51 49 47 47 46 45 43 44 39 36 36 35 33 33 32 32 31 32 34 35 35 32 32 33 35 33 33 32 33 33 32 31 32 29 28 24 23 23 21 23 26 27 28 27
43 50 51 50 48 48 46 45 43 45 45 35 34 35 33 29 31 30 31 32 34 34 33 33 33 33 35 35 35 31 31 31 31 33 33 32 31 29 25 23 16 20 24 23 23 25 27
44 45 51 49 48 47 46 43 42 46 46 35 37 36 32 29 30 29 32 33 35 35 33 32 32 33 36 35 30 28 28 28 28 29 28 30 31 27 25 21 20 24 25 25 26 28 29
43 44 50 49 48 47 45 42 42 45 46 36 35 34 33 29 27 30 32 33 34 32 32 30 31 36 38 34 30 27 24 24 25 28 29 28 27 25 21 18 15 24 27 29 28 26 26
44 50 50 48 47 46 43 41 41 42 42 36 34 36 32 27 28 28 30 32 33 32 31 29 30 34 36 33 29 25 25 26 25 25 26 26 26 24 24 22 23 24 27 29 24 24 27
43 50 49 48 47 46 43 41 41 40 39 37 35 36 32 28 29 29 29 27 28 27 29 28 30 31 33 31 30 28 26 25 25 27 25 26 23 24 25 25 20 25 28 26 26 27 27
43 46 49 48 47 46 43 41 41 40 39 36 32 33 34 31 30 29 29 30 30 29 29 32 31 32 33 31 30 29 27 27 25 23 27 24 27 26 25 26 26 25 24 27 29 30 30

GFSGBSN_sfc_30mbdewp_063.txt.gz
Dewpoint
60 60 59 58 59 57 54 54 52 50 50 50 50 49 50 49 47 47 45 45 48 48 47 48 45 46 45 41 38 45 44 46 49 49 44 45 45 44 41 40 44 43 46 45 46 48 45
61 61 61 60 59 59 56 54 54 51 50 50 50 48 48 48 47 47 45 44 48 49 47 47 44 46 42 35 37 42 39 40 44 47 43 44 46 46 43 40 42 45 45 48 46 48 47
61 61 61 61 61 60 57 55 54 53 50 50 50 49 47 48 48 47 46 43 47 47 48 47 44 44 38 36 37 37 37 39 43 45 44 46 48 45 46 41 44 45 42 44 47 48 47
61 61 61 61 61 61 59 55 54 53 50 49 49 47 47 47 46 47 46 43 45 47 48 47 44 44 36 37 38 39 40 40 41 47 46 48 48 46 46 43 41 41 41 36 42 44 44
61 61 61 61 61 61 60 55 54 53 50 49 49 46 48 47 46 46 46 43 45 47 47 46 42 41 32 40 38 41 41 39 41 46 46 45 44 44 44 39 37 37 32 35 35 43 44
60 61 61 61 61 61 59 55 54 53 49 48 46 47 47 47 46 46 44 44 46 47 44 44 39 33 33 33 40 42 43 42 40 42 41 40 39 39 39 37 30 32 30 34 34 41 41
57 60 60 61 61 61 58 55 54 52 48 48 46 47 46 46 45 44 43 43 41 38 39 31 28 29 28 41 43 40 43 40 41 40 33 37 34 32 36 35 34 34 32 31 36 40 42
53 56 59 61 60 60 57 55 53 50 48 46 47 46 46 44 44 41 44 41 37 38 34 30 32 30 30 37 39 39 40 37 39 34 36 34 31 36 36 35 34 33 31 28 32 36 40
51 55 57 60 60 60 57 55 52 49 47 46 47 46 44 44 43 43 41 41 41 40 36 33 32 34 34 39 37 39 40 39 36 33 34 32 32 39 37 34 33 32 30 30 32 37 39
48 52 55 57 59 59 57 55 51 48 46 46 46 45 44 44 42 42 41 41 42 41 30 29 32 34 36 40 36 42 42 39 38 32 35 36 38 37 36 34 32 27 32 34 36 36 32
46 49 53 57 58 59 57 54 50 47 46 45 45 44 44 45 42 40 40 42 41 40 18 27 31 34 36 35 37 40 45 42 35 35 36 33 36 37 36 34 35 33 29 35 36 33 32
45 48 51 56 56 59 56 53 50 47 46 45 45 45 46 43 42 43 42 41 40 27 15 25 30 29 30 33 37 40 41 43 39 35 37 37 41 40 38 37 34 33 35 35 33 31 24
47 49 51 53 56 58 55 52 49 47 45 44 46 46 45 43 41 42 42 39 29 19 30 24 26 28 31 31 34 35 35 34 32 27 29 34 34 39 39 31 31 29 26 26 24 21 20
46 49 50 54 55 57 54 51 50 46 45 45 46 45 44 44 45 42 41 36 22 24 27 27 26 27 29 31 33 33 32 30 32 34 32 29 28 36 39 33 28 27 25 21 16 19 20
47 50 51 51 52 57 53 51 49 45 45 45 46 44 43 44 44 44 40 30 27 25 27 25 27 27 27 28 30 34 31 32 33 33 29 30 30 38 38 36 32 28 24 25 23 21 20
46 51 49 50 51 55 53 50 48 46 46 46 43 42 42 44 45 43 37 31 31 34 33 27 25 25 25 26 27 30 31 32 32 36 35 32 29 37 36 35 32 30 27 23 23 14 14
45 48 48 49 51 54 51 50 48 47 46 47 43 40 44 45 45 41 32 31 33 35 35 32 28 26 24 24 26 29 32 32 34 34 35 32 32 33 33 34 31 29 27 28 26 25 20
42 46 44 46 52 53 51 49 48 47 46 47 42 35 44 45 37 37 31 34 33 34 37 35 35 32 29 23 26 30 32 32 34 34 31 34 31 28 31 37 36 34 30 27 22 20 23
41 45 45 47 48 52 50 48 48 47 47 44 39 39 44 44 31 30 33 34 35 34 34 34 32 33 33 29 26 31 32 35 35 35 33 32 29 27 28 30 33 31 31 29 29 27 24
41 44 45 46 48 52 50 48 48 47 47 44 36 33 39 41 39 36 32 32 32 34 34 33 34 34 29 29 29 29 32 34 35 34 35 33 30 25 22 26 29 29 29 30 28 24 23
41 44 44 45 51 51 49 48 49 47 47 45 38 33 34 32 34 35 34 32 31 31 33 32 30 33 29 27 27 30 31 34 35 34 33 33 28 27 28 30 30 29 27 29 27 27 24
40 44 45 46 52 51 48 48 49 47 48 43 37 35 35 33 33 33 33 30 31 34 33 30 30 31 31 31 32 28 29 29 30 34 33 33 29 27 26 27 27 27 28 28 27 28 28
40 44 45 45 47 51 48 48 48 47 47 40 38 36 35 34 33 32 32 31 33 35 34 34 33 34 33 33 32 32 32 32 33 33 32 31 28 27 25 23 23 21 24 25 28 28 29
40 45 43 45 49 50 48 47 48 47 46 38 35 36 32 32 32 32 32 34 34 34 33 33 34 32 35 36 34 31 31 32 32 32 33 31 29 28 23 21 16 20 24 24 28 29 29
38 44 44 46 51 49 47 47 47 46 46 36 37 36 32 30 32 31 33 35 34 33 32 31 32 34 36 35 29 28 28 28 29 29 28 32 30 26 23 21 21 23 26 25 26 28 27
40 44 44 46 46 49 48 47 46 45 45 38 35 35 33 29 27 27 34 34 33 32 31 29 32 36 38 34 30 25 24 24 26 28 29 28 27 25 23 18 16 23 27 29 27 26 25
39 44 44 46 48 49 47 46 44 45 46 36 34 37 30 27 28 29 32 33 33 32 30 30 31 34 36 32 28 25 24 26 25 25 25 25 25 23 23 22 23 24 25 30 22 22 28
41 44 45 50 48 48 47 46 43 46 46 34 34 36 30 29 29 30 29 29 29 30 29 28 30 32 33 29 29 28 25 25 25 28 26 25 23 24 25 25 22 24 27 26 26 29 30
43 44 44 45 48 47 46 43 42 46 40 35 31 33 33 29 28 30 30 31 30 30 30 32 31 32 33 30 30 29 27 27 25 23 27 25 26 25 25 25 25 26 29 31 31 30 30

GFSGBSN_sfc_30mbdewp_066.txt.gz
Dewpoint
61 61 61 61 61 60 60 59 56 55 53 52 51 50 49 48 48 47 47 45 45 48 48 47 47 45 45 41 40 44 44 42 48 46 44 44 44 44 40 41 41 44 43 46 46 48 47
60 61 61 61 61 61 61 61 58 56 54 52 51 50 50 48 48 48 48 45 44 48 48 47 45 45 42 34 38 43 42 39 43 43 45 44 46 46 43 41 39 45 44 44 47 48 48
58 60 60 60 61 61 61 61 60 56 54 53 50 50 49 47 47 47 47 46 44 46 48 48 45 44 39 34 38 40 40 39 42 44 43 46 47 44 45 41 43 46 42 44 45 47 47
55 57 59 60 60 61 60 60 60 56 55 53 50 50 47 48 47 46 45 46 44 46 47 48 45 44 36 38 39 39 40 40 42 45 45 48 46 43 45 45 44 42 40 37 39 46 47
51 53 54 57 59 60 60 60 59 56 55 53 49 48 47 48 47 47 46 45 44 45 47 47 43 41 34 40 37 41 42 39 41 45 46 47 43 42 44 40 38 39 32 36 35 43 45
45 48 52 55 57 58 60 60 58 56 54 52 49 46 49 46 47 46 45 44 46 47 43 45 42 35 33 33 39 41 43 42 40 42 40 41 39 37 39 38 30 32 32 34 33 41 41
43 45 48 51 54 56 58 60 58 56 54 50 48 47 47 46 45 44 43 43 40 37 38 32 31 32 29 40 44 40 42 40 40 39 33 39 34 32 35 38 35 33 33 34 37 42 40
40 42 45 49 50 54 56 59 58 55 54 49 47 47 46 45 44 43 43 40 37 38 32 35 29 31 31 39 38 39 40 38 37 34 36 34 31 36 37 38 34 32 30 32 37 41 38
42 42 43 45 48 51 54 58 58 55 53 48 47 46 45 44 43 43 41 41 42 40 35 34 33 32 34 38 37 38 39 38 36 34 33 30 31 37 37 35 34 32 28 30 31 37 39
42 44 44 46 47 50 53 57 57 55 51 48 47 46 45 44 41 42 41 42 42 40 26 26 32 34 36 40 37 43 42 39 37 33 35 34 37 35 36 33 32 31 32 34 33 34 28
41 41 43 45 48 50 52 54 57 54 50 48 46 45 44 45 41 40 40 42 41 37 8 24 29 34 38 38 38 41 44 40 34 34 36 33 36 35 34 34 33 30 33 36 37 35 34
40 41 41 44 47 49 51 54 57 52 49 46 46 45 45 45 42 43 42 41 39 23 7 23 30 29 31 36 38 39 41 44 41 36 37 37 41 37 38 36 35 36 35 35 35 34 28
38 42 41 44 46 49 52 52 55 51 49 47 45 46 45 42 39 43 42 39 24 15 27 21 26 28 31 32 34 35 35 35 32 28 30 35 35 40 40 33 36 35 31 27 25 26 23
38 41 41 45 45 50 51 51 54 50 49 46 46 47 45 44 44 42 41 33 16 23 24 26 26 27 29 32 33 32 31 32 34 33 31 29 28 36 38 35 34 30 27 25 19 20 21
38 40 40 44 45 52 50 52 52 49 48 46 47 44 43 44 44 44 37 27 23 23 26 26 26 27 27 28 32 31 32 33 34 33 30 29 30 38 38 36 32 28 25 27 22 22 20
40 40 40 43 48 48 49 52 51 48 47 47 43 42 42 44 45 42 35 28 30 31 31 29 25 26 24 26 28 31 30 32 32 35 35 32 29 36 36 34 31 28 27 23 21 16 14
40 39 40 41 46 47 48 53 49 48 47 47 43 39 43 44 44 40 30 31 32 35 34 29 28 26 25 25 27 31 31 32 34 34 34 33 30 31 32 34 32 27 25 27 25 24 17
40 40 39 41 46 46 49 51 48 47 48 47 42 34 44 45 36 37 31 34 34 32 35 34 34 32 27 24 28 32 31 32 34 34 31 33 31 29 31 34 36 34 29 27 19 19 22
39 40 41 42 46 46 48 50 48 48 48 45 38 39 44 44 30 31 33 34 34 34 35 34 31 32 33 29 29 32 33 35 35 34 32 31 28 24 25 28 32 31 31 29 28 27 22
39 40 41 42 46 46 46 51 49 49 48 43 37 33 39 41 38 34 32 33 33 35 34 35 33 33 31 29 29 30 33 35 35 33 35 33 29 24 21 24 30 29 30 30 27 24 24
39 39 40 42 46 44 50 50 49 49 49 42 35 32 34 31 34 35 33 33 32 31 33 32 31 33 29 26 27 30 31 35 35 34 33 32 26 27 28 29 30 28 29 29 27 26 23
39 39 39 41 46 45 51 49 49 48 49 44 36 33 34 33 34 35 34 32 31 33 31 30 29 30 30 28 29 28 30 31 31 33 32 32 28 26 25 26 26 27 28 28 29 28 27
40 39 39 40 46 45 46 49 48 48 49 42 39 37 34 33 33 33 32 32 33 34 34 33 32 33 31 31 32 31 32 32 33 32 32 30 28 25 24 23 22 21 23 26 28 29 28
40 40 39 42 44 44 49 48 48 48 46 39 36 36 33 31 32 31 33 34 34 33 32 33 34 32 35 36 33 31 31 31 31 31 33 30 28 26 22 19 17 20 25 27 28 28 28
40 40 38 44 45 47 49 48 47 48 44 37 37 35 32 31 32 32 34 34 33 32 31 31 32 34 36 33 29 28 28 28 29 28 29 32 29 25 21 18 20 22 26 26 26 25 25
40 40 39 45 45 46 48 48 47 48 49 39 34 36 33 31 29 28 34 33 31 31 30 30 34 37 38 32 29 24 23 25 26 27 29 28 28 23 23 19 17 22 26 28 28 24 27
41 40 39 45 43 47 47 48 47 48 47 36 34 37 30 27 28 29 33 32 33 31 30 31 33 33 36 31 27 26 25 26 24 24 25 25 25 23 23 21 22 25 25 28 20 20 28
41 39 41 44 45 48 48 47 46 47 44 32 33 36 30 28 28 29 29 30 29 31 29 30 31 32 33 29 28 27 24 25 26 26 25 24 23 23 24 23 20 24 26 26 27 30 30
41 39 44 44 46 48 47 46 46 45 42 34 31 32 32 29 29 30 30 31 30 30 30 31 30 32 33 30 30 28 27 26 25 25 27 24 25 24 25 24 25 29 28 30 30 29 29

GFSGBSN_sfc_30mbdewp_069.txt.gz
Dewpoint
56 57 58 59 60 60 60 60 60 61 58 57 55 53 52 51 49 48 49 49 46 45 49 48 47 45 44 41 40 42 44 41 45 48 44 43 42 41 38 39 41 40 42 45 46 48 48
52 53 54 56 56 58 60 60 59 60 60 57 55 54 52 50 48 48 47 48 46 44 47 49 47 45 42 34 37 41 43 39 41 42 44 44 43 45 43 41 39 41 41 44 47 48 48
48 48 50 52 54 56 57 59 60 59 60 57 55 54 51 49 48 48 46 46 46 44 45 48 47 44 40 33 38 40 39 40 42 43 44 44 45 44 44 41 41 43 39 45 46 47 46
45 46 47 48 50 52 56 57 58 59 60 57 55 54 51 47 48 47 46 45 45 45 46 47 46 43 35 39 39 39 40 38 42 46 44 46 46 43 44 46 41 38 37 37 41 43 47
42 42 42 44 47 49 51 54 56 58 60 57 55 52 49 47 48 47 47 46 44 45 46 48 44 41 34 39 37 40 41 39 41 44 46 46 44 41 43 39 36 36 31 35 37 42 43
41 43 44 42 44 46 48 50 54 56 59 57 55 51 48 48 46 46 45 44 46 46 44 45 42 36 33 32 39 41 43 42 40 40 40 41 40 37 38 37 30 30 30 35 35 40 41
42 40 43 44 44 44 45 47 51 54 58 55 53 50 49 47 46 45 43 42 40 37 39 33 33 31 31 41 42 39 42 40 39 38 34 37 34 31 34 36 37 34 34 34 38 42 39
38 38 40 41 44 44 44 46 49 51 56 55 52 50 47 46 45 44 43 40 36 37 31 36 34 31 32 39 37 39 40 37 36 32 36 34 31 34 36 36 37 34 34 34 39 42 38
37 38 38 39 42 42 45 45 48 50 53 55 51 49 47 45 44 43 40 41 42 39 34 34 33 32 36 37 35 37 39 38 35 33 33 29 32 37 36 34 34 33 33 33 34 39 40
36 36 38 40 43 42 44 46 46 49 52 54 50 49 46 44 41 41 39 42 42 39 24 22 31 34 39 39 37 43 42 39 36 33 32 32 36 36 34 32 34 29 33 33 36 31 28
36 36 36 37 40 42 42 45 46 49 51 52 51 48 45 44 42 40 39 42 41 32 5 18 28 35 40 37 38 41 43 41 34 35 35 33 34 33 33 34 34 33 36 32 33 34 33
40 38 37 38 39 42 42 44 46 49 53 51 50 47 45 44 42 43 42 41 37 21 0 20 30 29 34 37 37 38 40 43 41 37 37 37 39 36 36 37 36 37 37 36 36 34 27
40 40 40 39 38 42 43 44 46 50 53 50 49 47 45 44 38 43 41 38 22 15 24 20 25 27 31 32 35 36 35 36 33 29 29 34 35 38 41 34 35 34 30 27 25 26 25
40 39 40 41 40 40 43 45 47 51 53 49 48 46 45 43 43 42 40 30 19 18 23 25 27 27 28 31 31 32 32 33 35 33 31 29 27 34 38 35 34 32 27 23 18 22 24
41 40 40 41 42 41 43 46 51 50 50 48 48 45 44 44 43 42 34 26 19 23 26 26 26 26 27 28 31 31 32 33 36 33 30 29 30 39 37 36 34 33 26 27 21 22 21
40 40 40 41 41 42 41 48 48 51 48 49 44 43 42 44 44 41 34 28 30 27 30 27 24 26 24 26 28 30 30 32 32 35 35 32 29 35 36 34 31 28 28 23 22 16 14
40 40 40 41 42 43 43 47 51 48 48 48 43 38 43 45 44 38 29 29 32 34 33 26 26 26 26 25 28 30 30 31 34 33 34 32 29 30 32 33 30 27 26 26 25 23 17
40 40 40 42 42 43 44 47 50 48 49 48 42 34 43 44 35 35 32 33 34 33 35 34 32 32 25 25 29 32 30 32 34 34 31 33 30 27 31 34 35 34 29 25 17 20 20
38 40 40 42 42 42 46 46 49 48 49 45 39 38 44 43 30 31 33 34 32 32 34 33 31 32 33 28 29 32 33 35 35 33 31 31 28 24 24 26 31 31 31 29 27 25 21
39 40 40 41 42 43 45 46 49 49 50 45 38 32 38 41 38 33 32 33 31 34 34 35 32 33 31 28 31 31 33 35 34 34 36 32 28 22 19 22 29 29 30 29 26 21 23
40 41 40 40 41 41 46 45 49 48 50 46 36 33 34 31 33 34 34 34 31 32 33 35 32 31 28 27 29 29 33 34 34 35 33 29 27 27 27 29 29 29 29 29 27 25 22
40 41 41 41 41 39 47 46 48 48 49 45 37 33 34 32 34 34 34 32 31 32 30 30 29 30 29 27 27 27 30 31 31 33 32 31 27 26 25 24 25 27 28 29 29 28 27
40 41 41 41 41 40 45 45 46 48 48 43 41 37 34 33 33 33 33 32 32 33 33 33 31 31 30 31 32 31 32 33 33 32 31 29 27 24 23 22 21 21 22 26 28 29 28
42 42 42 42 39 43 44 46 48 49 48 41 38 36 32 31 33 33 33 33 33 33 32 33 33 32 35 35 32 31 30 30 30 30 32 28 27 24 22 19 15 19 26 26 28 26 27
42 42 42 41 40 46 45 50 49 47 46 37 36 35 33 31 32 33 34 34 33 32 31 32 33 34 35 31 28 27 27 28 28 29 31 30 27 24 19 18 19 22 27 27 26 26 25
41 42 42 41 40 45 46 48 48 49 46 37 35 36 33 31 29 29 33 33 31 30 30 32 35 37 36 32 28 23 21 24 25 27 28 27 26 24 23 19 16 20 27 28 29 21 27
42 42 42 40 44 45 49 48 48 48 49 38 34 36 30 28 28 30 33 32 32 30 30 32 33 34 35 30 27 25 25 26 23 24 25 26 25 23 22 20 21 24 25 28 20 19 28
41 41 42 41 44 45 48 48 47 47 47 36 32 34 30 28 28 29 29 30 31 31 29 31 31 32 32 28 27 27 24 26 25 26 25 25 24 23 23 22 17 25 27 25 26 29 29
40 42 41 43 44 47 48 47 47 47 43 35 30 33 32 29 28 30 30 30 30 30 31 31 30 32 32 29 29 28 26 26 25 24 27 23 24 23 24 23 26 29 28 29 30 29 29

GFSGBSN_sfc_30mbdewp_072.txt.gz
Dewpoint
48 49 50 50 51 53 54 57 58 58 59 60 60 58 55 55 53 50 48 49 48 47 45 49 49 46 44 41 39 42 45 42 47 49 44 42 40 39 35 37 37 39 39 40 42 43 46
45 45 46 46 47 49 50 52 54 56 57 58 60 57 54 55 53 49 48 47 48 46 45 47 49 45 41 30 36 40 43 41 39 43 43 44 39 43 37 37 35 38 39 39 43 42 45
42 42 44 44 44 45 48 49 51 53 55 57 59 58 54 54 52 49 48 46 45 46 45 46 48 44 41 30 37 39 39 39 40 43 41 44 43 42 41 38 39 35 37 40 41 43 43
44 45 44 42 44 44 44 46 47 49 51 55 57 57 55 53 51 49 47 46 46 45 45 47 47 43 32 37 39 39 40 38 40 45 44 44 45 43 41 42 41 36 37 35 38 43 47
38 40 40 42 44 43 43 43 44 46 49 53 56 55 53 52 49 49 47 47 46 45 46 47 44 40 32 38 38 39 41 39 40 43 43 44 42 41 41 35 35 36 30 32 35 43 43
40 39 40 40 41 42 44 42 44 44 47 50 54 56 53 51 50 47 46 45 45 47 45 46 42 36 33 30 38 40 42 42 40 40 39 39 39 37 36 32 27 30 30 33 33 40 40
39 39 38 39 40 40 41 42 43 44 45 49 52 55 52 50 48 46 43 43 40 36 40 31 33 32 31 39 42 39 40 40 39 37 32 37 33 30 33 33 35 32 31 32 37 41 39
38 38 38 38 37 38 39 42 43 42 45 47 49 54 51 50 47 45 43 39 36 36 30 36 35 34 34 38 35 38 40 37 35 32 35 33 31 34 37 37 36 32 31 31 36 41 38
37 38 41 40 37 37 38 39 42 43 44 47 49 54 51 49 47 44 40 40 41 39 32 33 34 32 35 38 36 37 39 37 35 33 33 30 33 35 35 34 35 34 33 33 32 37 39
38 41 42 41 40 39 39 39 42 42 43 46 48 52 50 48 43 41 38 41 42 37 23 21 29 33 38 39 37 42 43 37 35 32 34 33 36 34 34 34 35 32 35 35 35 31 28
39 41 42 39 41 42 42 41 41 42 43 46 48 51 49 46 41 39 40 43 41 30 2 14 27 35 40 37 38 40 44 40 34 34 36 33 34 34 32 34 37 34 36 35 35 33 32
40 42 42 41 40 42 41 42 42 43 43 45 47 52 48 46 43 43 43 40 36 18 -1 18 30 30 34 37 37 38 39 41 40 37 37 36 38 38 34 36 38 37 36 36 36 34 26
40 41 41 41 41 41 42 42 42 44 44 45 47 50 47 46 40 43 41 37 21 11 22 21 25 28 31 33 35 36 35 35 33 28 30 33 35 38 39 37 36 36 33 27 25 25 24
38 41 41 41 41 41 42 43 42 43 45 49 50 48 47 45 45 42 38 29 17 15 20 24 26 28 27 31 34 35 35 33 35 33 31 26 25 35 38 35 34 31 28 23 19 22 25
39 41 40 40 41 41 42 43 44 45 48 48 49 47 45 45 43 41 35 24 17 20 25 26 27 26 26 28 31 33 33 34 35 33 29 30 29 38 38 36 33 31 26 27 22 23 25
40 41 39 41 40 41 42 43 45 48 50 49 44 42 41 45 44 40 33 26 28 26 28 27 22 25 24 26 28 29 30 32 34 36 35 33 29 35 35 33 32 30 28 21 21 17 18
42 40 40 41 41 42 43 43 49 49 48 47 42 37 44 45 43 38 29 29 31 31 32 26 26 25 26 26 29 30 30 32 34 33 34 31 29 32 32 32 29 27 25 25 24 23 17
41 42 41 41 42 42 42 43 46 48 48 45 41 32 44 44 35 34 30 32 34 33 34 33 30 30 25 26 30 32 30 32 35 34 31 32 29 28 31 34 35 34 28 23 18 19 18
41 42 42 41 41 42 43 43 47 49 47 44 37 37 44 43 30 31 34 32 32 31 32 32 31 32 32 28 29 32 33 35 34 33 31 30 26 23 23 25 30 30 30 28 25 23 18
42 42 42 41 42 42 43 43 46 50 49 44 37 31 37 40 38 31 33 31 30 34 33 34 31 33 30 28 31 32 33 34 34 35 35 31 26 21 17 20 27 28 29 28 24 18 21
42 41 42 41 42 42 42 44 47 49 48 44 37 33 36 31 33 34 33 32 30 31 33 35 31 31 27 27 27 31 34 33 33 34 32 29 27 26 26 29 29 29 29 28 26 24 20
42 43 42 42 42 43 40 47 48 49 49 43 36 34 34 30 33 34 34 31 31 32 32 31 29 32 29 27 27 27 31 31 31 32 31 30 27 25 24 24 25 27 28 29 28 27 26
42 42 43 42 42 42 41 46 46 48 49 43 41 37 33 32 32 32 31 32 32 32 33 32 31 30 29 31 31 32 33 33 33 31 30 28 26 24 23 22 21 21 23 27 28 29 28
42 43 43 43 42 42 42 46 47 47 48 43 40 36 32 29 32 32 33 33 32 32 32 33 33 31 34 33 32 31 30 30 29 31 31 27 26 23 22 20 18 19 27 26 27 27 27
42 43 43 42 43 41 46 46 48 45 47 41 37 36 33 29 32 33 33 33 32 32 31 31 33 35 35 31 29 28 28 28 28 29 30 29 26 22 19 18 18 21 28 26 26 26 26
42 42 42 43 42 43 46 48 49 49 45 37 35 36 33 32 30 29 33 32 31 30 31 33 36 37 34 30 26 23 22 24 26 27 28 27 26 24 22 18 14 20 27 28 28 19 26
42 43 41 43 41 43 47 49 49 47 45 37 34 35 31 29 28 29 32 32 31 30 30 33 34 34 33 29 26 24 24 26 23 25 26 26 25 23 22 20 20 23 26 27 20 18 28
42 42 42 43 41 43 48 49 49 48 45 36 31 33 30 28 28 29 30 30 31 31 30 32 31 32 31 27 26 26 24 25 25 25 25 25 24 23 23 21 15 25 27 24 25 29 29
43 42 43 42 43 45 49 48 48 48 45 35 31 32 32 29 28 30 29 30 30 30 31 31 30 32 32 29 29 27 25 25 25 21 27 23 24 22 23 22 26 29 28 29 29 29 29

GFSGBSN_sfc_30mbdewp_075.txt.gz
Dewpoint
44 43 44 45 46 46 46 48 50 51 51 53 55 57 58 57 55 54 53 49 48 48 47 45 49 47 43 39 36 40 44 44 48 47 43 41 39 38 35 35 36 36 35 38 39 39 42
42 43 45 44 44 44 45 45 46 47 48 49 52 55 56 56 55 54 52 49 47 48 47 45 47 46 41 23 34 40 41 42 40 45 43 43 40 39 37 37 35 35 36 37 39 38 41
41 42 41 39 40 43 42 43 42 43 45 46 50 53 58 55 54 52 51 48 46 46 46 45 47 44 40 25 36 38 39 38 40 41 40 43 43 40 38 36 37 36 35 35 37 39 40
42 40 41 40 41 42 40 42 44 43 44 45 48 51 57 55 53 51 51 48 47 46 45 46 47 43 29 35 40 39 40 38 39 42 43 43 44 41 37 39 38 35 33 30 34 39 39
40 42 42 41 40 39 41 39 42 43 43 44 45 49 52 54 52 51 50 47 46 45 45 46 44 39 25 37 36 40 40 39 41 41 43 43 42 38 35 34 32 34 28 28 35 39 41
38 40 40 38 42 40 39 39 39 43 42 43 46 47 50 53 51 50 47 45 45 47 46 45 41 37 32 28 36 40 42 42 40 40 39 40 38 34 36 33 26 28 30 33 33 38 39
39 39 38 42 44 44 42 40 40 40 44 43 44 46 49 52 50 49 44 45 38 36 41 34 31 30 31 37 42 39 40 40 39 38 32 36 32 29 33 34 32 33 33 31 36 38 37
38 40 41 43 44 43 39 41 40 40 41 42 43 45 47 51 50 48 43 40 38 35 30 38 36 36 34 37 34 38 41 36 34 31 35 32 30 34 36 34 32 34 33 33 35 41 38
38 40 42 42 42 41 41 41 41 41 41 42 43 44 46 51 49 47 42 39 43 39 31 33 35 33 34 37 35 36 39 37 34 32 32 30 33 36 35 32 33 32 31 33 32 36 38
35 39 41 43 42 41 41 41 41 41 42 42 43 43 44 51 44 42 41 42 43 37 24 22 31 33 37 39 36 42 43 37 35 32 34 33 36 34 34 34 36 31 34 33 33 32 28
36 38 38 41 41 41 41 41 41 42 44 44 43 44 43 48 42 39 41 43 41 31 10 15 27 37 40 36 38 39 44 40 34 34 34 32 35 34 32 34 37 34 36 35 33 31 32
37 38 38 40 41 41 42 42 42 42 43 44 43 43 44 47 44 44 45 40 34 22 13 19 31 31 35 37 38 38 39 42 40 36 37 35 38 38 35 36 37 37 35 35 35 33 26
36 37 39 41 41 41 42 42 42 42 43 44 44 43 46 45 41 46 43 35 24 19 20 22 26 29 32 32 35 37 34 34 32 27 29 32 34 39 37 37 38 36 33 26 24 24 24
35 37 40 42 40 40 42 43 43 42 44 45 44 47 48 44 47 45 37 30 20 16 19 24 26 28 27 31 34 36 35 33 35 33 30 25 24 34 39 36 35 32 30 22 20 22 26
36 40 41 42 41 41 42 42 43 44 47 48 46 47 44 46 46 43 34 25 21 19 23 26 27 25 26 29 33 33 33 33 33 34 28 30 30 38 38 36 34 31 25 26 27 28 26
38 41 43 42 42 42 42 42 43 44 49 48 44 41 41 46 46 40 32 27 26 24 28 27 23 25 24 27 28 30 30 32 36 36 36 33 28 35 34 34 31 29 28 21 23 22 21
41 42 43 42 42 43 43 43 43 44 48 44 41 36 43 47 45 36 28 28 31 29 30 25 25 25 25 26 29 29 30 33 34 33 34 31 29 31 31 33 30 27 25 25 24 22 19
43 43 43 43 43 43 43 43 43 46 48 44 40 32 44 46 34 34 30 31 34 32 34 31 30 28 25 26 30 31 31 33 35 34 31 32 30 28 30 32 34 34 28 22 18 17 17
40 42 43 43 43 44 43 44 43 47 48 43 35 36 44 43 30 31 33 33 32 31 31 30 31 31 30 29 29 32 33 35 34 33 30 29 27 24 24 26 29 30 30 26 23 21 17
40 42 43 43 43 44 44 43 45 48 47 43 36 31 36 39 37 31 33 30 30 34 34 32 32 32 29 29 31 32 33 34 34 35 35 29 26 21 20 22 28 27 29 27 23 17 19
41 42 42 43 43 43 44 43 47 48 47 42 37 33 36 30 33 34 34 31 30 29 34 33 31 29 27 27 27 31 33 32 32 33 31 29 26 25 25 28 29 29 29 28 25 23 18
40 42 42 43 43 43 43 43 47 47 47 41 35 34 36 31 33 33 34 29 30 31 32 31 30 30 28 26 26 28 31 30 31 31 30 29 26 24 23 23 26 27 28 29 28 26 25
41 42 42 43 43 43 44 44 46 47 48 42 41 39 35 33 32 32 32 31 31 32 33 32 31 30 29 30 31 33 33 33 32 31 28 27 26 23 22 21 21 21 24 28 29 29 26
42 41 42 43 43 43 43 45 47 48 47 43 39 36 31 30 31 31 33 33 31 32 31 32 32 30 33 33 32 31 30 30 31 31 30 27 25 22 22 20 16 20 28 26 27 28 28
42 42 42 43 43 43 43 46 48 48 45 39 36 35 32 29 31 33 33 32 31 31 31 32 34 35 33 30 29 28 27 28 28 28 28 28 24 21 19 19 18 21 27 26 25 25 27
41 41 43 42 44 44 45 48 48 47 42 36 34 36 34 31 30 29 32 32 30 30 31 34 36 37 33 29 25 22 20 24 25 27 27 26 26 22 21 16 12 20 27 28 28 18 26
41 42 43 43 44 43 46 49 48 45 41 36 32 34 31 29 28 29 31 31 31 31 31 33 33 33 32 28 25 23 23 25 22 24 26 26 25 22 22 20 20 23 26 27 19 17 27
41 43 43 44 42 44 49 48 47 44 41 35 31 33 31 28 28 29 29 30 31 31 30 32 31 32 30 26 26 26 24 25 24 25 25 25 23 23 22 20 12 25 27 23 24 28 28
43 43 43 44 42 45 49 48 48 45 40 35 30 32 31 29 28 29 30 30 30 30 32 31 30 31 31 28 28 27 24 25 24 20 26 22 24 22 23 21 25 27 28 29 29 28 29

GFSGBSN_sfc_30mbdewp_078.txt.gz
Dewpoint
43 43 43 43 42 42 44 42 45 45 44 46 47 49 53 53 58 57 55 53 49 48 48 46 46 48 41 36 31 36 44 45 46 44 37 35 35 33 29 27 31 31 31 32 30 33 36
44 44 44 44 44 43 43 42 41 46 44 44 44 45 52 53 59 56 54 51 48 47 48 46 46 47 39 33 30 39 41 44 41 42 38 37 33 35 33 32 31 30 32 32 33 34 36
43 42 43 44 43 43 43 43 43 41 43 44 44 44 49 51 58 56 53 50 48 46 46 46 46 45 40 36 32 38 36 39 39 38 36 37 37 36 34 31 33 36 34 33 32 32 36
43 42 42 42 42 42 43 40 40 42 39 43 43 44 46 50 56 53 52 51 48 47 45 46 47 43 36 33 37 39 38 37 38 39 39 38 39 37 36 35 34 33 33 31 30 31 32
42 42 42 42 42 42 45 45 43 42 41 43 43 43 44 48 55 52 51 49 47 46 45 47 43 40 29 36 36 38 39 36 39 39 40 40 40 37 35 33 31 33 28 29 27 28 30
41 38 41 40 44 44 45 44 42 43 40 40 43 43 44 47 52 51 49 47 46 47 46 44 41 34 32 27 34 38 41 40 38 38 37 37 37 33 32 32 23 29 27 27 25 28 30
38 41 40 42 44 44 44 42 42 43 43 43 44 43 44 47 51 50 47 47 38 37 40 32 32 29 30 34 41 37 40 40 39 36 30 34 31 28 27 34 35 32 31 30 27 33 31
40 40 39 40 42 43 44 43 43 42 41 42 44 43 42 46 51 48 44 41 36 36 31 37 36 34 35 34 33 37 41 36 33 28 33 31 28 29 34 36 34 32 31 33 37 38 33
40 39 39 40 41 43 43 43 42 42 42 42 44 44 43 44 50 47 41 40 43 40 30 33 35 33 33 35 34 35 38 36 33 29 30 30 29 35 37 33 31 31 32 33 33 37 37
40 37 39 40 41 42 43 43 43 42 42 43 44 44 44 44 46 44 41 42 43 38 28 27 33 33 37 38 35 39 41 37 34 30 32 32 36 35 36 32 35 31 35 35 33 32 30
41 36 36 38 40 42 41 43 43 42 43 43 43 44 43 44 44 41 39 43 41 35 18 25 31 37 38 35 38 38 42 38 34 33 34 32 34 34 33 33 37 33 37 34 34 30 33
36 36 38 39 42 43 43 42 43 42 42 43 43 43 44 43 45 44 44 42 36 26 17 21 31 32 35 37 36 37 38 40 39 35 36 35 37 37 35 36 38 38 34 34 34 31 28
38 38 39 42 42 43 44 44 42 42 43 44 44 43 43 44 40 46 44 38 27 22 22 25 28 31 32 31 35 36 35 33 32 29 29 32 35 36 36 36 39 37 31 27 25 27 26
39 39 41 43 44 43 43 42 43 43 44 45 45 45 43 45 46 45 42 32 23 23 21 26 27 29 29 33 32 33 32 31 34 33 29 28 27 33 38 37 35 33 31 24 19 24 26
39 40 44 43 44 43 42 43 43 44 44 46 48 47 43 46 47 44 36 27 25 24 23 26 28 26 27 31 32 33 33 32 34 35 31 30 29 38 38 37 35 31 28 27 28 30 22
39 41 41 43 43 43 43 44 44 43 47 45 42 41 42 47 46 41 33 29 27 23 27 28 24 25 24 28 28 31 32 35 36 37 36 33 29 34 34 34 32 29 27 25 28 21 20
39 40 41 42 44 43 44 44 44 44 46 44 40 35 43 47 44 37 29 30 31 28 30 26 25 25 25 27 28 28 32 36 36 34 34 32 29 30 32 32 31 28 25 25 24 24 18
39 41 41 43 43 44 44 44 42 47 47 44 40 31 42 46 32 34 31 31 32 32 34 31 30 26 26 28 30 30 31 34 34 34 31 32 30 29 29 32 33 34 28 23 20 18 20
39 41 41 43 44 45 45 44 44 47 47 43 36 36 45 43 29 31 34 33 32 31 31 30 30 30 29 30 28 32 33 35 35 34 31 29 28 27 26 27 30 29 27 25 23 23 19
40 41 42 43 44 45 45 44 48 47 46 43 37 30 35 37 38 29 34 30 28 34 33 32 32 31 29 29 32 32 32 34 34 35 34 30 27 25 21 25 29 27 27 27 24 22 18
41 41 42 42 44 44 44 44 48 48 48 43 38 33 36 30 34 34 34 30 28 29 34 32 30 28 27 27 29 31 32 31 32 33 31 30 28 27 26 27 29 29 29 28 25 23 20
41 42 41 42 43 44 44 45 47 47 48 42 35 35 37 33 35 33 33 28 29 32 32 30 28 29 28 26 27 28 30 30 31 31 30 30 27 26 25 24 27 27 29 29 27 26 24
41 42 42 43 43 44 45 45 47 48 47 41 41 40 35 32 32 34 33 31 31 32 33 33 30 29 29 31 32 33 33 32 32 31 28 28 28 27 24 22 22 21 23 27 29 29 26
42 41 42 43 43 44 45 45 48 48 45 43 40 37 31 30 30 33 33 32 32 33 31 33 33 31 33 33 32 31 30 30 30 29 29 27 26 26 25 22 18 20 27 27 26 28 29
42 42 42 43 44 44 44 48 49 46 42 39 37 36 32 30 32 34 32 32 32 33 33 34 34 34 33 31 29 27 27 27 28 28 27 27 24 22 21 20 18 21 26 26 25 24 28
41 42 43 44 45 44 48 49 48 42 38 36 34 37 35 31 30 29 32 32 31 31 33 34 36 37 34 29 25 22 20 24 25 27 28 28 26 23 21 15 10 20 26 28 29 18 27
42 43 43 44 43 45 49 49 46 44 36 35 33 35 34 31 29 29 31 31 32 32 32 33 33 33 33 29 25 23 23 26 21 23 25 26 26 23 23 20 20 23 27 28 19 18 27
42 43 44 44 43 47 48 47 46 42 37 33 32 34 33 30 29 29 30 31 32 32 31 33 32 32 31 27 26 26 23 25 24 25 25 25 23 23 23 21 13 26 27 23 25 27 28
42 43 44 44 43 49 48 46 44 42 39 36 32 32 32 31 29 30 30 31 31 31 33 32 31 32 32 29 28 27 24 25 24 19 27 23 25 21 23 20 25 27 28 29 29 28 29

GFSGBSN_sfc_30mbdewp_081.txt.gz
Dewpoint
45 45 44 44 44 44 44 42 43 44 43 44 46 45 46 49 52 54 58 56 53 49 49 47 46 48 44 37 33 39 45 45 45 40 34 30 29 28 26 23 23 24 26 27 28 30 27
45 45 45 44 44 44 42 43 44 42 42 43 41 45 42 48 48 52 57 55 50 48 49 47 46 47 40 33 30 32 36 38 39 39 34 34 30 30 29 27 25 24 24 25 27 27 30
43 44 43 42 44 42 43 44 46 44 41 42 42 44 44 44 46 51 56 51 50 48 48 47 46 44 39 34 30 33 36 36 36 36 34 34 33 31 30 28 29 28 27 29 27 30 29
43 42 42 43 39 43 44 45 46 45 44 43 41 42 42 44 47 51 52 51 50 47 46 46 46 41 35 34 32 30 29 30 34 36 36 36 35 33 32 32 31 28 28 28 27 29 31
42 41 41 40 40 43 45 45 45 45 44 43 42 43 44 44 47 54 51 51 49 47 46 47 43 40 31 36 30 30 35 33 33 35 36 35 35 34 33 31 28 28 24 25 26 29 29
44 42 40 41 40 41 42 44 45 44 44 43 44 44 45 44 49 52 51 48 47 46 45 43 40 37 30 26 32 33 35 36 36 35 35 37 36 31 30 28 21 24 29 28 26 28 29
41 44 42 40 40 39 41 43 45 44 44 43 42 43 45 44 46 52 48 45 38 38 40 34 33 26 24 31 36 35 38 39 38 35 30 32 30 29 27 28 27 30 30 30 33 28 26
40 43 43 39 39 40 41 43 43 44 44 43 44 44 45 44 45 50 47 39 37 39 32 36 32 30 32 33 32 35 39 35 32 28 29 29 28 26 30 29 31 31 30 31 33 31 30
37 42 42 37 39 40 42 44 43 44 44 44 44 44 45 44 46 48 41 40 44 42 31 34 33 31 31 34 32 33 38 33 31 26 25 26 27 30 35 34 33 32 30 31 32 34 33
36 38 38 40 40 42 44 44 44 43 43 43 44 44 44 44 45 45 41 41 45 41 32 30 32 32 35 35 34 37 39 38 33 29 30 30 30 35 35 32 32 29 33 34 34 31 28
36 39 40 40 42 44 44 43 44 44 44 43 43 44 44 44 40 40 42 42 45 38 23 29 31 36 36 33 37 38 42 38 33 32 34 32 33 35 34 33 38 34 35 34 34 33 33
36 39 40 42 44 43 44 43 44 43 43 44 44 44 44 43 42 41 44 44 40 29 22 23 31 32 33 34 36 37 39 39 38 36 36 34 36 36 36 35 37 38 36 36 35 35 28
36 39 41 44 43 43 43 43 43 43 43 44 44 44 44 43 38 43 43 40 28 25 23 25 27 31 32 31 35 36 33 34 32 29 29 30 34 36 37 35 37 38 33 28 27 27 25
36 40 41 43 43 44 43 43 44 44 46 46 45 45 43 41 42 45 41 32 24 26 20 25 28 30 32 31 32 33 31 31 33 31 30 29 28 34 38 37 33 36 30 27 23 25 26
38 40 42 43 44 43 44 44 44 45 47 47 47 45 42 43 44 44 36 26 28 25 24 26 28 27 29 30 32 33 33 31 33 36 31 30 30 38 38 36 35 31 28 28 26 23 22
39 40 42 43 43 44 45 44 43 47 44 43 41 42 40 43 46 42 32 30 29 24 26 27 24 27 23 28 30 31 29 34 35 37 37 35 30 36 34 34 33 30 27 27 28 22 20
39 42 43 43 44 45 45 44 47 47 47 45 37 36 44 47 44 36 29 31 27 28 28 26 24 24 25 26 27 28 32 36 35 33 34 32 32 29 32 31 30 29 24 23 23 23 17
41 42 42 43 44 45 45 47 47 47 46 43 36 30 44 43 32 33 32 32 28 30 31 29 28 25 25 27 28 29 32 35 34 34 30 31 30 28 28 31 32 32 24 22 21 20 20
41 42 43 43 45 46 46 47 48 47 47 42 35 34 42 43 30 32 33 30 29 28 30 30 28 29 28 28 28 30 32 33 34 33 31 28 27 28 26 28 29 27 25 24 23 24 19
42 42 42 44 45 45 45 46 47 48 48 44 38 30 36 37 38 31 28 24 27 33 32 32 30 29 28 29 30 30 31 33 33 34 33 31 27 27 24 27 29 26 25 23 25 22 15
43 41 43 44 43 44 45 45 47 48 48 43 38 34 36 32 31 34 30 25 26 29 32 31 28 26 26 27 28 29 29 30 31 32 31 30 28 27 25 27 28 27 26 24 23 21 19
43 42 42 44 43 44 45 45 47 48 47 41 36 34 35 33 35 33 29 24 26 30 31 27 26 26 26 27 27 27 26 26 29 28 29 30 28 28 24 24 26 26 27 26 26 24 22
43 42 43 43 45 45 45 46 48 49 46 40 41 40 34 32 34 30 26 26 29 31 32 30 28 29 31 32 31 31 31 30 30 29 28 28 29 29 24 23 23 20 23 26 28 28 26
43 42 44 44 45 44 45 48 49 47 46 41 41 36 28 29 31 33 30 30 31 31 31 33 32 30 33 32 32 31 30 29 28 28 28 27 27 29 26 24 18 20 26 27 26 28 29
42 43 44 44 44 46 49 49 48 45 42 39 37 36 30 31 32 31 31 31 32 33 34 34 34 33 33 32 28 27 25 27 28 29 27 26 23 22 22 17 17 20 24 25 25 24 28
43 43 44 45 45 49 49 48 43 42 38 36 36 38 34 31 32 30 32 31 29 30 32 33 34 36 35 28 24 21 20 23 23 24 28 28 26 23 19 16 8 20 26 28 28 18 27
43 43 44 44 45 49 48 46 44 41 38 36 35 37 36 34 30 31 31 32 33 32 31 33 33 33 34 26 22 21 21 25 19 20 22 24 24 22 20 18 19 23 27 28 19 21 27
43 43 45 44 46 49 47 46 43 40 37 36 35 35 36 32 30 31 31 32 33 33 29 33 32 32 29 25 24 23 21 23 22 23 22 23 22 20 22 20 16 25 28 24 26 28 28
42 44 44 44 46 48 46 45 43 42 39 37 34 33 34 33 31 31 31 32 32 32 33 33 32 32 31 26 26 25 22 24 22 16 26 21 24 21 22 21 25 27 28 29 29 28 29

GFSGBSN_sfc_30mbdewp_084.txt.gz
Dewpoint
45 44 45 46 45 45 45 44 45 46 46 44 43 42 46 44 45 45 48 53 57 53 50 51 47 49 46 39 34 46 47 48 46 38 33 30 27 27 26 25 24 24 26 25 26 27 27
45 45 44 45 44 44 42 45 46 46 47 45 44 44 42 44 44 45 50 52 56 51 50 49 47 48 43 32 32 39 40 40 38 39 34 32 30 30 28 27 27 27 26 26 26 26 27
45 44 44 43 43 41 42 44 46 46 46 45 45 44 42 44 45 46 49 54 52 50 51 49 47 45 39 34 30 33 34 33 36 36 34 33 32 30 30 29 29 29 27 29 28 26 26
40 42 45 45 40 43 40 42 45 46 46 45 44 44 44 45 46 46 52 53 50 49 50 48 47 42 35 35 33 31 31 29 31 34 34 35 35 34 32 31 31 29 30 26 26 27 28
40 39 44 45 44 41 39 41 43 44 46 45 45 44 44 45 45 51 54 52 50 48 47 47 44 40 34 35 27 28 27 29 33 33 35 34 33 32 32 31 29 29 25 25 26 26 27
41 39 42 43 45 42 38 41 42 44 45 45 44 44 45 45 45 46 53 51 48 47 46 44 40 37 35 26 31 32 33 33 33 34 33 35 35 33 32 30 21 23 25 30 29 30 32
42 39 38 42 42 41 37 40 44 44 44 44 44 44 45 45 45 48 48 46 40 39 42 37 35 27 27 31 33 33 36 38 37 33 31 34 32 28 28 30 29 28 27 27 29 30 34
43 41 37 41 41 39 42 44 44 43 44 44 44 44 45 44 45 45 49 40 41 43 37 39 34 29 30 32 33 34 38 34 33 29 30 31 30 28 28 34 33 32 29 29 31 33 34
44 41 37 41 41 43 43 44 44 45 44 44 45 44 44 45 45 48 44 43 46 44 37 36 35 30 30 33 31 35 37 33 30 29 29 30 27 34 34 34 32 32 29 31 30 34 35
44 38 37 41 44 43 43 45 45 44 44 45 45 44 44 45 43 44 42 45 46 44 32 31 32 31 34 34 33 37 38 37 34 28 34 33 33 30 31 34 34 28 33 32 32 31 26
41 37 39 42 42 43 44 44 44 43 44 44 44 45 44 45 42 38 43 46 45 40 20 31 31 35 34 34 37 38 41 38 32 32 35 29 33 34 34 35 36 32 36 33 35 33 32
39 38 40 41 43 43 44 44 43 43 44 44 44 43 45 43 44 42 45 44 41 28 20 25 32 31 33 33 35 38 38 39 38 36 36 35 35 36 34 35 37 37 36 35 34 33 25
38 40 40 42 43 44 43 44 44 44 44 46 46 44 43 42 38 46 45 38 26 22 25 25 27 31 30 31 34 34 33 33 32 29 29 32 35 37 37 35 37 37 34 28 25 26 24
39 40 42 44 44 44 44 46 47 47 47 46 47 45 44 42 44 43 40 32 22 23 23 26 29 31 29 31 32 35 33 32 34 32 31 29 28 35 38 35 36 34 34 27 22 24 25
40 42 42 43 44 44 45 47 45 46 47 47 48 45 43 42 45 43 35 24 27 26 25 27 29 28 29 30 31 32 32 34 33 37 30 29 30 38 38 38 34 32 32 33 32 28 27
40 42 42 43 44 45 48 49 46 46 44 45 43 40 41 43 45 41 32 29 27 26 27 28 25 26 24 27 30 32 33 34 34 38 38 35 30 36 34 38 35 31 29 27 31 25 22
41 42 43 43 45 46 46 48 47 47 44 41 38 37 42 45 42 36 28 30 28 29 30 27 24 26 26 28 34 31 32 35 36 37 37 34 34 29 32 31 30 28 24 24 24 23 20
43 42 43 43 46 46 46 46 48 49 46 40 36 32 44 42 33 33 31 34 28 29 31 29 27 29 29 28 31 31 32 35 34 34 30 30 31 27 27 30 31 32 25 22 22 20 23
43 43 43 44 46 46 46 46 48 48 47 39 35 35 41 43 30 31 35 29 32 29 30 29 28 28 29 29 31 31 31 33 34 33 31 30 27 28 26 28 30 26 24 26 25 27 20
43 44 43 45 45 46 46 46 48 48 48 43 37 31 37 39 39 34 27 27 30 33 31 30 29 29 29 29 30 29 31 32 33 33 33 33 28 27 25 27 29 26 25 24 25 21 22
43 44 43 45 45 46 46 46 47 49 48 44 38 34 36 32 33 31 26 28 29 28 30 29 27 26 26 27 28 28 29 32 31 31 31 31 26 27 25 27 28 27 26 25 23 20 21
42 44 44 44 45 45 46 47 48 49 47 42 36 35 37 33 34 28 27 28 28 30 30 26 27 29 30 28 28 26 27 28 29 28 29 30 26 28 23 25 25 24 26 27 27 25 23
42 44 44 45 45 46 47 48 49 48 47 40 41 40 34 33 32 25 26 28 31 31 31 33 31 32 31 31 30 30 29 28 28 28 28 29 29 30 22 23 23 22 23 26 28 28 27
42 44 44 45 46 48 49 49 48 45 44 41 41 39 32 30 31 28 29 32 33 32 32 33 32 31 32 33 33 30 29 29 28 27 27 26 27 30 23 25 19 21 25 26 26 28 29
43 43 44 45 46 50 50 48 43 42 40 39 39 39 33 30 30 29 29 32 33 34 33 34 33 33 34 33 29 27 26 27 27 28 28 27 25 23 22 17 17 21 25 26 26 26 28
42 43 44 45 48 48 46 44 43 40 39 39 38 39 39 31 30 31 31 31 29 31 32 33 34 36 35 30 24 21 21 21 22 23 27 28 26 24 21 16 11 21 27 28 28 22 28
43 43 45 45 47 49 48 46 44 42 39 39 37 38 39 32 31 31 31 32 34 32 32 33 33 33 34 29 23 23 21 24 21 19 21 24 24 22 20 20 20 26 27 28 19 22 27
43 43 45 44 47 48 45 44 44 42 39 39 35 36 37 32 31 32 32 32 33 34 31 34 33 33 32 26 24 23 22 23 23 22 22 23 23 21 21 20 16 27 27 23 26 28 29
43 44 45 44 46 48 46 46 46 45 41 39 36 37 37 34 31 32 32 32 32 32 33 34 33 32 33 30 27 25 23 23 21 18 25 19 24 23 22 23 25 27 29 30 29 29 29

GFSGBSN_sfc_30mbdewp_087.txt.gz
Dewpoint
44 45 43 45 45 44 44 42 45 46 48 47 46 46 46 44 43 43 44 47 50 54 55 53 50 49 47 42 39 49 49 50 46 40 35 31 29 28 27 27 28 27 29 31 30 28 28
43 42 41 43 46 47 42 42 41 45 47 47 47 46 44 44 44 45 45 47 50 53 53 52 49 49 44 36 46 48 47 50 44 39 35 32 30 31 29 27 28 29 30 29 29 28 27
45 44 42 41 45 46 45 43 40 43 46 46 47 46 45 44 45 45 47 51 51 55 53 50 49 46 41 37 36 44 39 41 39 39 35 34 34 31 31 28 30 31 29 30 28 29 29
45 45 43 40 44 45 46 44 41 42 45 45 46 45 45 45 45 45 46 54 55 52 51 50 49 44 37 38 33 33 34 33 33 34 35 35 35 34 32 32 30 28 29 26 26 28 30
48 48 46 40 39 42 43 42 39 42 44 44 44 45 45 45 45 46 50 52 53 52 50 48 45 43 35 34 30 31 30 29 29 32 34 34 34 32 32 29 28 30 23 24 24 29 30
51 50 44 43 39 43 42 41 43 44 45 45 45 45 45 45 45 49 52 51 51 49 46 45 43 38 36 29 29 27 30 33 33 34 32 34 34 32 31 29 20 22 25 25 26 28 29
45 47 46 41 39 44 44 44 43 44 43 45 45 45 45 45 45 45 45 45 40 39 44 40 37 34 33 33 33 32 36 36 36 32 29 35 30 27 29 30 29 27 26 25 27 28 30
44 44 43 38 42 44 44 43 46 45 45 45 45 45 45 44 45 45 45 41 42 43 36 42 40 33 33 33 33 35 39 36 34 29 30 31 28 30 30 29 29 31 30 28 29 30 34
45 43 39 39 42 43 43 43 44 44 45 45 45 45 45 44 45 46 43 44 47 47 36 38 39 33 30 33 33 36 38 36 32 29 29 29 28 31 31 31 31 31 30 29 28 30 35
41 40 39 42 42 42 43 44 43 43 44 44 45 45 45 44 42 43 42 46 45 47 32 33 34 31 33 33 35 38 39 36 34 30 33 32 34 32 32 32 33 29 35 34 33 31 24
40 40 40 41 43 44 44 45 46 45 44 44 44 44 45 44 41 39 43 47 47 42 19 32 32 35 34 35 36 38 40 36 31 31 34 26 32 32 32 34 36 32 36 35 33 31 31
40 40 42 43 44 45 46 48 47 47 46 45 45 44 44 43 43 44 46 44 41 27 19 30 34 32 32 35 36 39 39 39 38 35 35 33 36 35 35 36 36 37 37 35 35 32 26
40 42 44 44 45 46 50 48 47 47 47 46 46 44 43 43 39 45 43 38 23 20 29 27 30 32 30 32 34 34 34 33 31 29 29 31 34 37 37 34 37 37 32 26 24 23 24
42 42 44 44 45 47 49 47 45 46 47 47 47 45 43 44 46 43 40 29 19 27 23 27 29 31 31 33 32 35 32 30 34 33 30 28 26 35 38 35 34 35 33 26 21 22 25
42 43 44 44 46 46 48 48 45 47 47 47 45 44 42 43 44 42 32 23 25 27 26 28 31 30 29 31 30 32 31 33 34 36 30 29 29 38 38 38 36 33 31 35 31 29 27
43 44 44 45 45 45 47 48 44 45 46 44 41 40 41 45 44 39 29 28 29 27 30 32 27 28 25 29 29 31 32 34 35 38 37 35 29 34 36 37 36 33 32 27 30 24 22
41 44 45 45 46 47 47 48 46 42 42 41 38 34 42 44 42 35 27 30 33 36 35 33 26 27 26 31 32 33 31 34 36 36 38 36 34 30 34 30 28 30 26 26 25 25 21
42 44 44 45 47 47 48 47 48 46 42 39 37 30 43 44 33 33 31 33 35 33 32 29 29 30 29 32 33 32 32 35 37 34 33 34 30 28 26 30 31 31 27 24 22 20 23
42 44 44 46 47 47 47 47 48 49 48 39 35 36 41 41 27 30 35 33 33 31 31 30 28 29 30 32 29 31 32 33 34 33 31 30 27 26 26 25 28 27 25 25 27 24 23
42 44 44 46 47 47 47 47 48 49 49 41 37 30 35 38 38 33 30 29 30 33 31 30 29 29 29 30 31 30 31 32 33 32 33 33 27 26 23 26 29 26 26 26 24 20 23
42 44 44 45 46 47 48 48 49 49 48 42 36 32 35 31 34 35 30 31 30 30 31 28 27 28 27 28 28 28 30 31 32 31 31 30 25 25 25 28 26 26 27 27 25 23 21
43 44 44 45 46 47 49 49 49 48 48 40 34 34 36 33 34 29 29 31 30 31 31 31 31 31 30 29 28 26 28 28 28 29 29 31 23 28 22 25 22 21 25 27 27 26 25
43 43 44 45 48 50 50 49 45 43 46 39 40 39 34 33 31 28 30 32 31 31 32 33 32 31 30 30 31 32 29 28 28 28 27 28 28 29 18 24 23 18 22 26 28 28 27
42 42 45 46 49 49 47 44 43 42 43 41 40 39 32 29 30 30 32 33 33 33 31 33 32 31 32 34 33 31 29 29 28 28 28 26 26 29 20 25 11 20 25 26 25 28 29
42 44 45 46 48 47 46 46 44 42 42 39 38 38 35 29 30 30 32 33 33 33 33 32 32 33 35 34 29 27 26 27 26 28 27 28 25 21 18 16 17 20 25 26 25 26 28
42 43 45 45 49 48 46 45 45 42 43 39 37 38 38 29 30 31 31 32 30 31 31 32 34 36 35 32 24 20 19 22 21 21 26 27 26 23 21 15 11 20 26 28 28 22 27
42 43 45 45 49 48 45 46 46 44 42 38 35 37 37 31 31 32 31 31 34 33 31 32 33 32 34 28 23 22 20 23 21 19 17 23 23 21 21 18 20 25 27 28 16 18 27
42 43 45 45 48 46 46 48 47 46 44 37 34 36 36 31 31 31 32 32 33 34 31 33 32 32 31 26 25 23 23 23 22 22 21 20 21 21 21 19 10 27 27 21 25 28 28
42 43 45 45 46 49 47 49 47 45 43 40 34 38 37 32 31 32 31 32 32 32 32 34 32 33 33 31 27 26 23 23 21 13 25 16 21 22 20 20 25 27 28 29 29 28 29

GFSGBSN_sfc_30mbdewp_090.txt.gz
Dewpoint
46 46 45 45 42 43 47 47 45 44 43 46 47 48 47 46 45 44 45 45 45 47 50 56 52 50 47 41 37 46 45 46 46 41 35 31 30 31 29 28 28 27 28 31 30 29 28
49 48 48 48 44 41 46 46 47 44 43 45 46 48 47 46 45 44 45 45 47 48 50 56 52 50 44 32 45 48 50 45 41 37 34 31 30 31 29 28 28 30 31 30 31 30 30
51 51 52 50 46 43 40 44 45 44 40 45 45 45 46 46 45 45 46 46 47 49 51 55 52 46 41 36 47 49 50 46 42 38 35 36 35 30 32 28 31 31 27 28 27 27 27
52 52 48 48 45 41 42 44 45 43 42 44 45 45 46 46 45 45 48 51 53 52 54 52 50 43 34 39 43 41 37 36 38 36 35 36 35 33 32 32 29 26 28 24 26 28 28
47 46 45 44 43 40 43 45 45 44 44 45 46 46 45 46 45 46 48 54 55 55 52 52 46 41 35 35 33 34 33 32 30 32 34 34 34 31 31 27 26 29 22 24 25 27 28
46 44 44 43 39 41 44 44 43 44 45 44 45 46 46 46 45 47 47 51 51 52 49 46 43 37 37 31 30 31 29 31 33 32 33 33 34 30 30 28 16 20 23 25 25 28 27
43 41 40 40 41 43 43 43 44 44 45 45 45 45 46 45 45 46 44 43 39 39 44 39 38 37 36 33 33 34 36 36 35 32 28 35 29 26 27 29 27 25 26 26 27 28 28
41 40 40 41 42 42 43 44 44 43 45 45 45 45 45 45 45 46 44 37 41 42 34 42 38 33 32 33 32 36 38 34 34 29 29 31 27 29 29 30 30 29 28 26 29 29 32
40 40 42 42 44 45 47 47 47 46 46 44 46 46 45 45 45 45 42 41 47 46 36 37 39 31 32 34 34 36 38 36 33 30 29 27 26 31 30 30 29 29 28 27 29 32 32
40 42 43 45 45 47 48 49 48 48 46 45 44 45 45 44 41 43 40 46 47 45 31 32 35 34 32 33 35 38 38 36 33 29 30 30 32 31 30 30 31 28 31 34 33 31 24
43 42 44 44 45 46 48 48 48 46 47 46 45 45 45 43 40 39 41 47 47 42 18 33 34 36 34 35 37 38 40 35 32 31 33 25 31 31 32 32 35 31 36 36 34 30 30
44 44 44 45 46 48 49 47 46 46 48 46 45 44 44 43 42 43 46 45 42 25 17 30 34 32 33 35 37 39 37 39 37 34 34 31 35 35 33 36 36 35 35 36 34 32 23
44 44 44 45 46 48 48 46 46 47 45 46 44 42 42 44 38 45 43 37 22 18 31 28 31 31 32 33 34 35 35 31 30 27 25 29 32 36 37 34 37 36 32 25 23 23 23
44 45 45 45 46 48 47 48 47 46 46 46 44 44 45 45 45 43 39 27 17 27 24 30 31 30 29 33 33 33 32 30 33 33 30 28 24 35 38 35 34 35 32 27 21 21 24
43 45 45 45 46 47 45 47 47 47 46 45 44 42 42 44 44 41 32 24 24 27 28 29 33 30 30 32 29 33 31 31 33 35 29 29 28 36 38 38 38 34 31 35 30 29 25
44 44 45 46 46 47 47 44 45 44 44 42 39 39 40 45 44 38 29 27 28 31 31 32 27 28 26 29 28 31 31 33 35 37 36 35 29 34 34 38 37 36 34 29 30 24 21
43 44 45 46 46 47 47 47 44 44 44 42 37 34 39 44 42 34 28 30 33 37 34 32 28 27 26 31 31 31 30 33 36 37 37 36 33 28 33 31 28 31 30 29 26 28 24
41 44 44 46 47 48 48 48 49 49 40 38 36 28 40 43 31 33 31 33 36 35 36 34 30 29 30 33 33 32 31 34 37 36 33 35 30 27 27 29 31 31 29 25 21 20 23
42 45 44 46 48 48 48 48 49 50 46 38 35 35 39 41 28 30 33 35 35 31 31 30 28 29 32 32 29 32 32 34 35 34 31 30 27 25 24 20 27 27 27 27 26 24 23
42 44 44 47 48 49 49 49 49 49 49 39 35 27 33 37 37 33 31 28 30 32 30 30 30 30 29 30 31 30 31 32 33 32 33 32 27 26 21 26 28 25 27 27 23 20 23
43 43 46 47 49 50 49 49 49 48 48 39 34 31 34 30 32 34 34 31 30 30 31 32 29 30 28 28 28 28 29 30 31 32 31 29 23 25 25 28 25 25 26 27 24 24 20
43 43 46 48 50 49 47 46 45 46 46 39 32 32 36 33 33 29 30 31 30 31 31 31 30 31 30 28 29 26 28 28 28 29 28 30 23 28 22 24 23 20 25 27 27 27 27
43 44 46 48 46 46 47 46 45 45 43 38 40 39 34 31 28 30 31 32 31 31 32 33 32 30 29 30 32 32 32 29 28 28 27 28 27 28 15 23 24 15 21 26 27 28 27
43 44 46 48 48 48 47 46 44 45 42 40 39 38 32 28 29 30 32 33 32 33 31 32 32 29 31 35 34 32 30 29 28 28 28 26 26 27 19 22 7 16 25 26 26 28 29
43 44 45 47 48 46 47 47 44 45 41 37 37 37 33 29 30 31 32 32 32 32 32 31 32 33 35 32 27 25 24 25 25 26 27 28 26 20 18 15 15 20 23 25 25 25 28
43 44 45 46 49 47 47 48 47 45 43 37 36 38 36 29 29 31 31 32 29 30 29 31 34 35 34 31 23 19 16 21 19 20 23 26 26 23 20 13 7 17 26 28 27 17 27
42 44 45 45 48 48 47 47 46 46 43 37 35 37 34 30 31 31 31 31 33 32 30 32 33 32 33 26 22 21 20 23 18 16 16 21 22 20 20 17 18 23 27 28 15 10 27
42 44 45 45 46 48 48 48 45 44 43 36 35 37 35 31 31 31 32 31 33 33 30 32 32 31 30 25 25 23 23 22 21 21 20 16 18 21 21 19 6 27 27 20 19 28 28
41 43 44 45 45 47 49 48 46 42 40 39 34 37 36 32 31 32 31 32 32 32 33 33 32 33 33 30 27 26 23 23 21 12 25 19 20 20 20 16 22 28 25 28 27 27 29

GFSGBSN_sfc_30mbdewp_093.txt.gz
Dewpoint
50 52 52 52 51 48 46 45 45 46 47 45 44 46 47 48 48 47 46 45 46 46 46 50 54 53 47 40 34 45 48 48 46 42 35 31 32 32 29 29 28 27 29 31 31 31 30
48 47 48 48 49 46 44 42 45 44 44 44 43 46 46 47 47 46 46 46 46 46 47 49 55 50 42 35 42 45 46 44 40 36 32 31 30 31 29 28 27 29 31 29 30 29 30
48 43 44 44 43 42 42 43 45 46 45 45 43 45 45 46 46 46 45 45 47 48 47 49 54 47 42 36 48 50 46 42 40 37 35 35 34 30 31 28 31 30 25 27 25 25 26
47 41 41 43 41 40 43 44 44 45 45 44 45 46 46 46 46 45 46 47 50 52 50 50 51 45 38 42 49 48 44 43 39 37 36 36 34 33 31 31 29 26 27 22 24 28 27
44 40 41 40 41 41 42 44 44 44 44 45 44 46 45 47 46 46 47 46 53 54 52 53 46 40 36 44 43 37 36 33 32 34 34 35 33 31 31 26 23 26 18 23 25 27 28
42 40 41 41 42 44 44 44 45 45 44 45 44 44 46 47 45 46 46 45 49 48 47 47 44 37 37 35 33 32 32 32 31 33 34 34 34 30 30 26 8 16 21 23 24 26 26
41 41 42 44 45 45 46 47 47 47 46 45 45 46 46 46 45 46 41 40 39 39 42 38 37 39 35 34 33 32 36 36 34 32 28 34 28 23 25 27 25 22 23 24 26 28 28
42 43 44 45 45 45 45 47 48 48 46 47 45 45 46 45 45 46 43 36 39 42 36 41 40 37 32 33 32 36 36 32 32 28 30 31 26 28 29 28 28 28 27 25 27 29 32
44 44 45 46 46 46 47 48 49 48 48 45 45 45 45 45 46 44 41 39 47 46 34 37 37 35 32 33 33 35 35 36 32 30 28 25 24 31 29 29 29 28 27 27 27 31 34
45 45 45 46 46 48 48 46 46 47 48 46 45 44 45 44 41 43 41 46 47 46 30 30 34 32 32 36 35 39 38 35 33 29 30 29 30 29 30 30 29 27 29 30 30 31 25
45 46 46 46 48 47 48 46 47 46 46 45 45 44 45 41 40 39 44 47 47 43 17 33 35 38 33 36 37 38 40 35 32 32 31 26 30 31 31 31 32 30 33 34 34 32 29
44 46 46 47 47 49 47 46 46 46 46 46 45 45 43 40 41 43 46 46 44 23 18 30 33 32 34 35 38 38 37 38 37 33 33 32 33 34 33 34 34 34 34 34 34 31 24
44 46 46 47 46 48 46 45 46 46 45 43 43 45 43 44 39 45 43 38 21 18 31 29 31 32 32 33 34 34 34 31 29 26 24 29 31 33 36 34 36 35 32 24 23 23 20
44 47 46 47 47 46 46 45 46 46 45 45 45 44 45 45 43 41 37 25 19 27 28 32 29 31 29 32 32 33 32 30 32 33 30 28 23 34 37 34 34 34 32 26 20 21 24
43 47 46 47 47 45 45 44 44 45 44 43 42 41 41 44 44 40 29 23 24 28 29 29 31 28 28 32 31 32 31 31 34 33 30 29 27 34 37 37 37 35 31 36 29 30 25
43 46 47 47 47 46 44 42 43 43 43 42 36 38 37 43 44 37 29 27 30 33 33 33 26 27 26 30 27 30 29 32 34 36 36 34 29 32 34 38 38 37 38 29 30 23 21
42 45 47 48 48 48 47 49 47 46 43 42 36 31 35 42 41 35 28 31 34 37 35 32 28 26 28 29 30 30 30 32 35 38 36 35 33 27 33 32 29 33 32 33 30 30 24
44 44 47 48 49 49 48 49 50 50 42 39 35 28 35 42 31 33 32 35 36 34 36 34 31 29 29 32 31 32 31 32 36 37 34 35 31 26 26 29 31 31 28 28 22 20 23
43 44 47 49 50 49 49 49 50 49 42 37 33 33 37 38 28 30 32 34 35 32 31 30 28 29 33 32 30 32 32 34 37 34 32 31 27 25 18 19 27 27 27 28 26 24 22
43 45 47 50 51 49 49 49 49 49 48 38 32 26 32 36 34 33 31 30 30 32 31 30 31 30 30 30 31 30 30 32 33 32 33 32 27 25 20 25 27 24 25 28 23 20 22
43 45 48 48 46 46 46 47 46 46 48 38 33 30 34 29 31 32 33 31 30 30 32 32 30 30 28 27 27 27 28 29 31 31 32 29 23 25 25 26 26 23 25 27 25 25 20
43 45 48 47 47 46 45 45 47 47 44 38 32 32 34 31 32 29 31 31 30 31 31 30 30 30 29 28 29 26 28 27 27 28 29 30 22 28 22 24 24 23 21 26 27 26 27
43 44 47 48 48 46 45 43 45 46 41 38 39 39 34 30 29 29 32 32 31 31 32 33 32 29 28 30 32 32 32 31 28 27 26 28 26 26 14 23 23 16 19 25 27 28 27
43 44 46 48 48 47 47 45 45 42 42 39 38 37 30 28 30 31 33 33 32 33 31 31 31 29 31 35 34 33 31 29 29 28 28 26 26 26 19 18 9 12 25 25 26 28 29
42 44 45 47 49 48 48 47 44 41 40 37 37 37 32 28 30 30 31 32 30 31 31 31 32 33 35 31 25 23 23 23 23 25 27 27 25 21 16 16 13 17 21 24 25 23 28
40 44 45 46 48 49 48 49 46 43 40 36 36 38 34 29 27 31 31 32 30 30 26 29 33 35 33 28 22 18 13 20 16 19 25 26 26 23 20 12 1 14 25 28 25 11 27
40 43 44 46 46 48 48 49 49 45 41 36 36 38 33 30 31 31 31 30 33 32 29 31 33 33 32 26 22 20 19 23 16 16 16 18 22 19 21 18 15 20 27 27 10 4 27
40 43 44 46 46 47 48 48 48 48 42 37 36 37 34 31 31 32 32 31 33 33 30 32 31 31 29 25 24 23 22 22 22 19 20 15 15 18 20 18 4 27 27 18 16 27 28
40 42 44 45 46 46 48 48 47 48 45 39 34 37 35 33 31 32 32 32 32 33 33 33 32 32 32 29 27 26 24 23 21 13 21 18 19 16 21 15 20 28 22 27 27 27 28

GFSGBSN_sfc_30mbdewp_099.txt.gz
Dewpoint
49 47 43 43 43 42 43 41 44 45 45 45 45 45 45 44 46 47 48 50 50 48 46 44 50 53 46 39 38 42 52 50 42 36 35 35 33 31 28 28 27 27 29 30 31 29 29
42 43 43 44 42 44 44 45 45 45 45 45 45 44 44 44 46 47 47 48 49 49 47 46 47 53 46 40 48 47 43 40 36 33 32 31 30 30 29 28 24 29 29 29 27 27 27
43 44 43 46 46 47 48 48 47 46 46 46 45 45 45 45 46 46 47 47 48 47 47 48 48 50 45 41 50 45 40 38 37 35 33 34 32 28 29 27 30 29 21 23 23 25 26
44 45 47 48 48 48 48 48 48 47 47 47 46 45 44 46 45 46 47 47 47 48 48 48 49 48 42 50 49 42 38 36 37 37 35 35 34 32 30 30 25 24 22 9 18 26 27
44 47 48 48 48 48 47 47 47 47 47 48 48 45 45 46 45 47 45 45 45 49 50 48 49 45 40 51 43 38 37 35 36 37 37 36 34 31 28 22 15 20 9 19 21 26 28
45 47 48 48 46 46 47 47 47 49 49 48 48 46 45 45 47 44 43 45 48 48 47 47 47 39 43 43 37 34 36 35 35 34 33 33 31 28 27 20 0 15 18 22 22 24 27
46 48 49 47 46 47 47 47 47 47 47 47 46 45 45 47 44 42 40 39 37 38 41 39 39 39 42 43 38 35 36 34 33 31 28 33 22 16 22 24 20 23 24 24 25 26 27
46 48 48 47 47 47 47 47 46 46 46 45 45 45 45 46 43 42 39 36 36 39 33 41 42 42 42 38 34 35 36 32 30 28 31 25 21 27 27 28 27 27 25 24 26 28 29
46 48 47 46 46 46 46 46 46 46 45 45 45 45 46 46 43 42 40 40 45 45 32 34 40 39 39 34 31 33 35 33 29 28 26 20 27 29 28 28 27 27 26 25 26 29 32
46 48 46 47 46 46 45 45 45 45 45 45 45 44 45 46 41 43 41 46 47 46 28 29 34 37 39 37 33 39 39 34 32 26 28 27 29 29 29 29 28 24 27 28 29 30 26
46 48 48 47 47 45 45 44 44 45 45 45 44 44 45 43 41 40 42 47 47 43 15 32 35 38 38 35 34 36 39 34 31 31 28 25 28 31 29 29 30 27 29 30 31 31 30
46 48 49 45 45 45 45 45 45 46 46 47 46 46 43 41 42 44 46 46 43 21 17 29 36 36 34 36 36 37 36 37 36 31 32 29 32 32 30 31 32 31 32 33 33 31 24
45 48 49 48 44 44 45 44 43 43 44 44 45 45 43 44 39 44 42 36 20 18 31 28 32 34 32 32 33 33 32 29 27 24 23 27 31 33 34 32 35 34 31 23 20 22 19
45 47 49 49 47 44 43 43 44 46 45 46 43 42 43 43 43 42 36 26 19 27 27 32 32 31 29 31 31 32 31 28 30 31 28 25 22 30 35 34 34 34 33 24 18 19 23
45 46 49 49 48 48 46 46 48 48 47 45 41 38 37 38 42 39 30 23 24 27 29 30 30 27 30 31 30 31 31 30 32 32 29 27 27 33 36 36 36 34 30 35 29 28 26
45 48 50 50 49 49 48 49 49 49 50 44 35 34 34 39 41 35 28 27 30 34 32 31 25 26 25 28 27 29 28 31 35 34 35 33 28 31 35 37 37 35 36 29 30 21 20
45 48 49 49 49 49 49 49 49 49 49 42 34 31 35 40 39 34 27 31 33 36 35 30 27 27 28 27 28 29 29 31 34 37 36 35 32 27 33 34 30 34 31 31 32 29 23
45 48 47 47 48 48 48 48 48 49 47 37 33 30 36 39 31 33 32 34 35 33 35 33 30 29 30 30 29 31 30 31 35 37 33 34 31 27 26 30 30 31 28 27 24 21 24
45 47 48 48 49 49 49 48 48 48 45 35 30 30 35 36 28 28 30 33 34 31 31 30 29 32 33 32 29 32 32 33 36 36 33 34 28 22 15 20 27 26 27 27 27 25 22
44 46 48 49 49 49 49 49 48 49 46 34 31 25 31 33 33 31 29 30 29 33 32 31 31 30 31 29 31 29 29 32 36 36 35 33 27 24 17 20 27 25 24 26 26 21 21
43 46 47 48 48 48 49 50 49 49 45 35 33 31 33 28 29 30 31 31 30 30 32 32 29 30 29 26 26 26 28 27 32 31 33 30 25 25 25 25 26 26 24 23 24 23 19
43 45 46 47 48 47 48 49 49 47 45 37 32 31 31 30 30 30 31 30 30 31 31 29 28 30 29 27 28 26 29 26 26 27 29 29 25 27 23 25 24 23 23 23 26 27 26
43 43 46 47 48 48 48 49 49 46 43 36 37 37 30 30 30 29 30 30 30 32 31 32 31 29 27 29 31 31 31 31 30 27 26 27 25 23 15 19 20 15 18 23 26 27 25
43 42 45 46 47 49 48 49 49 46 41 38 37 34 27 26 29 30 31 32 29 31 30 30 31 29 30 35 34 33 33 32 31 28 28 26 25 24 18 16 -1 9 23 25 24 25 28
44 42 44 45 47 48 49 48 48 47 43 37 37 34 29 24 29 29 30 30 30 30 30 31 31 33 34 29 24 20 20 21 25 26 27 27 25 21 15 14 10 11 16 21 21 15 25
45 42 43 45 46 47 48 48 49 47 43 36 37 37 32 25 23 29 30 31 28 28 27 27 32 34 31 26 22 13 7 16 14 17 27 26 26 23 19 10 -4 3 22 27 24 9 20
46 43 42 44 45 46 47 48 49 48 43 38 36 37 33 28 29 31 29 28 32 31 28 28 31 32 30 24 20 17 14 22 15 14 14 17 21 20 20 16 13 16 26 26 9 -1 23
47 44 42 43 44 46 46 49 49 47 43 37 36 37 35 30 30 31 32 31 32 32 26 27 27 28 27 22 22 21 21 20 21 20 16 12 12 15 19 17 1 23 26 16 13 23 26
48 46 42 42 44 45 46 48 49 47 43 39 34 37 35 33 31 32 33 33 33 33 33 32 28 30 30 25 25 25 23 22 18 11 19 13 16 10 16 9 16 26 22 24 21 24 26

GFSGBSN_sfc_30mbdewp_102.txt.gz
Dewpoint
43 45 46 48 48 48 48 47 46 46 45 46 45 45 45 45 45 47 47 48 49 50 49 45 49 53 47 43 42 43 51 48 42 38 37 35 29 29 26 28 29 25 29 30 30 30 27
44 47 48 49 49 49 49 49 48 48 48 47 46 45 45 44 45 46 47 48 48 49 50 47 49 51 46 40 48 50 43 38 36 36 34 34 32 30 27 26 23 27 27 25 25 24 23
46 48 49 49 47 47 47 47 48 48 48 47 47 46 46 46 46 46 46 46 46 47 48 48 49 51 46 43 48 43 41 37 36 35 33 33 31 26 27 26 29 28 20 21 23 24 24
48 49 48 46 47 48 47 48 48 48 48 48 50 48 45 46 45 46 47 47 47 47 48 47 50 50 43 51 48 38 36 36 36 36 35 35 32 31 29 29 24 22 21 14 19 26 28
49 49 46 47 47 47 47 48 47 48 48 47 50 47 45 46 45 46 45 45 45 48 48 48 48 46 41 52 41 36 35 35 36 36 35 34 33 30 28 23 22 19 19 18 20 27 27
49 48 46 47 47 47 46 46 47 47 47 46 46 46 45 46 46 44 45 49 48 49 47 41 46 41 45 41 36 36 37 36 34 33 32 32 32 26 25 19 17 19 22 22 22 24 26
49 46 47 46 46 46 45 46 46 46 46 46 45 46 46 44 43 43 42 42 39 38 40 35 36 41 40 40 35 34 35 33 31 31 28 32 23 21 23 22 23 25 24 25 25 27 28
48 47 46 46 45 44 43 44 45 45 45 45 45 45 45 43 42 42 40 38 38 40 33 41 41 41 42 37 34 33 35 30 29 28 29 26 23 25 27 27 27 27 26 26 26 28 29
48 48 45 47 46 45 45 44 44 45 45 45 44 46 44 43 44 43 42 42 45 43 33 35 39 39 40 35 31 32 34 32 28 26 24 24 27 29 28 29 27 27 25 26 28 29 31
48 48 46 46 47 44 45 45 45 46 46 45 45 45 45 46 42 44 41 47 47 46 30 29 34 37 38 34 31 39 39 33 31 26 27 27 28 28 28 29 28 26 27 28 29 29 25
47 48 47 44 45 45 45 44 44 45 46 46 46 43 46 44 42 40 43 47 47 44 16 32 35 41 38 33 30 34 39 34 30 29 30 28 30 30 29 29 29 28 29 29 30 29 30
47 48 49 47 45 45 45 44 45 46 46 45 45 45 42 42 43 43 46 46 42 26 18 30 36 34 32 34 34 35 35 36 35 31 31 29 31 32 30 30 30 31 31 32 31 30 25
46 48 49 49 47 44 44 44 46 47 47 46 44 45 43 43 39 44 43 38 28 21 31 30 32 32 31 31 32 32 31 29 29 27 28 29 31 33 33 32 34 33 30 25 23 23 22
46 48 50 50 49 48 48 48 49 49 49 50 45 43 43 41 43 43 39 31 20 27 29 35 31 30 28 30 31 31 30 28 31 30 29 28 27 31 34 33 32 33 33 27 20 21 23
47 50 49 50 49 49 49 49 49 50 50 50 41 40 39 39 43 41 34 26 26 28 30 29 29 27 28 30 30 31 30 31 32 32 29 29 29 33 35 36 36 35 30 35 29 27 26
47 49 48 48 48 48 48 48 49 50 50 45 38 37 37 41 42 38 32 28 29 33 31 30 24 26 25 27 27 28 28 31 33 33 34 32 29 31 36 37 36 34 35 29 30 22 20
46 48 48 48 48 49 48 47 48 49 50 41 36 37 39 41 43 37 30 31 31 34 34 30 27 26 27 27 28 29 28 31 34 35 35 34 30 28 33 34 31 34 31 30 30 28 23
44 47 48 49 49 49 49 49 48 50 46 38 36 33 39 43 34 36 33 34 35 33 35 32 30 30 29 30 29 30 29 31 35 37 33 34 31 28 27 30 30 31 28 25 24 24 24
44 46 48 49 49 49 49 49 48 50 44 37 34 35 41 41 31 32 32 33 33 32 32 31 31 33 33 31 28 31 31 33 36 36 32 34 30 25 20 24 28 27 28 26 27 26 24
44 44 46 48 49 49 49 49 48 48 46 37 35 28 36 37 34 32 30 31 31 33 32 31 31 31 31 29 31 29 30 33 36 36 36 34 29 25 18 19 26 25 25 26 27 25 21
45 44 46 46 48 48 48 49 48 46 46 38 35 32 33 31 30 32 31 31 30 30 32 31 29 30 29 26 26 26 28 28 34 34 34 32 28 26 25 25 26 26 25 24 25 24 21
46 44 45 46 48 48 48 49 49 45 43 39 33 33 33 31 30 31 30 30 30 31 31 29 28 29 29 26 27 25 28 26 26 28 30 31 29 26 24 24 26 24 24 23 23 24 26
46 44 44 47 48 49 49 49 48 45 41 38 39 37 31 31 30 28 29 30 30 32 32 32 31 29 27 29 32 32 32 31 30 28 27 28 27 25 20 19 18 16 18 21 22 26 25
46 44 43 45 47 48 49 49 49 46 41 39 38 35 28 25 29 29 31 31 29 31 31 31 32 30 31 35 34 33 33 32 32 31 29 26 26 26 24 19 8 11 23 24 23 25 27
47 44 44 43 46 47 48 49 49 46 42 39 39 37 31 25 29 29 30 30 30 30 30 31 31 33 34 30 26 21 20 22 25 28 29 28 26 23 19 15 10 12 15 21 20 14 22
48 45 44 43 45 47 47 49 49 47 42 38 38 38 34 27 23 29 30 31 27 28 28 27 32 35 31 27 23 16 8 15 15 18 26 27 27 24 20 12 -3 2 21 26 25 12 20
48 46 44 43 43 46 47 49 50 47 43 39 37 38 35 31 30 31 29 28 32 31 27 28 30 32 30 25 19 17 16 21 14 14 18 22 23 22 21 17 13 16 26 26 11 1 19
48 48 45 43 43 44 46 48 49 47 43 39 37 38 37 33 32 32 32 32 33 32 27 28 29 29 28 23 21 20 21 19 21 20 16 14 15 17 20 18 7 23 27 17 16 17 26
49 49 47 44 43 44 45 46 48 47 43 39 36 37 36 34 33 33 33 33 33 34 33 33 28 30 30 25 25 25 22 23 18 10 19 14 14 11 16 13 18 26 24 25 21 24 27

GFSGBSN_sfc_30mbdewp_105.txt.gz
Dewpoint
49 49 48 47 48 48 48 47 47 49 48 46 47 46 46 46 45 46 47 48 48 49 49 45 49 53 49 45 41 46 51 50 41 37 33 28 23 23 21 25 25 21 26 28 27 27 24
49 48 47 47 48 47 47 47 47 48 48 49 47 46 45 44 44 46 46 48 49 49 49 49 50 52 47 42 47 50 51 43 37 36 34 30 27 28 25 25 23 26 25 22 22 21 21
49 46 46 48 47 47 47 48 48 48 48 48 48 47 46 46 46 46 46 45 45 48 47 48 48 49 46 42 50 47 42 36 37 35 32 31 29 25 26 24 26 24 19 21 21 22 22
48 47 46 46 46 47 47 47 48 49 48 48 49 47 46 46 45 45 46 47 47 45 46 48 49 47 42 52 53 49 38 36 36 35 33 31 28 28 26 26 22 21 20 16 19 24 27
48 47 46 46 44 46 46 47 46 47 48 48 49 46 45 46 45 47 45 45 45 47 48 48 45 45 42 50 45 44 35 34 34 34 32 31 30 26 26 23 24 18 25 16 19 25 26
49 46 47 46 43 44 44 45 45 46 46 46 46 46 47 46 45 45 48 48 47 47 46 43 46 41 45 40 41 34 35 33 32 32 28 28 28 22 21 20 23 21 21 20 19 24 25
49 45 47 45 44 44 44 45 45 45 45 45 47 45 44 43 43 43 45 45 39 38 40 38 37 40 40 43 40 35 34 31 29 26 25 30 25 22 21 20 21 22 20 21 24 26 28
49 48 45 46 45 45 45 44 44 44 44 45 46 45 44 44 43 42 41 38 40 39 34 38 42 41 43 43 37 34 32 26 25 25 26 25 24 23 24 25 24 24 23 26 26 27 28
48 49 45 45 45 46 45 45 46 46 46 46 46 45 44 45 44 43 41 41 45 42 33 34 39 39 41 39 34 32 31 28 24 23 21 25 24 27 26 28 26 25 23 24 28 29 30
48 49 48 45 45 46 45 46 46 46 46 46 45 46 45 45 42 43 42 46 47 47 31 30 34 37 39 36 31 37 37 31 27 23 24 25 27 26 26 29 27 26 26 27 29 29 26
47 48 50 48 46 45 45 45 46 48 46 45 46 44 45 43 41 40 42 46 47 44 19 32 35 42 39 35 30 34 38 33 26 26 30 30 27 28 28 30 28 28 29 29 30 29 29
48 50 50 50 49 48 48 48 48 49 49 48 45 45 44 42 42 43 46 45 41 31 19 30 37 36 33 31 33 34 33 35 33 29 29 28 31 31 30 30 30 30 31 31 30 28 25
49 49 49 49 49 48 48 49 49 49 49 50 49 44 42 42 39 44 43 39 31 22 32 30 32 33 28 27 30 30 29 29 29 29 30 30 31 32 32 31 33 32 31 27 25 25 24
49 48 48 48 48 48 47 47 48 49 50 51 47 44 42 40 42 44 40 34 22 28 29 35 28 27 26 28 29 30 29 28 30 29 30 29 27 31 33 33 31 32 32 28 21 22 24
48 49 48 48 48 48 48 48 48 49 51 49 41 40 40 41 43 43 35 28 27 28 28 27 27 25 27 28 28 30 29 29 31 31 28 29 30 32 34 35 35 33 32 34 29 26 25
47 49 48 49 49 48 48 48 49 51 50 44 37 38 39 42 43 40 32 28 29 30 29 28 23 24 23 26 27 27 28 31 32 32 33 31 29 31 35 36 36 32 34 29 30 22 21
45 47 48 48 49 48 48 49 48 50 46 41 38 34 41 43 43 35 31 29 31 34 33 27 24 24 25 26 27 27 28 30 34 33 34 33 30 29 33 32 29 32 29 30 28 27 24
44 46 48 49 49 48 48 49 49 49 45 42 38 36 40 44 37 35 34 34 34 33 34 31 30 29 28 29 29 28 28 31 35 36 31 33 30 27 27 31 32 31 28 24 23 24 24
45 45 46 48 49 49 48 48 47 47 47 39 33 36 40 40 34 32 32 32 32 32 32 31 31 32 32 30 27 28 30 33 34 35 31 32 29 26 22 26 28 28 27 26 25 26 24
46 44 46 47 48 49 49 49 48 46 47 40 36 32 37 36 36 31 30 30 31 33 31 31 31 31 29 27 29 28 29 33 35 35 35 34 29 25 21 20 24 22 24 25 25 25 21
47 45 45 47 47 48 49 49 48 46 44 41 36 34 35 33 30 31 31 31 30 30 31 30 28 29 28 23 24 25 27 29 34 35 34 32 27 27 26 23 22 22 23 23 24 25 20
47 46 44 46 47 48 49 49 49 46 44 39 33 33 33 30 31 28 28 29 30 31 30 27 26 27 26 24 26 24 26 24 23 29 29 31 28 26 25 23 23 22 22 22 23 22 23
47 46 45 45 47 48 49 49 49 46 42 38 39 36 32 30 29 26 26 28 29 32 32 31 30 28 26 28 31 30 31 30 29 26 25 26 27 26 21 19 18 13 15 19 21 21 21
48 46 45 44 46 47 48 49 50 46 43 39 39 36 30 23 27 27 29 30 28 30 30 30 31 29 31 34 33 33 32 31 30 30 29 26 26 26 25 21 13 13 21 23 19 20 21
49 47 45 45 44 47 47 49 49 47 42 40 40 37 31 23 26 27 29 29 29 29 30 31 30 32 34 31 24 19 21 23 26 29 29 29 26 23 22 15 12 9 15 20 21 14 20
48 48 46 45 44 45 47 48 50 47 43 40 39 40 35 27 24 28 27 30 25 23 25 27 31 34 33 26 21 15 6 12 13 19 25 28 28 25 19 14 1 7 18 23 23 12 17
48 48 47 44 44 44 46 47 50 48 44 40 39 40 38 31 29 29 25 27 31 29 24 27 28 32 32 23 17 13 13 20 12 13 21 23 23 23 21 19 16 16 22 26 12 9 18
50 49 48 46 44 44 44 46 49 48 45 40 39 39 39 34 32 32 32 31 32 31 22 29 28 30 29 23 18 16 17 17 18 15 14 14 16 18 18 17 13 24 26 15 17 20 24
51 50 49 48 44 44 44 45 47 48 44 39 37 38 36 36 35 34 33 34 33 32 31 33 30 28 28 23 22 21 19 19 15 6 17 14 11 10 14 15 19 25 20 23 23 23 25

GFSGBSN_sfc_30mbdewp_108.txt.gz
Dewpoint
47 45 48 48 48 47 47 47 48 47 48 49 47 46 46 46 46 47 47 47 49 49 49 46 49 53 50 46 42 44 52 50 42 39 32 28 26 23 23 26 26 22 26 27 27 27 24
47 46 46 47 48 47 46 48 49 49 49 49 47 46 45 45 45 46 48 49 49 49 49 46 50 53 47 42 49 50 51 46 37 36 32 29 24 27 25 24 24 26 27 23 22 22 21
47 48 47 45 44 47 47 46 47 49 48 47 47 46 46 46 46 46 46 45 48 48 48 48 48 50 44 44 52 46 43 38 37 35 33 31 28 26 26 24 26 24 21 22 22 22 22
46 47 46 43 44 45 45 46 46 48 48 49 47 46 46 46 45 45 46 47 46 47 47 48 49 48 43 52 51 47 42 35 36 35 32 30 30 28 27 26 22 22 19 18 21 23 27
46 47 45 44 44 44 45 45 45 46 47 46 47 46 46 46 46 46 45 46 47 47 46 47 45 45 41 49 47 48 40 34 35 33 31 30 30 26 25 24 23 19 27 19 22 24 25
47 46 45 45 45 44 44 44 44 44 46 46 45 45 45 45 45 46 49 44 46 47 46 43 44 41 43 41 45 43 37 35 32 32 28 29 28 23 22 25 22 22 19 20 17 26 26
49 46 46 45 45 46 45 45 45 45 45 46 45 45 44 43 44 46 46 44 40 39 39 38 38 39 39 42 43 34 34 31 30 25 25 29 26 22 21 23 22 21 19 22 24 26 28
49 48 45 45 45 46 46 46 45 45 44 45 44 45 45 43 43 43 43 39 41 39 34 40 40 41 44 44 34 32 32 27 26 27 24 26 25 23 23 24 23 24 23 25 27 28 28
48 49 49 46 45 46 46 46 47 46 46 45 46 45 45 45 44 44 42 42 45 42 33 36 40 39 41 41 36 34 32 27 25 24 24 27 23 26 26 28 25 25 23 24 27 30 30
48 50 50 49 48 47 47 48 48 48 48 46 46 46 45 44 42 42 42 46 47 46 30 30 34 37 40 38 35 36 37 32 26 22 26 26 27 26 25 29 28 26 26 27 29 28 27
51 50 49 49 49 48 48 49 48 49 49 49 45 45 44 43 41 41 43 47 47 44 18 32 36 42 41 36 33 33 38 36 25 25 30 29 26 27 27 30 28 29 30 30 30 28 28
50 48 48 48 48 48 47 47 48 49 50 50 48 44 45 43 43 43 46 45 43 30 19 30 37 36 32 31 32 34 33 35 33 29 29 28 31 30 31 30 29 30 31 31 29 28 24
50 48 49 49 49 48 48 48 49 49 50 51 49 43 41 41 41 44 43 40 30 23 32 30 33 35 28 28 30 29 30 30 30 28 29 31 30 32 32 31 32 31 29 26 25 24 24
48 49 48 49 49 48 49 49 50 50 51 50 45 43 41 40 43 44 40 35 23 29 30 36 32 29 27 28 29 30 28 28 30 30 30 27 26 31 33 33 32 31 31 26 20 21 24
47 49 48 49 49 49 48 49 49 50 48 46 43 42 42 42 43 44 37 28 28 30 28 27 26 26 27 28 29 29 27 29 30 31 27 29 29 33 33 33 34 33 31 33 28 27 24
46 48 48 48 49 49 49 48 48 49 48 43 41 41 41 43 44 42 33 28 28 28 28 28 23 24 24 27 27 28 27 31 31 32 33 31 28 32 34 35 35 34 33 29 30 22 22
45 47 47 47 49 49 49 49 49 48 48 41 41 38 43 44 44 37 31 29 31 33 34 29 24 24 25 26 26 26 27 31 33 33 34 32 30 30 34 33 31 31 29 29 27 26 22
46 45 47 47 49 49 49 49 49 49 48 41 42 35 45 45 38 35 34 33 33 32 33 31 31 30 28 28 27 28 29 31 36 35 30 33 31 28 29 32 32 31 29 27 22 26 26
47 45 45 47 48 50 49 49 49 48 48 42 36 37 44 45 34 32 32 32 33 32 32 31 31 32 32 29 27 29 30 33 35 34 33 32 30 26 24 26 28 27 28 29 25 27 24
47 46 45 46 48 49 49 49 49 48 47 44 38 30 40 37 37 32 31 30 31 33 31 30 30 31 29 27 28 28 30 33 35 35 35 34 29 26 23 23 24 24 25 27 25 26 25
47 47 45 45 47 48 49 49 49 47 47 45 37 33 35 34 31 31 31 30 29 29 31 30 28 29 28 23 23 25 27 31 34 36 34 32 28 28 27 27 25 23 22 24 24 24 23
48 47 46 44 46 48 49 49 49 46 46 40 37 35 34 30 30 31 28 29 29 30 31 27 25 26 26 24 26 24 26 25 24 32 30 31 27 27 24 23 23 22 23 23 23 24 25
49 47 46 45 44 47 48 50 50 46 45 39 39 36 33 28 28 27 28 29 30 32 32 31 30 29 26 30 31 31 31 30 29 26 26 26 27 25 19 24 23 12 18 19 22 22 23
49 48 46 46 44 46 48 49 50 46 45 42 40 38 33 25 26 27 28 29 28 29 31 30 30 29 33 33 32 32 32 31 30 29 29 26 26 26 23 24 13 13 20 22 19 20 23
49 49 47 46 45 44 47 49 49 47 44 42 41 40 33 28 25 27 28 28 28 29 29 30 30 33 33 31 27 22 25 25 27 29 29 29 27 24 23 20 17 13 19 17 15 13 20
49 48 48 46 45 44 45 48 49 48 44 42 41 41 39 31 25 26 26 28 26 23 27 29 32 33 34 29 23 18 10 13 17 23 25 28 28 27 22 17 4 12 17 23 22 4 19
51 49 49 47 45 45 44 47 49 48 44 41 41 41 41 35 30 28 26 28 30 29 25 27 28 33 32 26 21 15 14 19 11 14 22 25 26 25 25 22 20 19 20 25 2 7 18
52 50 49 48 46 45 44 45 48 48 45 39 40 40 39 37 35 31 32 30 32 30 23 30 30 32 30 25 19 18 19 18 17 15 18 19 21 22 23 20 14 23 24 12 15 21 24
52 52 50 49 47 45 45 44 46 48 45 43 38 39 38 35 36 35 34 34 34 34 34 32 31 28 29 26 23 21 19 19 16 11 16 13 13 13 19 19 21 25 19 24 21 23 25

GFSGBSN_sfc_30mbdewp_111.txt.gz
Dewpoint
48 47 44 46 46 47 46 48 49 49 50 48 46 46 47 47 47 47 47 47 49 49 48 47 50 53 50 45 43 50 53 51 44 40 36 29 27 25 26 27 23 24 26 27 28 26 24
48 45 44 46 46 45 45 46 48 49 48 48 47 46 46 46 46 47 48 49 50 50 48 48 49 52 47 40 50 52 53 46 38 37 33 32 26 27 26 25 25 28 26 24 22 22 21
48 45 43 43 43 43 44 46 48 49 48 48 47 47 47 46 46 46 45 47 48 48 48 48 49 50 44 45 52 51 45 39 37 35 32 30 29 27 26 25 25 23 19 22 22 22 22
47 45 45 44 45 45 44 44 46 47 48 49 47 46 46 45 45 47 47 46 47 48 49 48 49 47 43 52 51 47 44 36 35 34 31 31 30 28 27 26 22 21 18 16 22 22 26
46 45 46 45 45 45 45 45 44 45 46 47 48 47 47 47 46 46 46 46 47 46 48 47 45 44 41 51 46 48 48 35 32 31 30 31 28 25 25 23 20 19 22 18 21 24 26
47 45 45 45 46 46 46 45 45 45 45 45 45 45 45 45 46 49 45 45 43 43 43 43 44 40 41 43 46 46 39 35 32 29 26 26 27 23 23 27 8 18 17 20 18 25 26
49 47 45 44 45 45 45 48 45 45 46 45 46 46 44 44 47 47 45 42 39 38 40 39 40 39 42 45 46 40 36 32 31 27 18 30 23 18 22 22 22 21 20 21 24 28 26
49 50 48 47 46 46 47 48 48 46 45 46 45 46 43 45 45 44 43 40 41 40 34 39 40 42 44 45 38 34 34 28 27 24 24 27 23 23 25 25 24 23 22 25 29 30 29
50 49 49 49 48 48 49 48 49 48 46 46 46 45 45 45 45 44 42 42 47 41 33 36 40 39 41 41 35 34 37 29 26 23 26 25 25 26 27 28 26 25 24 27 27 30 31
49 47 49 48 48 48 48 48 50 49 49 46 46 45 44 44 40 42 41 45 47 47 28 30 35 39 40 40 34 37 37 34 26 25 27 26 27 26 28 28 28 25 28 28 30 28 20
50 48 49 49 49 49 49 48 48 50 50 48 45 45 43 43 41 40 43 46 47 44 15 33 36 43 41 35 34 29 37 35 25 28 28 26 25 26 28 29 28 29 31 30 30 28 26
50 49 48 49 49 49 50 49 49 50 51 51 45 45 45 44 43 44 46 45 42 24 18 31 37 36 36 35 33 31 34 35 33 30 29 29 30 30 31 30 30 32 31 31 29 28 23
48 50 48 49 49 49 49 50 50 50 51 50 46 43 42 43 39 45 43 40 24 21 32 30 32 34 30 30 30 31 30 30 29 24 27 30 30 32 32 31 32 30 28 24 23 23 19
48 48 48 48 49 49 50 49 50 49 49 48 44 42 41 42 44 43 40 33 22 30 31 36 33 30 28 28 29 30 29 27 29 31 29 25 20 32 32 32 31 31 30 25 19 22 23
46 47 47 47 49 49 49 50 49 50 48 43 44 42 42 43 44 43 35 28 26 29 31 31 31 27 27 29 30 29 29 29 30 31 27 28 28 34 32 32 33 31 29 33 27 27 24
45 47 47 47 49 49 49 49 50 49 46 43 41 41 41 44 44 41 30 28 29 30 29 28 24 25 25 28 28 28 28 31 31 32 33 31 27 32 33 35 34 34 33 28 28 21 19
46 46 47 47 48 49 49 49 49 49 47 44 40 37 43 44 43 35 30 29 31 33 34 30 26 25 25 26 27 27 28 31 33 33 34 32 30 31 34 32 31 31 29 29 27 25 20
47 45 46 47 48 49 49 49 49 49 45 40 42 31 43 44 33 35 31 33 33 32 33 31 32 31 28 27 27 29 30 32 35 35 32 32 31 28 28 33 33 31 28 28 23 25 25
48 47 45 47 48 49 49 50 49 48 48 41 37 37 45 45 30 31 33 32 33 32 31 31 31 32 31 29 28 29 31 34 35 34 33 32 30 24 25 26 28 28 29 29 26 26 22
48 47 45 46 48 49 49 50 49 48 49 43 38 27 38 36 36 32 31 31 30 33 31 30 30 31 30 27 28 29 31 33 35 35 35 33 30 26 20 22 26 26 27 28 27 23 21
48 47 47 44 46 48 48 49 48 47 49 42 36 30 35 29 29 31 31 30 29 30 31 30 28 27 27 24 24 26 29 31 34 36 34 33 28 28 28 28 28 26 25 25 27 25 22
49 47 47 46 44 48 48 50 48 46 47 37 34 33 34 29 30 29 29 29 30 30 30 28 27 27 26 25 27 26 26 26 28 33 32 32 23 28 25 25 25 24 24 24 23 26 25
49 48 47 46 44 46 48 50 49 46 44 37 39 36 33 28 28 27 27 29 30 32 32 30 30 29 27 29 30 30 32 31 30 28 28 29 27 24 14 24 23 9 15 21 22 23 24
49 49 47 46 46 44 48 50 49 47 44 42 39 38 33 25 26 26 28 28 28 29 30 31 30 29 32 33 32 32 32 31 30 30 29 27 26 25 21 23 1 5 18 19 19 20 23
50 49 48 46 46 45 46 49 49 47 45 40 40 39 33 27 25 27 27 27 28 29 28 29 31 32 33 31 25 20 25 25 27 29 29 29 27 23 20 20 16 12 19 16 16 10 20
51 49 49 47 46 46 45 47 49 47 46 42 39 41 39 30 23 26 25 27 25 25 28 29 31 33 33 29 23 16 9 13 17 25 25 28 29 25 24 18 1 4 15 22 20 2 14
52 51 49 48 47 46 45 45 48 48 46 41 39 40 40 35 33 27 22 27 30 28 24 27 29 32 32 27 22 17 13 19 9 14 21 26 27 25 25 23 21 22 18 23 0 -10 17
52 52 50 49 48 46 45 45 47 48 46 41 40 38 36 34 34 33 31 29 30 29 20 27 25 30 30 23 22 18 18 17 17 17 21 17 20 23 25 23 11 23 23 12 7 21 20
51 52 52 49 48 46 45 45 44 47 46 44 37 40 38 33 30 37 35 34 33 33 32 32 26 29 29 27 24 22 19 19 17 8 16 13 18 19 22 18 22 24 19 22 21 19 20

GFSGBSN_sfc_30mbdewp_114.txt.gz
Dewpoint
44 44 43 44 45 43 47 49 49 48 47 47 47 47 48 47 46 47 47 47 47 50 48 48 50 53 51 43 44 51 55 52 43 40 35 29 26 28 26 25 23 25 26 28 28 24 23
45 45 44 44 44 44 45 47 49 48 47 47 46 46 46 46 47 47 48 48 49 50 47 49 49 52 47 39 51 52 51 50 39 37 32 29 27 28 28 25 22 28 27 25 22 21 21
46 46 46 45 45 46 45 46 47 48 48 47 47 47 46 46 46 47 48 49 49 49 49 48 50 50 45 45 51 53 47 41 37 36 29 30 29 27 26 24 25 24 20 21 21 22 22
46 45 46 46 47 48 46 45 45 46 47 47 46 46 46 47 48 47 47 47 47 47 48 49 49 47 43 51 52 47 46 37 33 33 31 31 30 27 26 25 22 19 19 11 22 22 26
46 46 45 46 46 46 49 46 45 45 45 46 47 47 47 46 47 46 47 47 47 47 48 47 44 43 40 50 45 49 48 36 31 30 30 31 27 25 25 20 17 19 8 15 20 24 26
50 48 46 45 46 47 47 48 45 46 45 46 45 45 45 48 48 46 45 45 44 43 43 42 43 38 42 43 46 46 47 40 30 26 23 26 27 23 24 21 2 10 20 20 18 24 26
51 50 49 49 48 48 49 49 46 45 45 46 46 44 46 46 48 47 43 41 38 38 40 40 40 40 42 44 46 41 40 34 30 27 18 30 18 16 22 23 24 21 22 19 24 27 26
50 46 48 48 48 48 49 49 49 46 46 46 46 44 46 47 46 46 43 40 42 40 35 40 41 42 44 45 34 35 37 28 30 19 27 25 21 24 27 25 22 22 22 25 29 30 29
49 47 48 48 48 48 48 49 49 49 46 46 46 46 46 45 45 43 43 43 47 41 34 36 41 40 41 42 37 35 37 30 27 26 27 23 24 28 26 26 24 26 25 27 25 30 31
48 48 48 49 49 49 49 49 50 50 47 46 46 45 44 45 39 42 41 45 47 47 27 31 35 39 41 42 35 38 37 33 26 26 26 25 27 28 28 28 27 24 29 29 30 25 11
49 48 48 48 49 49 50 48 50 51 50 46 46 45 45 43 41 38 41 45 46 42 16 33 35 42 42 37 36 32 34 33 28 29 25 23 25 27 28 28 30 28 31 31 30 28 26
49 48 48 48 49 50 49 49 49 51 51 48 45 45 46 42 43 44 46 45 42 20 18 31 37 35 33 34 32 32 33 34 33 30 29 28 29 31 31 31 31 32 31 31 30 26 15
47 48 47 47 48 49 50 49 49 50 50 49 43 44 42 44 37 45 43 37 23 21 32 30 32 33 32 32 30 31 29 30 28 22 27 29 30 32 32 31 32 30 26 16 13 19 15
46 47 47 48 48 48 49 49 50 50 49 48 43 43 42 43 44 42 39 29 22 29 31 35 34 33 30 31 29 30 29 28 30 29 27 23 19 31 32 31 29 31 28 21 10 20 22
45 46 47 48 49 49 48 49 49 50 46 43 44 42 42 42 44 41 33 26 25 28 32 32 32 28 28 29 30 30 29 30 30 31 26 26 28 33 32 32 32 29 27 32 26 26 24
46 46 47 48 49 49 49 49 49 50 46 45 41 41 41 44 44 40 30 29 30 31 30 31 25 26 26 28 28 28 29 31 30 32 33 30 27 32 33 34 34 32 33 27 26 19 18
46 46 47 48 49 49 49 49 49 49 48 45 40 36 43 44 42 34 29 29 30 33 33 30 28 25 26 27 28 27 28 31 33 32 34 32 29 30 33 32 30 32 30 29 27 26 20
47 46 46 47 49 49 48 49 48 49 46 41 41 32 43 44 32 33 31 33 33 32 33 32 32 30 29 29 28 30 29 31 34 34 32 32 30 29 30 32 33 32 29 28 23 22 24
48 47 46 46 48 49 49 49 48 48 47 41 36 37 44 43 29 30 33 32 32 32 31 31 31 32 31 29 27 30 31 35 36 34 32 32 28 23 25 27 29 30 30 29 26 25 23
48 48 47 45 46 48 49 49 48 48 50 42 35 27 36 35 35 32 31 31 29 33 30 30 30 30 29 26 29 29 30 33 35 35 35 33 30 25 17 21 27 26 27 30 27 24 23
49 48 47 46 45 48 49 49 49 48 49 39 32 31 35 27 29 30 31 30 29 29 31 30 27 27 27 24 25 27 31 32 34 36 34 32 26 27 27 28 28 27 26 26 28 28 23
49 48 47 47 44 46 49 50 49 48 46 36 33 29 34 29 30 28 28 29 29 30 30 28 26 28 26 25 26 25 26 29 29 34 32 32 22 27 23 25 25 24 25 26 26 27 27
49 49 48 47 46 45 48 50 49 47 41 35 38 36 31 28 28 26 25 28 28 31 31 30 29 28 27 28 30 30 31 31 30 30 29 29 27 23 14 22 22 10 17 22 24 24 24
49 49 48 47 46 45 46 49 49 48 44 39 39 38 32 23 27 25 27 28 28 29 29 31 30 28 31 33 32 32 32 31 30 30 29 26 26 25 20 21 -3 3 17 19 20 20 23
51 49 49 48 46 46 45 48 49 48 45 38 39 38 32 24 27 27 28 27 28 29 28 27 31 31 33 30 24 18 22 24 27 29 29 29 27 23 18 19 15 7 18 19 17 10 18
52 51 49 48 47 46 45 46 48 47 46 40 38 40 37 25 18 26 26 27 24 25 26 29 32 34 33 28 22 10 2 13 16 26 25 29 28 24 23 17 -2 2 15 22 16 0 5
51 51 50 49 48 46 46 45 47 47 46 40 37 39 39 31 32 28 23 22 29 27 23 26 29 31 30 25 20 16 13 17 12 14 21 26 27 25 25 23 21 23 21 22 4 -10 15
50 52 51 50 48 47 46 46 45 47 46 41 39 38 34 31 31 34 31 30 30 29 20 24 24 28 29 22 21 18 18 17 17 17 20 18 21 23 24 23 9 24 22 11 9 17 20
50 51 52 51 49 48 46 46 44 45 46 42 37 40 38 33 29 37 36 35 33 32 29 31 23 28 27 25 25 22 19 20 17 6 20 14 17 16 22 16 22 23 19 21 21 19 19

GFSGBSN_sfc_30mbdewp_117.txt.gz
Dewpoint
46 45 46 46 46 46 45 48 49 49 47 47 47 47 47 47 47 47 47 48 47 50 48 49 50 53 51 43 45 53 55 50 43 39 33 31 27 28 24 24 25 26 28 29 27 23 22
46 45 46 47 49 47 46 46 48 49 47 47 47 46 46 47 48 49 47 47 48 49 49 48 50 52 46 38 52 53 54 45 38 36 31 28 26 29 27 25 24 27 27 24 22 21 23
46 46 46 47 47 49 47 46 46 47 48 47 46 46 47 47 47 48 49 49 50 50 49 49 50 49 45 44 52 52 49 42 37 36 28 30 29 26 26 25 26 23 20 21 21 21 23
48 47 46 46 46 47 49 46 46 45 47 48 47 47 48 47 47 47 47 48 48 48 49 49 49 46 43 51 52 50 47 36 33 32 31 31 29 26 25 25 22 18 18 9 21 21 26
51 50 49 48 48 49 50 46 46 45 46 46 47 47 46 47 46 48 48 47 47 46 47 47 43 42 41 50 46 48 48 39 36 28 31 30 27 25 24 18 15 19 7 14 20 24 26
49 48 48 48 48 48 49 47 46 46 46 46 45 46 48 48 47 47 46 45 44 44 44 42 43 37 42 42 46 47 48 42 31 25 25 27 25 22 25 13 6 8 19 18 18 24 25
47 48 48 49 50 49 48 50 46 46 46 46 45 46 47 48 47 47 43 40 37 39 41 40 41 39 41 44 46 44 47 40 30 23 22 29 17 15 22 24 19 18 20 19 24 27 27
48 48 49 49 50 50 50 49 49 46 46 46 46 46 47 46 47 46 43 40 41 40 35 40 40 41 43 44 36 41 45 34 25 23 27 21 19 24 26 24 22 21 19 23 29 29 29
48 48 48 48 50 51 51 49 50 47 46 46 45 46 46 46 45 43 43 43 46 41 34 36 41 40 42 43 37 36 41 32 28 27 24 21 24 28 25 25 23 26 23 26 24 29 31
48 47 48 48 49 51 51 50 50 49 46 46 45 45 45 45 39 41 41 46 46 46 28 31 36 40 40 42 33 37 38 32 28 25 26 25 27 27 28 27 26 20 29 30 29 23 7
48 47 47 47 48 50 51 50 50 50 47 46 45 45 46 41 39 37 41 45 46 40 16 33 36 44 42 36 35 33 34 33 28 29 22 24 26 28 27 28 30 27 31 31 30 27 24
47 47 47 48 47 49 50 49 49 51 49 45 45 46 46 42 42 44 45 44 39 19 18 31 37 36 36 34 33 33 32 34 33 29 29 27 29 31 30 31 31 32 31 29 29 25 13
46 46 47 48 49 48 49 49 49 50 50 48 43 44 43 44 36 45 43 36 22 20 31 29 33 35 33 32 29 31 30 30 26 19 25 29 30 32 32 30 31 29 27 11 9 16 7
46 46 47 48 49 49 48 49 49 50 49 48 42 42 43 44 44 42 37 28 21 28 30 34 34 31 29 29 29 30 28 28 31 28 26 19 16 30 32 31 28 30 26 12 -5 13 22
46 46 47 48 49 49 49 49 50 50 46 46 44 42 41 42 44 40 32 25 25 28 32 33 33 28 27 29 29 29 29 29 30 30 23 24 26 33 33 33 31 29 26 30 24 24 23
46 46 46 47 49 49 49 49 49 50 47 45 41 41 41 44 44 37 30 29 30 31 32 31 25 27 26 28 28 28 29 31 30 32 32 29 27 32 32 33 34 31 33 25 25 17 15
48 47 46 47 48 49 49 49 49 48 48 44 40 35 42 44 42 33 28 29 30 33 33 30 28 25 27 27 28 27 28 31 33 32 34 31 28 28 31 32 30 32 29 29 26 24 18
48 48 46 46 48 49 49 49 49 48 47 40 40 32 43 43 31 32 31 32 33 32 33 32 32 30 29 28 28 30 28 31 34 34 31 32 30 27 29 32 33 32 29 28 22 20 24
48 48 48 46 47 49 49 49 49 49 44 41 36 37 44 42 27 30 32 31 32 31 30 31 31 31 31 29 27 30 31 35 35 34 32 32 28 24 24 27 31 31 30 29 26 25 23
49 48 48 47 46 48 49 49 49 49 50 41 34 26 34 35 34 31 30 30 29 33 30 30 30 30 28 26 29 29 30 33 35 36 34 31 28 23 13 17 26 29 28 29 27 24 23
49 48 48 48 45 47 49 49 49 49 51 38 32 30 34 26 29 31 31 30 29 28 31 29 26 27 26 24 25 28 31 32 34 36 34 31 22 27 27 27 27 26 26 27 28 28 24
49 49 48 47 46 45 49 49 49 48 49 36 31 28 32 29 30 28 28 28 27 30 29 26 24 27 26 24 24 24 28 29 27 34 32 32 22 26 23 24 26 25 26 27 27 29 29
49 49 48 47 47 45 47 50 49 48 41 36 37 36 28 28 28 26 24 28 28 31 30 30 29 27 27 27 29 29 30 30 30 31 30 29 27 23 14 20 22 11 16 20 23 25 25
50 49 49 48 47 46 45 48 49 48 41 39 39 36 30 21 26 25 27 28 28 29 28 31 30 28 30 33 31 31 31 31 30 30 30 27 25 24 20 20 -7 1 16 20 20 21 24
51 50 49 48 47 47 46 46 48 47 43 37 38 37 30 20 25 26 28 26 28 29 27 26 30 31 33 29 23 17 21 25 27 29 29 28 26 22 17 17 12 5 18 18 17 7 18
51 51 50 48 47 47 46 45 47 47 45 38 37 39 35 21 16 26 26 27 22 23 25 29 32 33 32 26 21 9 1 13 18 25 29 29 28 24 23 15 -6 -1 14 21 17 -2 6
50 50 51 49 48 47 46 46 46 47 46 38 37 38 37 28 28 27 22 22 28 26 22 25 28 31 29 23 17 13 11 16 12 15 23 26 27 25 24 22 19 22 20 21 3 -7 13
48 51 52 51 48 47 46 46 45 46 46 40 39 38 33 29 28 35 31 30 31 28 18 22 23 27 27 21 20 18 17 17 16 15 21 20 22 23 25 23 8 24 22 10 8 13 19
49 50 51 52 51 48 47 46 45 44 45 41 36 40 39 34 30 37 37 36 33 30 27 29 21 27 27 22 24 22 19 20 17 5 21 13 18 16 22 14 21 23 21 20 22 21 22

GFSGBSN_sfc_30mbdewp_120.txt.gz
Dewpoint
46 46 46 45 49 48 47 46 48 48 48 47 46 46 47 47 47 47 47 48 51 50 50 49 52 53 50 44 45 53 52 51 46 39 33 31 28 27 26 24 26 27 28 28 24 22 22
48 47 47 46 46 49 48 47 47 48 48 46 46 46 47 48 48 47 47 48 49 50 49 49 52 52 46 39 52 51 48 47 38 34 30 28 26 28 25 26 25 28 26 22 22 22 23
51 49 49 49 49 49 50 47 46 46 47 48 47 48 48 47 48 49 49 49 50 49 50 50 50 49 44 44 53 49 50 45 36 34 28 30 29 26 26 24 26 23 19 20 22 21 23
49 48 48 48 49 49 49 47 46 46 46 46 47 47 47 47 48 47 47 48 49 49 49 48 48 47 42 52 52 48 49 39 39 32 31 30 28 26 24 25 20 17 16 8 21 21 27
47 49 49 50 50 49 50 47 46 46 46 46 45 47 48 47 48 48 47 47 46 47 46 45 43 43 40 50 47 50 49 43 36 29 31 29 27 26 21 17 14 17 6 13 18 24 25
48 48 50 50 50 50 49 48 47 46 46 46 45 47 48 47 48 47 47 46 43 43 43 42 43 36 42 42 46 48 49 45 33 25 26 24 24 21 22 13 2 8 12 16 16 23 25
47 48 50 50 50 50 50 50 47 46 47 46 46 48 47 47 48 46 42 40 37 37 41 40 40 39 42 45 47 46 47 40 28 27 22 25 17 15 22 24 14 19 16 15 24 27 27
48 47 49 50 49 50 50 49 49 46 46 46 46 47 47 47 46 46 43 40 40 40 36 40 40 40 43 45 39 42 43 31 25 24 23 20 21 24 26 24 22 20 18 23 29 29 29
49 48 47 49 49 50 50 49 49 46 47 46 46 46 46 46 45 42 43 43 46 42 35 36 41 40 42 42 38 39 42 35 27 24 21 19 24 28 25 25 22 26 21 23 22 28 30
48 48 47 47 49 50 50 49 50 47 47 46 45 45 46 46 38 41 40 46 46 46 27 31 36 39 41 42 36 41 42 35 27 25 26 25 28 27 26 26 24 18 30 30 28 20 4
47 47 48 49 47 50 49 49 50 49 46 46 45 46 47 41 39 37 41 45 46 37 15 34 36 44 41 36 36 37 34 33 28 28 22 24 27 27 26 28 29 26 31 30 29 25 22
47 46 47 48 48 48 49 48 48 50 49 45 45 45 46 41 41 43 45 43 35 19 18 31 37 36 35 35 33 33 33 34 32 29 29 28 29 31 29 32 31 32 30 26 26 24 9
46 47 47 48 48 48 48 49 48 50 50 48 43 44 43 43 36 44 42 34 22 20 31 30 32 36 32 30 30 31 30 30 23 15 23 27 30 32 32 29 31 28 26 6 7 11 6
47 47 47 48 48 49 48 48 49 51 48 49 43 42 43 44 44 42 36 27 21 29 30 35 35 33 28 29 29 29 29 29 31 27 25 13 13 29 32 30 26 29 25 9 -6 4 19
47 47 47 47 47 48 49 49 50 51 46 47 44 41 41 42 44 40 32 25 26 30 33 33 32 27 27 29 29 29 29 29 31 29 20 23 26 33 33 34 30 29 25 27 22 24 21
48 47 47 48 48 48 48 49 49 50 46 45 40 40 41 43 43 35 30 28 29 31 33 32 25 27 26 28 28 28 28 31 31 32 31 28 26 32 32 33 34 30 31 23 23 14 12
49 48 47 47 49 49 49 48 49 48 47 43 40 36 41 44 41 33 28 28 31 33 32 30 27 26 27 28 28 27 28 31 33 33 33 30 27 29 31 31 29 31 29 28 26 23 17
49 49 48 46 48 49 49 49 48 49 46 40 38 31 43 43 30 31 30 32 33 32 33 32 32 29 29 28 28 29 27 31 34 33 31 32 28 25 27 32 33 31 29 27 21 19 24
49 49 48 47 47 49 49 49 49 48 46 40 36 36 42 39 26 29 32 31 32 31 30 31 31 31 31 29 28 31 32 35 35 34 31 31 27 23 24 27 32 31 30 28 25 25 23
49 49 48 48 46 47 49 49 49 49 50 40 33 25 32 34 33 31 30 30 29 32 30 30 30 30 27 27 29 29 31 33 35 35 35 30 27 23 11 15 27 29 29 29 27 24 22
49 49 49 48 47 46 49 49 49 50 50 37 31 30 33 25 28 30 30 30 29 27 30 29 26 26 26 24 25 28 31 33 34 36 33 29 19 25 25 26 26 26 27 29 28 27 24
49 49 49 48 47 45 47 49 48 49 46 35 30 29 30 29 30 28 27 28 27 29 29 26 24 27 27 24 24 23 28 29 27 34 32 31 21 25 21 24 25 24 26 26 28 29 28
50 49 49 48 47 46 46 49 49 46 42 35 37 36 25 28 28 24 23 27 27 30 30 30 28 26 25 27 29 30 30 30 29 31 30 28 26 22 12 19 21 12 17 23 25 27 27
49 50 49 48 47 47 46 48 48 47 41 38 38 35 29 19 26 24 25 28 28 29 27 31 30 26 29 32 31 30 30 30 29 30 29 27 25 24 19 18 -9 -1 15 19 21 21 25
49 51 50 49 48 47 47 46 47 47 41 38 38 35 29 17 25 26 27 26 28 29 27 26 29 31 33 28 21 16 20 25 28 28 29 28 26 22 16 14 10 5 17 18 16 6 18
50 48 50 49 48 47 47 46 46 46 44 37 37 38 32 18 13 26 26 27 22 22 25 29 32 33 30 24 19 7 -1 12 20 25 29 28 27 23 22 12 -10 -4 14 21 18 -3 5
49 49 50 51 48 47 46 46 45 46 44 37 37 38 35 23 25 27 23 22 27 24 20 24 29 31 27 22 15 11 9 15 11 15 24 26 26 25 24 20 17 20 20 22 1 -2 13
49 49 51 52 50 48 46 46 45 45 45 39 38 39 33 28 28 34 31 30 31 27 18 23 24 26 26 20 18 17 16 16 16 14 22 20 21 22 24 22 7 23 21 11 9 17 20
49 48 50 51 51 49 47 46 45 45 44 40 34 40 38 34 29 36 36 36 33 29 26 28 20 26 26 20 23 21 18 20 16 5 21 14 20 16 22 14 20 23 21 21 23 23 21